[[{"header":{"parameterUnit":"m.s-1","parameterCategory":1,"la1":30.6,"la2":29.2853,"lo1":-89.7004,"lo2":-87.6739,"dy":0.0162,"dx":0.0183,"nx":112,"ny":82,"refTime":"2023-07-17T00:00:00:Z","depth":0,"parameterNumber":2,"parameterNumberName":"U-component_of_WINDS"},"data":[0.0,0.0,0.0,0.0,0.0,0.0,0.0,0.0,0.0,0.0,0.0,0.0,0.0,0.0,0.0,0.0,0.0,0.0,0.0,0.0,0.0,0.0,0.0,0.0,0.0,0.0,0.0,0.0,0.0,0.0,0.0,0.0,0.0,0.0,0.0,0.0,0.0,0.0,0.0,0.0,0.0,0.0,0.0,0.0,0.0,0.0,0.0,0.0,0.0,0.0,0.0,0.0,0.0,0.0,0.0,0.0,0.0,0.0,0.0,0.0,0.0,0.0,0.0,0.0,0.0,0.0,0.0,0.0,0.0,0.0,0.0,0.0,0.0,0.0,0.0,0.0,0.0,0.0,0.0,0.0,0.0,0.0,0.0,0.0,0.0,0.0,0.0,0.0,0.0,0.0,0.0,-2.3885,-2.6377,-2.7705,-2.7267,-2.652,-2.5198,-2.3205,0.0,0.0,0.0,0.0,0.0,0.0,0.0,0.0,0.0,0.0,0.0,0.0,0.0,0.0,0.0,0.0,0.0,0.0,0.0,0.0,0.0,0.0,0.0,0.0,0.0,0.0,0.0,0.0,0.0,0.0,0.0,0.0,0.0,0.0,0.0,0.0,0.0,0.0,0.0,0.0,0.0,0.0,0.0,0.0,0.0,0.0,0.0,0.0,0.0,0.0,0.0,0.0,0.0,0.0,0.0,0.0,0.0,0.0,0.0,0.0,0.0,0.0,0.0,0.0,0.0,0.0,0.0,0.0,0.0,0.0,0.0,0.0,0.0,0.0,0.0,0.0,0.0,0.0,0.0,0.0,0.0,0.0,0.0,0.0,0.0,0.0,0.0,0.0,0.0,0.0,0.0,0.0,0.0,0.0,0.0,0.0,0.0,0.0,0.0,0.0,0.0,0.0,0.0,0.0,-2.2668,-2.6652,-2.7996,-2.8684,-2.876,-2.7532,-2.5901,-2.3951,0.0,0.0,0.0,0.0,0.0,0.0,0.0,0.0,0.0,0.0,0.0,0.0,0.0,0.0,0.0,0.0,0.0,0.0,0.0,0.0,0.0,0.0,0.0,0.0,0.0,0.0,0.0,0.0,0.0,0.0,0.0,0.0,0.0,0.0,0.0,0.0,0.0,0.0,0.0,0.0,0.0,0.0,0.0,0.0,0.0,0.0,0.0,0.0,0.0,0.0,0.0,0.0,0.0,0.0,0.0,0.0,0.0,0.0,0.0,0.0,0.0,0.0,0.0,0.0,0.0,0.0,0.0,0.0,0.0,0.0,0.0,0.0,0.0,0.0,0.0,0.0,0.0,0.0,0.0,0.0,0.0,0.0,0.0,0.0,0.0,0.0,0.0,0.0,0.0,0.0,0.0,0.0,0.0,0.0,0.0,0.0,0.0,0.0,0.0,0.0,0.0,0.0,0.0,-2.1859,-2.4675,-2.7413,-2.8709,-2.9318,-2.912,-2.8105,-2.6494,-2.415,-2.1615,0.0,0.0,0.0,0.0,0.0,0.0,0.0,0.0,0.0,0.0,0.0,0.0,0.0,0.0,0.0,0.0,0.0,0.0,0.0,0.0,0.0,0.0,0.0,0.0,0.0,0.0,0.0,0.0,0.0,0.0,0.0,0.0,0.0,0.0,0.0,0.0,0.0,0.0,0.0,0.0,0.0,0.0,0.0,0.0,0.0,0.0,0.0,0.0,0.0,0.0,0.0,0.0,0.0,0.0,0.0,0.0,0.0,0.0,0.0,0.0,0.0,0.0,0.0,0.0,0.0,0.0,0.0,0.0,0.0,0.0,0.0,0.0,0.0,0.0,0.0,0.0,0.0,0.0,0.0,0.0,0.0,0.0,0.0,0.0,0.0,0.0,0.0,0.0,0.0,0.0,0.0,0.0,0.0,0.0,0.0,0.0,0.0,0.0,0.0,0.0,0.0,0.0,-2.3817,-2.6131,-2.7559,-2.9021,-2.9675,-2.9153,-2.8252,-2.6658,-2.4166,-2.1764,0.0,0.0,0.0,0.0,0.0,0.0,0.0,0.0,0.0,0.0,0.0,0.0,0.0,0.0,0.0,0.0,0.0,0.0,0.0,0.0,0.0,0.0,0.0,0.0,0.0,0.0,0.0,0.0,0.0,0.0,0.0,0.0,0.0,0.0,0.0,0.0,0.0,0.0,0.0,0.0,0.0,0.0,0.0,0.0,0.0,0.0,0.0,0.0,0.0,0.0,0.0,0.0,0.0,0.0,0.0,0.0,0.0,0.0,0.0,0.0,0.0,0.0,0.0,0.0,0.0,0.0,0.0,0.0,0.0,0.0,0.0,0.0,0.0,0.0,0.0,0.0,0.0,0.0,0.0,0.0,0.0,0.0,0.0,0.0,0.0,0.0,0.0,0.0,0.0,0.0,0.0,0.0,0.0,0.0,0.0,0.0,0.0,0.0,0.0,0.0,0.0,0.0,-2.3817,-2.6131,-2.7559,-2.9021,-2.9675,-2.9153,-2.7791,-2.6131,-2.4133,-2.1286,0.0,0.0,0.0,0.0,0.0,0.0,0.0,0.0,0.0,0.0,0.0,0.0,0.0,0.0,0.0,0.0,0.0,0.0,0.0,0.0,0.0,0.0,0.0,0.0,0.0,0.0,0.0,0.0,0.0,0.0,0.0,0.0,0.0,0.0,0.0,0.0,0.0,0.0,0.0,0.0,0.0,0.0,0.0,0.0,0.0,0.0,0.0,0.0,0.0,0.0,0.0,0.0,0.0,0.0,0.0,0.0,0.0,0.0,0.0,0.0,0.0,0.0,0.0,0.0,0.0,0.0,0.0,0.0,0.0,0.0,0.0,0.0,0.0,0.0,0.0,0.0,0.0,0.0,0.0,0.0,0.0,0.0,0.0,0.0,0.0,0.0,0.0,0.0,0.0,0.0,0.0,0.0,0.0,0.0,0.0,0.0,0.0,0.0,0.0,0.0,0.0,0.0,-2.3817,-2.6131,0.0,-2.9064,-2.9723,-2.9136,-2.782,-2.5957,-2.347,0.0,0.0,0.0,0.0,0.0,0.0,0.0,0.0,0.0,0.0,0.0,0.0,0.0,0.0,0.0,0.0,0.0,0.0,0.0,0.0,0.0,0.0,0.0,0.0,0.0,0.0,0.0,0.0,0.0,0.0,0.0,0.0,0.0,0.0,0.0,0.0,0.0,0.0,0.0,0.0,0.0,0.0,0.0,0.0,0.0,0.0,0.0,0.0,0.0,0.0,0.0,0.0,0.0,0.0,0.0,0.0,0.0,0.0,0.0,0.0,0.0,0.0,0.0,0.0,0.0,0.0,0.0,0.0,0.0,0.0,0.0,0.0,0.0,0.0,0.0,0.0,0.0,0.0,0.0,0.0,0.0,0.0,0.0,0.0,0.0,0.0,0.0,0.0,0.0,0.0,0.0,0.0,0.0,0.0,0.0,0.0,0.0,0.0,0.0,0.0,0.0,0.0,-2.0937,-2.3817,-2.615,0.0,-2.9127,-2.9685,-2.8866,-2.755,-2.555,-2.2725,0.0,0.0,0.0,0.0,0.0,0.0,0.0,0.0,0.0,0.0,0.0,0.0,0.0,0.0,0.0,0.0,0.0,0.0,0.0,0.0,0.0,0.0,0.0,0.0,0.0,0.0,0.0,0.0,0.0,0.0,0.0,0.0,0.0,0.0,0.0,0.0,0.0,0.0,0.0,0.0,0.0,0.0,0.0,0.0,0.0,0.0,0.0,0.0,0.0,0.0,0.0,0.0,0.0,0.0,0.0,0.0,0.0,0.0,0.0,0.0,0.0,0.0,0.0,0.0,0.0,0.0,0.0,0.0,0.0,0.0,0.0,0.0,0.0,0.0,0.0,0.0,0.0,0.0,0.0,0.0,0.0,0.0,0.0,0.0,0.0,0.0,0.0,0.0,0.0,0.0,0.0,0.0,0.0,0.0,0.0,0.0,0.0,0.0,0.0,0.0,0.0,0.0,-2.0937,-2.3817,-2.6189,-2.774,-2.9153,-2.951,-2.8293,-2.6848,-2.4808,0.0,0.0,0.0,0.0,0.0,0.0,0.0,0.0,0.0,0.0,0.0,0.0,0.0,0.0,0.0,0.0,0.0,0.0,0.0,0.0,0.0,0.0,0.0,0.0,0.0,0.0,0.0,0.0,0.0,0.0,0.0,0.0,0.0,0.0,0.0,0.0,0.0,0.0,0.0,0.0,0.0,0.0,0.0,0.0,0.0,0.0,0.0,0.0,0.0,0.0,0.0,0.0,0.0,0.0,0.0,0.0,0.0,0.0,0.0,0.0,0.0,0.0,0.0,0.0,0.0,0.0,0.0,0.0,0.0,0.0,0.0,0.0,0.0,0.0,0.0,0.0,0.0,0.0,0.0,0.0,0.0,0.0,0.0,0.0,0.0,0.0,0.0,0.0,0.0,0.0,0.0,0.0,0.0,0.0,0.0,0.0,0.0,0.0,0.0,0.0,0.0,0.0,0.0,-2.1202,-2.4043,-2.6363,-2.7823,-2.9362,-2.972,-2.8313,-2.742,-2.5672,-2.2758,0.0,0.0,0.0,0.0,0.0,0.0,0.0,0.0,0.0,0.0,0.0,0.0,0.0,0.0,0.0,0.0,0.0,0.0,0.0,0.0,0.0,0.0,0.0,0.0,0.0,0.0,0.0,0.0,0.0,0.0,0.0,0.0,0.0,0.0,0.0,0.0,0.0,0.0,0.0,0.0,0.0,0.0,0.0,0.0,0.0,0.0,0.0,0.0,0.0,0.0,0.0,0.0,0.0,0.0,0.0,0.0,0.0,0.0,0.0,0.0,0.0,0.0,0.0,0.0,0.0,0.0,0.0,0.0,0.0,0.0,0.0,0.0,0.0,0.0,0.0,0.0,0.0,0.0,0.0,0.0,0.0,0.0,0.0,0.0,0.0,0.0,0.0,0.0,0.0,0.0,0.0,0.0,0.0,0.0,0.0,0.0,0.0,0.0,0.0,0.0,0.0,0.0,-2.1752,-2.4571,-2.6784,-2.7955,-2.9465,-2.9939,-2.8788,-2.7841,-2.6171,-2.3503,0.0,0.0,0.0,0.0,0.0,0.0,0.0,0.0,0.0,0.0,0.0,0.0,0.0,0.0,0.0,0.0,0.0,0.0,0.0,0.0,0.0,0.0,0.0,0.0,0.0,0.0,0.0,0.0,0.0,0.0,0.0,0.0,0.0,0.0,0.0,0.0,0.0,0.0,0.0,0.0,0.0,0.0,0.0,0.0,0.0,0.0,0.0,0.0,0.0,0.0,0.0,0.0,0.0,0.0,0.0,0.0,0.0,0.0,0.0,0.0,0.0,0.0,0.0,0.0,0.0,0.0,0.0,0.0,0.0,0.0,0.0,0.0,0.0,0.0,0.0,0.0,0.0,0.0,0.0,0.0,0.0,0.0,0.0,0.0,0.0,0.0,0.0,0.0,0.0,0.0,0.0,0.0,0.0,0.0,0.0,0.0,0.0,0.0,0.0,0.0,0.0,0.0,-2.2554,-2.5278,-2.735,-2.8223,-2.9576,-3.0125,-2.9463,-2.8177,-2.6486,-2.4348,0.0,0.0,0.0,0.0,0.0,0.0,0.0,0.0,0.0,0.0,0.0,0.0,0.0,0.0,0.0,0.0,0.0,0.0,0.0,0.0,0.0,0.0,0.0,0.0,0.0,0.0,0.0,0.0,0.0,0.0,0.0,0.0,0.0,0.0,0.0,0.0,0.0,0.0,0.0,0.0,0.0,0.0,0.0,0.0,0.0,0.0,0.0,0.0,0.0,0.0,0.0,0.0,0.0,0.0,0.0,0.0,0.0,0.0,0.0,0.0,-2.7351,0.0,0.0,0.0,0.0,0.0,0.0,0.0,0.0,0.0,0.0,0.0,0.0,0.0,0.0,0.0,0.0,0.0,0.0,0.0,0.0,0.0,0.0,0.0,0.0,0.0,0.0,0.0,0.0,0.0,0.0,0.0,0.0,0.0,0.0,0.0,0.0,0.0,0.0,0.0,0.0,0.0,-2.3439,-2.5769,-2.7722,-2.9013,-2.9939,-3.0187,-2.9446,-2.8638,-2.7481,-2.5821,-2.3653,0.0,0.0,0.0,0.0,0.0,0.0,0.0,0.0,0.0,0.0,0.0,0.0,0.0,0.0,0.0,0.0,0.0,0.0,0.0,0.0,0.0,0.0,0.0,0.0,0.0,0.0,0.0,0.0,0.0,0.0,0.0,0.0,0.0,0.0,0.0,0.0,0.0,0.0,0.0,0.0,0.0,0.0,0.0,0.0,0.0,0.0,0.0,0.0,0.0,0.0,0.0,0.0,0.0,0.0,0.0,0.0,0.0,0.0,0.0,0.0,-2.9455,0.0,0.0,0.0,0.0,0.0,0.0,0.0,0.0,0.0,0.0,0.0,0.0,0.0,0.0,0.0,0.0,0.0,0.0,0.0,0.0,0.0,0.0,0.0,0.0,0.0,0.0,0.0,0.0,0.0,0.0,0.0,0.0,0.0,0.0,0.0,0.0,0.0,0.0,0.0,0.0,-2.4779,-2.6685,-2.8243,-2.9301,-3.0059,-3.034,-2.9959,-2.9284,-2.8276,-2.6854,-2.4713,0.0,0.0,0.0,0.0,0.0,0.0,0.0,0.0,0.0,0.0,0.0,0.0,0.0,0.0,0.0,0.0,0.0,0.0,0.0,0.0,0.0,0.0,0.0,0.0,0.0,0.0,0.0,0.0,0.0,0.0,0.0,0.0,0.0,0.0,0.0,0.0,0.0,0.0,0.0,0.0,0.0,0.0,0.0,0.0,0.0,0.0,0.0,0.0,0.0,0.0,0.0,0.0,0.0,-3.5469,-3.6201,-3.644,-3.7064,-3.7405,-3.7352,-3.4631,-3.3152,-3.2547,0.0,0.0,0.0,0.0,0.0,0.0,0.0,0.0,0.0,0.0,0.0,0.0,0.0,0.0,0.0,0.0,0.0,0.0,0.0,0.0,0.0,0.0,0.0,0.0,0.0,-2.7469,-2.681,0.0,0.0,0.0,0.0,0.0,0.0,0.0,0.0,0.0,0.0,0.0,0.0,-2.612,-2.7661,-2.8837,-2.9512,-3.0162,-3.0531,-3.0531,-2.9888,-2.8932,-2.7696,-2.5663,-2.3861,0.0,0.0,0.0,0.0,0.0,0.0,0.0,0.0,0.0,0.0,0.0,0.0,0.0,0.0,0.0,0.0,0.0,0.0,0.0,0.0,0.0,0.0,0.0,0.0,0.0,0.0,0.0,0.0,0.0,0.0,0.0,0.0,-1.9458,-2.1096,0.0,0.0,0.0,0.0,0.0,0.0,0.0,0.0,0.0,0.0,0.0,0.0,0.0,-3.43,-3.5745,-3.665,-3.7836,-3.9229,-3.9438,-3.9891,-4.0518,-4.0622,-4.068,-4.0662,-4.0239,0.0,-3.5988,-3.5155,0.0,0.0,0.0,0.0,0.0,0.0,0.0,0.0,0.0,0.0,0.0,0.0,0.0,0.0,0.0,0.0,0.0,0.0,0.0,0.0,0.0,0.0,-2.8847,-3.0281,-3.0598,-3.0497,0.0,-2.7469,-2.4884,-2.3993,-2.3289,0.0,0.0,0.0,0.0,0.0,0.0,0.0,-2.695,-2.839,-2.9546,-3.0274,-3.0559,-3.0671,-3.0671,-3.0102,-2.9412,-2.8578,-2.7054,-2.5279,-2.324,-2.2149,0.0,0.0,0.0,0.0,0.0,0.0,0.0,0.0,0.0,0.0,0.0,0.0,0.0,0.0,0.0,0.0,0.0,0.0,0.0,0.0,0.0,0.0,0.0,0.0,0.0,0.0,0.0,0.0,0.0,-2.0293,-2.2526,-2.4108,-2.5218,-2.5927,0.0,0.0,0.0,0.0,0.0,0.0,0.0,0.0,0.0,-3.4654,-3.6185,-3.7526,-3.8663,-3.9844,-4.0993,-4.2132,-4.2526,-4.3184,-4.3965,-4.3534,-4.3366,-4.3395,-4.2958,-4.1978,-4.0578,-3.8426,-3.73,-3.6864,0.0,0.0,0.0,0.0,-3.4687,-3.4667,-3.4646,-3.4363,0.0,0.0,0.0,0.0,0.0,0.0,0.0,0.0,0.0,0.0,0.0,0.0,0.0,-3.2309,-3.2544,-3.2523,-3.2462,-3.114,-2.9379,0.0,-2.632,-2.5529,-2.4756,0.0,0.0,0.0,0.0,0.0,-2.8515,-2.9615,-3.0382,-3.0679,-3.1157,-3.1262,-3.0864,-3.0587,-2.9939,-2.882,-2.7764,-2.6404,-2.465,-2.3081,-2.166,0.0,0.0,0.0,0.0,0.0,0.0,0.0,0.0,0.0,0.0,0.0,0.0,0.0,0.0,0.0,0.0,0.0,0.0,0.0,0.0,0.0,0.0,0.0,0.0,0.0,0.0,0.0,0.0,-2.3467,-2.5484,-2.7076,-2.8101,-2.9006,0.0,0.0,0.0,0.0,0.0,0.0,-3.4782,-3.6127,-3.7365,-3.85,-3.9669,-4.0839,-4.2032,-4.3126,-4.4069,-4.4872,-4.5406,-4.6032,-4.6693,-4.6097,-4.5884,-4.594,-4.5343,-4.5098,-4.4852,-4.1605,-4.0136,-3.9857,-3.8709,-3.8133,-3.7958,-3.7958,-3.7958,-3.7958,-3.7937,-3.7732,-3.7245,-3.5885,0.0,-3.4438,-3.33,0.0,0.0,0.0,0.0,-3.2051,-3.3559,-3.3877,-3.3967,-3.4644,-3.481,-3.4768,-3.4621,-3.4295,-3.3194,0.0,-2.9175,-2.836,-2.7618,0.0,0.0,0.0,0.0,-2.885,-2.9953,-3.0892,-3.1465,-3.1465,-3.18,-3.1804,-3.1251,-3.1073,-3.0353,-2.8949,-2.8342,-2.7298,-2.566,-2.3849,-2.2699,-2.2296,0.0,0.0,0.0,0.0,0.0,0.0,0.0,0.0,0.0,0.0,0.0,0.0,0.0,0.0,0.0,0.0,0.0,0.0,0.0,0.0,0.0,0.0,0.0,0.0,0.0,0.0,0.0,0.0,0.0,-2.9443,-3.0958,0.0,0.0,0.0,0.0,-3.5416,-3.6911,-3.8143,-3.8968,-3.9796,-4.1253,-4.3483,-4.36,-4.4746,-4.7029,-4.7116,-4.7512,-4.8267,-4.8302,-4.8337,-4.8372,-4.8337,-4.8319,-4.8319,-4.8284,-4.831,-4.8117,-4.4975,-4.3231,-4.26,-4.253,-4.2021,-4.1336,-4.1336,-4.1336,-4.1354,-4.1283,-4.0744,-3.9949,-3.8916,-3.7478,-3.6163,-3.6094,-3.5559,0.0,0.0,-3.5508,-3.5297,-3.6706,-3.708,-3.7225,-3.7895,-3.806,-3.8036,-3.7904,-3.6724,-3.498,0.0,-3.1529,-3.0801,-3.0038,0.0,-2.8708,-2.8725,-2.9878,-3.0758,-3.0845,-3.2102,-3.299,-3.299,-3.245,-3.2092,-3.2042,-3.152,-3.0565,-2.9076,-2.8959,-2.7926,-2.5693,-2.4829,-2.3729,-2.233,-2.1448,0.0,0.0,0.0,0.0,0.0,0.0,0.0,0.0,0.0,0.0,0.0,0.0,0.0,0.0,0.0,0.0,0.0,0.0,0.0,0.0,0.0,0.0,0.0,0.0,0.0,0.0,0.0,0.0,-3.2687,-3.386,0.0,0.0,-3.7454,-3.8158,-3.9403,-4.0512,-4.1464,-4.2219,-4.3009,-4.429,-4.6098,-4.6151,-4.6783,-4.8099,-4.8117,-4.8503,-4.9258,-4.9258,-4.9539,-5.003,-4.9504,-4.9258,-4.924,-4.8731,-4.8495,-4.8468,-4.7327,-4.6109,-4.4933,-4.4483,-4.3799,-4.3079,-4.3079,-4.3079,-4.3079,-4.3033,-4.2789,-4.2306,-4.1314,-3.9915,-3.8585,-3.8513,-3.7974,-3.7439,-3.7698,-3.7577,-3.7508,-3.7998,-3.8136,-3.8178,-3.8322,-3.8368,-3.8322,-3.8241,-3.7723,-3.6888,-3.5591,-3.3859,-3.2527,-3.2273,-3.1962,-3.1756,-3.1756,-3.2191,-3.2508,-3.2508,-3.3385,-3.3823,-3.3351,-3.3086,-3.2735,-3.2266,-3.1593,-3.0565,-2.9094,-2.8993,-2.8197,-2.6387,-2.5592,-2.4729,-2.3746,-2.253,-2.1262,0.0,0.0,0.0,0.0,0.0,0.0,0.0,0.0,0.0,0.0,0.0,0.0,0.0,0.0,0.0,0.0,0.0,0.0,0.0,0.0,0.0,0.0,0.0,0.0,0.0,0.0,-3.3195,-3.5565,-3.6759,-3.8199,-4.0288,-4.0727,-4.1394,-4.2693,-4.3763,-4.4571,-4.5045,-4.5817,-4.6835,-4.8135,-4.8433,-4.895,-4.9732,-5.0022,-5.0312,-5.0629,-5.0629,-5.077,-5.1034,-5.0488,-5.0242,-5.0207,-4.9696,-4.9415,-4.9381,-4.9381,-4.8582,-4.7327,-4.6555,-4.5923,-4.5431,-4.5168,-4.508,-4.501,-4.4483,-4.4219,-4.3954,-4.3001,-4.1968,-4.1065,-4.0989,-4.0383,-3.9733,-3.9733,-3.9583,-3.9393,-3.9393,-3.9393,-3.9353,-3.9244,-3.9244,-3.9215,-3.9127,-3.8835,-3.844,-3.7916,-3.5818,-3.4044,-3.3812,-3.3558,-3.3406,-3.3406,-3.3609,-3.3778,-3.3778,-3.4404,-3.4675,-3.418,-3.3931,-3.3474,-3.2733,-3.2005,-3.0939,-2.9487,-2.9165,-2.8453,-2.7182,-2.6166,-2.5388,-2.488,-2.3427,-2.2429,-2.1935,0.0,0.0,0.0,0.0,0.0,0.0,0.0,0.0,0.0,0.0,0.0,0.0,0.0,0.0,0.0,0.0,0.0,0.0,0.0,0.0,0.0,0.0,0.0,-3.13,-3.3336,-3.5653,-3.7953,-3.9642,-4.1222,-4.2763,-4.3594,-4.4366,-4.5174,-4.6614,-4.7458,-4.7493,-4.8187,-4.896,-4.9758,-5.0566,-5.1376,-5.2233,-5.3019,-5.3119,-5.2529,-5.2529,-5.2121,-5.1334,-5.1334,-5.1316,-5.1298,-5.1298,-5.122,-5.1105,-5.1105,-5.0568,-4.9671,-4.8854,-4.8512,-4.8407,-4.7696,-4.7432,-4.7204,-4.5694,-4.5078,-4.4823,-4.403,-4.3617,-4.3447,-4.3447,-4.277,-4.205,-4.205,-4.1533,-4.0981,-4.0981,-4.0981,-4.0963,-4.0946,-4.0929,-4.0881,-4.0745,-4.0137,-3.9581,-3.944,-3.7381,-3.5453,-3.4714,-3.3964,-3.3474,-3.3474,-3.4083,0.0,-3.4523,-3.5165,-3.56,-3.56,-3.4945,-3.4201,-3.3474,-3.2733,-3.1707,-3.0309,-2.9544,-2.8796,-2.8032,-2.657,-2.5723,-2.5609,-2.4186,-2.3441,-2.3441,0.0,0.0,0.0,0.0,0.0,0.0,0.0,0.0,0.0,0.0,0.0,0.0,0.0,0.0,0.0,0.0,0.0,0.0,0.0,0.0,0.0,0.0,-3.3794,-3.374,-3.5723,-3.8041,-4.0358,-4.2097,-4.3731,-4.5258,-4.62,-4.7066,-4.7855,-4.8314,-4.8773,-4.9346,-5.0098,-5.0893,-5.1715,-5.2465,-5.296,-5.3209,-5.3439,-5.3466,-5.3299,-5.3299,-5.2918,-5.2174,-5.2174,-5.1856,-5.1298,-5.1298,-5.1272,-5.1246,-5.1246,-5.1078,-5.0761,-4.9741,-4.9012,-4.8477,-4.8267,-4.8205,-4.8064,-4.7099,-4.6723,-4.6575,-4.5663,-4.496,-4.4457,-4.4277,-4.364,-4.2985,-4.2904,-4.2723,-4.2568,-4.2568,-4.2568,-4.243,-4.1843,-4.1705,-4.1543,-4.0985,-4.0597,-4.0216,-3.9667,-3.8424,-3.724,-3.6441,-3.5587,-3.4991,-3.4991,-3.516,0.0,-3.5295,-3.5464,-3.56,-3.56,-3.5028,-3.4347,-3.3617,-3.2897,-3.1901,-3.0438,-3.0148,-2.9448,-2.8135,-2.7657,-2.6941,-2.585,-2.4895,-2.4371,0.0,0.0,0.0,0.0,0.0,0.0,0.0,0.0,0.0,0.0,0.0,0.0,0.0,0.0,0.0,0.0,0.0,0.0,0.0,0.0,0.0,0.0,-3.5136,-3.6955,-3.7214,-3.8355,-4.0042,-4.2445,-4.4152,-4.5629,-4.6883,-4.8052,-4.8951,-4.9429,-5.0085,-5.0651,-5.1076,-5.1829,-5.2467,-5.2954,-5.3688,-5.4123,-5.4205,-5.4542,-5.4569,-5.4286,-5.4286,-5.3878,-5.3114,-5.282,-5.2403,0.0,-5.1604,-5.1454,-5.1376,-5.1376,-5.135,0.0,0.0,0.0,0.0,0.0,-4.8802,-4.8425,-4.8012,-4.7871,-4.7705,-4.6858,-4.6265,-4.5778,-4.5289,-4.4796,-4.4322,-4.3867,-4.3756,-4.3662,-4.3301,-4.3189,-4.3086,-4.262,-4.2258,-4.1871,-4.1464,-4.1064,-4.0655,-4.0231,-3.9409,0.0,-3.7735,-3.6581,-3.5778,-3.5778,-3.5778,-3.5778,-3.5778,-3.5778,-3.5778,-3.5778,-3.5453,-3.4815,-3.372,-3.3287,0.0,0.0,0.0,-2.9915,-2.8699,-2.8613,0.0,0.0,0.0,-2.6666,-2.6583,0.0,0.0,0.0,-2.4804,-2.5009,0.0,0.0,0.0,0.0,0.0,0.0,0.0,0.0,0.0,0.0,0.0,0.0,0.0,0.0,0.0,0.0,-3.8098,-4.0367,-4.1109,-4.1273,-4.2118,-4.4289,-4.594,-4.7198,-4.8013,-4.9419,-5.033,-5.0419,-5.1749,-5.2582,-5.267,0.0,0.0,0.0,0.0,-5.5048,-5.5168,-5.5869,-5.5907,-5.5348,-5.5348,-5.492,-5.4108,-5.3457,-5.3072,-5.2858,-5.2136,-5.1704,-5.1531,-5.1531,-5.1454,-5.135,-5.1307,-5.122,-5.1017,-5.0189,-4.9433,-4.8766,-4.8679,0.0,0.0,-4.7766,-4.7444,-4.7202,-4.639,-4.6062,-4.576,-4.4894,-4.4661,-4.448,-4.3696,-4.3473,-4.3456,-4.337,-4.2775,-4.2223,-4.205,-4.1498,-4.0998,-4.0929,-4.0197,-3.937,-3.8683,-3.7197,-3.61,-3.6014,-3.5997,-3.5997,-3.5997,-3.5997,-3.5997,-3.5997,0.0,0.0,-3.398,-3.3775,-3.3166,-3.184,-3.0982,-3.0227,-2.9558,-2.9384,-2.9332,-2.9332,-2.9332,-2.9349,-2.9434,-2.952,-2.9605,-2.9639,-2.7843,-2.7399,0.0,0.0,0.0,0.0,0.0,0.0,0.0,0.0,0.0,0.0,0.0,0.0,0.0,0.0,0.0,-3.8727,-4.0963,-4.2907,-4.3754,-4.488,-4.5726,-4.6118,-4.766,-4.8993,-4.9739,-5.0781,-5.165,-5.2317,-5.2656,-5.3076,-5.3699,-5.4465,0.0,-5.4893,-5.5677,-5.6114,-5.6141,-5.6284,-5.6302,-5.6169,0.0,0.0,-5.4973,-5.483,-5.4081,-5.2893,-5.2751,-5.2279,-5.1665,-5.1665,-5.1658,-5.1589,-5.1384,-5.1298,-5.1255,-5.1069,-5.0823,-5.0506,-4.9837,-4.9573,-4.9328,-4.8556,-4.8267,-4.8075,-4.7219,-4.6966,0.0,-4.5821,-4.5544,-4.5526,-4.5344,-4.5208,-4.4992,-4.4377,-4.4042,-4.3517,-4.2275,-4.1895,-4.1619,-4.1015,-4.025,-3.9623,-3.9485,-3.8031,-3.6693,-3.61,-3.5997,-3.5997,-3.5997,-3.5997,-3.5997,-3.5997,-3.6101,-3.5766,-3.484,-3.4304,-3.364,-3.271,-3.1402,-3.0609,-3.0454,-2.9816,-2.9472,-2.9472,-2.9472,-2.973,-3.0278,-3.0878,-3.1422,-3.1912,-3.026,-2.9897,0.0,0.0,0.0,0.0,0.0,0.0,0.0,0.0,0.0,0.0,0.0,-3.5616,0.0,0.0,-4.0746,-4.1528,-4.3633,-4.529,-4.5749,-4.7112,-4.7879,-4.7441,-4.8858,-5.0004,-5.036,-5.1201,-5.2029,-5.284,-5.3242,-5.3796,-5.4554,-5.5366,-5.5794,-5.5794,-5.6186,-5.6401,-5.6401,-5.6401,-5.6401,-5.6401,-5.6401,-5.6186,-5.5794,-5.5384,-5.4777,-5.401,-5.325,-5.2679,-5.2261,-5.1869,-5.169,-5.169,-5.1538,-5.1479,-5.1402,-5.1307,-5.1246,-5.114,-5.0734,-5.0567,-5.0365,-4.9494,-4.9204,-4.9037,-4.8171,-4.7891,-4.7691,-4.675,-4.6498,-4.6385,-4.5925,-4.5744,-4.5606,-4.5249,-4.4766,-4.4188,-4.3427,-4.26,-4.1895,-4.1533,-4.0843,-4.0164,-3.9767,-3.8986,-3.8019,-3.6925,-3.641,-3.6152,-3.6152,-3.6152,-3.6152,-3.6152,-3.6212,-3.5924,-3.5167,-3.4125,-3.3354,-3.3014,-3.1925,-3.1339,-3.1392,-3.1011,-3.0958,-3.1304,-3.1286,-3.1629,-3.2295,-3.2672,-3.3014,-3.3336,-3.284,-3.2573,0.0,0.0,0.0,0.0,0.0,0.0,0.0,0.0,-3.5632,-3.7023,-3.8076,-3.9129,-4.0378,-4.1895,-4.3233,-4.4053,-4.5891,-4.7265,-4.7426,-4.8657,-4.9317,-4.8734,-4.9745,-5.0566,-5.0727,-5.1315,-5.2083,-5.3028,-5.3671,-5.4411,-5.5384,-5.6044,-5.6401,-5.6401,-5.6401,-5.6401,-5.6401,-5.6401,-5.6401,-5.6401,-5.6401,-5.6401,-5.6383,-5.574,-5.5348,-5.5116,-5.3564,-5.2911,-5.284,-5.2029,-5.169,-5.169,-5.169,-5.1615,-5.1531,-5.1428,-5.1376,-5.135,-5.135,-5.1324,-5.1192,-5.0426,-5.0188,-5.0003,-4.9159,-4.8879,-4.8669,-4.7759,-4.7481,-4.7254,-4.6341,-4.6098,-4.6038,-4.5898,-4.5275,-4.4696,-4.4582,-4.3477,-4.2452,-4.2141,-4.1605,-4.0948,-4.013,-3.9871,-3.9266,-3.7737,-3.696,-3.6494,-3.6356,-3.6343,-3.636,-3.6364,-3.6381,-3.607,-3.531,-3.4118,-3.3379,-3.3353,-3.2746,-3.2435,-3.2543,-3.2543,-3.2803,-3.3335,-3.3353,-3.3696,-3.438,-3.438,-3.4429,-3.4582,-3.505,-3.4844,-3.0358,-3.0667,0.0,-3.3074,-3.4066,-3.5097,0.0,0.0,-3.9504,-4.0396,-4.1787,-4.2894,-4.3069,-4.4375,-4.5677,-4.648,-4.7431,-4.8282,-4.8936,-4.9817,-5.0352,-5.0245,-5.0388,-5.078,-5.1494,-5.1637,-5.2315,-5.3752,-5.3948,-5.4643,-5.6186,-5.6347,-5.6401,-5.6401,-5.6401,-5.6401,-5.6401,-5.6401,-5.6401,-5.6401,-5.6401,-5.6401,-5.6401,-5.6311,-5.5883,-5.5116,-5.3564,-5.2911,-5.284,-5.2029,-5.169,-5.169,-5.169,-5.169,-5.1665,-5.1665,-5.1582,-5.1479,-5.1479,-5.1402,-5.1281,-5.1192,-5.1131,-5.0989,-5.0175,-4.9843,-4.9599,-4.8823,-4.8492,-4.8197,-4.7417,-4.713,-4.6854,-4.6147,-4.5802,-4.5482,-4.4811,-4.4533,-4.3986,-4.2606,-4.2276,-4.1963,-4.1163,-4.0508,-3.9485,-3.7759,-3.7426,-3.7154,-3.6551,-3.6482,-3.6523,-3.6643,-3.6661,-3.6331,-3.5531,-3.5305,-3.4942,-3.43,-3.4178,-3.4126,-3.4145,-3.4145,-3.4178,-3.4265,-3.4265,-3.4612,-3.534,-3.534,-3.5665,-3.6222,-3.6309,-3.5804,-3.3678,0.0,0.0,0.0,-3.7683,-3.8468,-4.0556,-4.1538,-4.2195,-4.2983,-4.4053,-4.4839,-4.4839,-4.5749,-4.6628,0.0,-4.8148,-4.9084,-4.9494,-5.0623,-5.1412,-5.1412,-5.1357,-5.1408,-5.168,-5.169,-5.235,-5.3876,-5.4001,-5.4679,-5.6311,-5.6465,-5.6519,-5.6519,-5.66,-5.6626,-5.6626,-5.6626,-5.6626,-5.6626,-5.6626,-5.6626,-5.6626,-5.6626,-5.6178,-5.539,-5.4753,-5.4233,-5.3767,-5.296,-5.2637,-5.2584,-5.2135,-5.1914,-5.1914,-5.1765,-5.1665,-5.1632,-5.1632,-5.1564,-5.1513,-5.1454,-5.1428,-5.1331,-5.0917,-5.0759,-5.0548,-4.9796,-4.9498,-4.9245,-4.8428,-4.7849,-4.7335,-4.6901,-4.6355,-4.5835,-4.5503,-4.506,-4.4366,-4.3262,-4.2688,-4.2131,-4.1348,-4.0948,-4.0351,-3.9202,-3.8244,-3.7415,-3.6727,-3.6623,-3.6643,-3.6702,-3.6702,-3.6563,-3.6232,-3.5779,-3.5399,-3.518,-3.4727,-3.4484,-3.4576,-3.4576,-3.4749,-3.5145,-3.5163,-3.549,-3.6197,-3.6197,-3.6351,-3.6623,-3.6523,-3.6271,-3.6346,0.0,0.0,-4.0039,-4.0735,-4.1466,-4.3703,-4.4185,-4.44,-4.5193,-4.5801,-4.6212,-4.6212,-4.6677,-4.7187,-4.751,-4.8519,-4.9421,-4.9939,-5.1023,-5.185,-5.2066,-5.2029,-5.1932,-5.1815,-5.1783,-5.2401,-5.3973,-5.4106,-5.4811,-5.6402,-5.66,-5.6653,-5.6653,-5.6742,-5.6794,-5.6794,-5.6794,-5.6794,-5.6794,-5.6794,-5.6794,-5.6794,-5.6794,-5.6471,-5.5913,-5.5698,-5.5302,-5.4727,-5.3954,-5.3612,-5.354,-5.2749,-5.2426,-5.2365,-5.1979,-5.1815,-5.1815,-5.1783,-5.1758,-5.1715,-5.1607,-5.1556,-5.1531,-5.1436,-5.1384,-5.1226,-5.0667,-5.0464,-5.0236,-4.9374,-4.8572,-4.7869,-4.7575,-4.6808,-4.6172,-4.6122,-4.5618,-4.4932,-4.4091,-4.3323,-4.2562,-4.1771,-4.1457,-4.1056,-4.0328,-3.9114,-3.7996,-3.7164,-3.6905,-3.6786,-3.6786,-3.6786,-3.6786,-3.6806,-3.6284,-3.5992,-3.6124,-3.5599,-3.5321,-3.5413,-3.5413,-3.5621,-3.6087,-3.6104,-3.6326,-3.6786,-3.6786,-3.6766,-3.6725,-3.6626,-3.6564,0.0,0.0,-4.018,-4.1805,-4.2804,-4.3843,-4.5545,-4.5925,-4.6161,-4.7042,-4.7244,-4.7244,-4.7244,-4.7262,-4.7549,-4.8322,-4.8506,-4.9081,-5.0646,-5.0897,-5.1221,-5.2012,-5.2102,-5.2102,0.0,-5.198,-5.2545,-5.4164,-5.4363,-5.5079,-5.6704,-5.6794,-5.6794,-5.6794,-5.6794,-5.6794,-5.6794,-5.6794,-5.6794,-5.6794,-5.6794,-5.6794,-5.6794,-5.6794,-5.6776,-5.6722,-5.5931,-5.559,-5.5518,-5.4763,-5.4464,-5.4367,-5.3576,-5.3253,-5.3163,-5.239,-5.2102,-5.2078,-5.1932,-5.1882,-5.1858,-5.1758,-5.169,-5.169,-5.169,-5.1607,-5.1479,-5.1444,-5.1367,-5.1068,-5.0279,-4.9457,-4.8696,-4.7946,-4.7174,-4.6542,-4.6423,-4.6363,-4.6086,-4.5227,-4.4413,-4.3623,-4.288,-4.2091,-4.1341,-4.0586,-3.9901,-3.9089,-3.8093,-3.7384,-3.6987,-3.6987,-3.6987,-3.7009,-3.7089,-3.7071,-3.711,-3.7242,-3.7225,-3.7207,-3.7207,-3.7226,-3.7169,-3.7073,-3.7073,-3.7032,-3.6987,-3.6987,-3.6911,-3.6809,-3.6788,-3.6687,-4.0334,0.0,-4.2268,-4.5003,-4.5882,-4.6348,-4.7415,-4.7649,-4.7455,-4.6726,-4.6564,-4.6403,-4.5881,-4.5773,-4.6046,-4.6902,-4.7501,-4.8243,-4.9414,-5.0502,-5.1261,-5.155,-5.1945,0.0,0.0,0.0,0.0,-5.4317,-5.4414,-5.5104,-5.6704,-5.6873,-5.6925,-5.6925,-5.7028,-5.7079,-5.7079,-5.7079,-5.7079,-5.7079,-5.7079,-5.7079,-5.7079,-5.7079,-5.7079,-5.7061,-5.679,-5.6664,-5.661,-5.5815,-5.5489,-5.5417,-5.4658,-5.4369,-5.4333,-5.4062,-5.3972,-5.3833,-5.3097,-5.2478,-5.2101,-5.2615,-5.2337,-5.1833,-5.1833,-5.1733,-5.1615,-5.1615,-5.1589,-5.1485,-5.1116,-5.0062,-4.9015,-4.8632,-4.7528,-4.659,-4.6542,-4.6525,-4.6289,-4.5517,-4.4723,-4.3905,-4.3111,-4.2353,-4.1615,-4.0821,-3.9561,-3.843,-3.7637,-3.7341,-3.7201,-3.7201,-3.7201,-3.722,-3.7222,-3.7222,-3.7259,-3.7297,-3.7297,-3.7297,-3.7297,-3.7297,-3.7278,-3.7222,-3.7222,-3.7184,-3.7069,-3.7069,-3.7029,-3.6928,-3.6849,-3.6751,-4.2097,-4.3373,-4.4758,-4.687,-4.7589,-4.7935,-4.8443,-4.8141,-4.7439,-4.6491,-4.5846,-4.5287,-4.4782,-4.4692,-4.4856,-4.5423,-4.6437,-4.7452,-4.8348,-4.9854,-5.0977,-5.1267,-5.194,0.0,0.0,0.0,0.0,-5.4485,-5.4582,-5.5274,-5.6861,-5.701,-5.7061,-5.7061,-5.7156,-5.7188,-5.7188,-5.7188,-5.7188,-5.7188,-5.7188,-5.7188,-5.7188,-5.7188,-5.7188,-5.7188,-5.7188,-5.7188,-5.7152,-5.6627,-5.6428,-5.6337,-5.5595,-5.5287,-5.5269,-5.5015,-5.4907,-5.481,-5.4048,-5.3452,-5.311,-5.3583,-5.3131,-5.2411,-5.2411,-5.2122,-5.184,-5.184,-5.1815,-5.1758,-5.1658,-5.045,-4.9208,-4.9057,-4.7867,-4.6731,-4.6684,-4.6661,-4.6519,-4.5994,-4.5262,-4.4483,-4.3669,-4.2695,-4.174,-4.0988,-3.9722,-3.8567,-3.7828,-3.7474,-3.7297,-3.7297,-3.7297,-3.7316,-3.7334,-3.7334,-3.7353,-3.741,-3.741,-3.741,-3.741,-3.741,-3.7391,-3.7334,-3.7334,-3.7279,-3.7166,-3.7127,-3.7069,-3.7029,-3.6911,-3.6849,-4.2811,-4.5075,-4.7449,-4.7557,-4.8097,-4.8605,-4.8698,-4.7475,-4.6326,-4.6321,-4.5037,-4.3896,0.0,0.0,-4.3878,-4.3951,-4.5291,-4.6631,-4.7518,-4.9021,-5.0347,0.0,0.0,0.0,0.0,0.0,0.0,-5.4724,0.0,-5.5613,-5.7116,-5.7188,-5.7188,-5.7213,-5.7213,-5.7213,-5.7213,-5.7213,-5.7213,-5.7213,-5.7213,-5.7213,-5.7213,-5.7213,-5.7213,-5.7213,-5.7213,-5.7213,-5.7213,-5.7213,-5.7213,-5.7141,-5.638,-5.6072,-5.6,-5.5311,-5.5039,-5.5015,-5.4875,-5.4772,-5.4693,-5.4604,-5.3997,-5.3313,-5.3313,-5.2756,-5.2102,-5.2102,-5.2005,-5.1907,-5.1907,-5.0646,-4.9371,-4.9335,-4.8181,-4.7033,-4.6865,-4.6842,-4.6778,-4.6661,-4.6017,-4.5237,-4.4417,-4.3018,-4.1803,-4.1179,-4.0344,-3.9487,-3.8628,-3.7811,-3.7316,-3.7316,-3.7316,-3.7334,-3.7411,-3.7411,-3.7466,-3.7577,-3.7595,-3.7595,-3.7595,-3.7595,-3.754,-3.7411,-3.7411,-3.7373,-3.7297,-3.7184,-3.711,-3.7108,-3.7048,-3.6948,-4.5596,-4.684,-4.7926,-4.9838,-5.0005,-4.9553,-4.8974,-4.7603,-4.5938,-4.4186,-4.2538,-4.1252,0.0,0.0,0.0,-4.2121,-4.3154,0.0,-4.6522,-4.8188,0.0,-5.0311,0.0,-5.2733,-5.3331,-5.3585,0.0,0.0,-5.5679,-5.6138,-5.7152,-5.7188,-5.7257,-5.7356,-5.7356,-5.7406,-5.7504,-5.7504,-5.7504,-5.7504,-5.7504,-5.7504,-5.7504,-5.7504,-5.7504,-5.7504,-5.7504,-5.7504,-5.7504,-5.7504,-5.7504,-5.7486,-5.7267,-5.7195,-5.7158,-5.6976,-5.6903,-5.6879,-5.6757,-5.5897,-5.493,-5.5449,-5.4634,-5.346,-5.346,-5.2828,-5.2102,-5.2102,-5.2078,-5.2054,-5.2054,-5.1275,-5.0336,-4.9744,-4.8847,-4.7927,-4.7313,-4.7169,-4.7147,-4.7125,-4.605,-4.4886,-4.408,-4.3092,-4.2396,-4.2219,-4.1,-3.9779,-3.884,-3.802,-3.7503,-3.7503,-3.7503,-3.7539,-3.754,-3.754,-3.7558,-3.7595,-3.7595,-3.7595,-3.7595,-3.7595,-3.7577,-3.754,-3.754,-3.7485,-3.7373,-3.7354,-3.7298,-3.7259,-3.7145,-3.705,-4.7087,-4.8356,-4.9426,-5.0506,-5.0438,-4.9782,-4.8641,-4.6866,-4.4856,-4.281,-4.0564,0.0,0.0,0.0,0.0,0.0,0.0,0.0,-4.5243,-4.7241,-4.8932,0.0,-5.1332,0.0,-5.3712,-5.4148,-5.4856,0.0,-5.6116,-5.6436,-5.7252,-5.7338,-5.7412,-5.7504,-5.7504,-5.751,-5.7601,-5.7601,-5.7601,-5.7601,-5.7601,-5.7601,-5.7601,-5.7601,-5.7601,-5.7601,0.0,-5.7601,-5.7601,-5.7601,-5.7601,-5.7601,-5.7601,-5.7601,-5.7601,-5.7601,-5.7601,-5.7601,-5.751,-5.6873,-5.6122,-5.6441,-5.5661,-5.4538,-5.4213,-5.3514,-5.272,-5.2359,-5.2222,-5.2174,-5.2174,-5.1556,-5.07,-4.9891,-4.9099,-4.829,-4.7481,-4.7302,-4.7302,-4.7302,-4.6061,-4.4857,-4.4407,-4.3382,-4.2609,-4.2609,-4.1224,-4.0,-3.9476,-3.8437,-3.7721,-3.7721,-3.7721,-3.7721,-3.7721,-3.7721,-3.7721,-3.7721,-3.7721,-3.7721,-3.7721,-3.7667,-3.7649,-3.7649,-3.7613,-3.7558,-3.7485,-3.7429,-3.7373,-3.7336,-3.7241,-3.7184,-4.8013,-4.9662,-5.1189,-5.0482,-5.0156,-4.9517,-4.7814,-4.5475,-4.3174,-4.1452,0.0,-3.652,-3.6411,0.0,-3.6014,-3.75,0.0,-4.2032,-4.376,-4.6128,-4.8318,-5.0031,-5.1055,-5.2258,-5.3972,-5.4793,-5.5577,-5.6494,-5.6472,-5.6709,-5.7376,-5.7553,-5.7601,-5.7625,-5.7649,-5.7649,-5.7649,-5.7649,-5.7649,-5.7649,-5.7649,-5.7649,-5.7649,-5.7649,-5.7649,-5.7649,0.0,0.0,-5.7649,-5.7649,-5.7649,-5.7649,-5.7649,-5.7649,-5.7649,-5.7649,-5.7649,-5.7649,-5.7625,-5.7625,-5.7601,-5.7338,-5.6695,-5.5915,-5.5281,-5.4465,-5.3595,-5.2889,-5.2524,-5.234,-5.234,-5.1723,-5.0908,-5.0099,-4.9289,-4.8497,-4.7687,-4.7435,-4.7363,-4.7363,-4.6194,-4.5168,-4.506,-4.3782,-4.2757,-4.2667,-4.1281,-4.0237,-4.0237,-3.887,-3.7899,-3.7899,-3.7899,-3.7899,-3.7899,-3.7899,-3.7899,-3.7899,-3.7899,-3.7899,-3.7899,-3.7793,-3.7739,-3.7739,-3.7649,-3.7613,-3.7613,-3.7485,-3.7429,-3.7411,-3.7353,-3.7316,-4.9567,-5.0717,-5.1501,-5.1355,-5.0335,-4.8769,-4.6473,-4.3579,0.0,0.0,0.0,-3.4,-3.3312,-3.3621,0.0,-3.5238,0.0,0.0,0.0,0.0,-4.686,0.0,0.0,0.0,0.0,0.0,0.0,0.0,0.0,0.0,-5.7559,-5.7601,-5.7649,-5.7768,-5.7862,-5.7927,-5.7927,-5.7927,-5.7927,-5.7927,-5.7927,-5.7927,-5.7927,-5.7927,-5.7927,-5.7927,-5.7927,0.0,-5.7927,-5.7927,-5.7927,-5.7927,-5.7927,-5.7927,-5.7927,-5.7927,-5.7927,-5.7909,-5.7792,-5.7768,-5.7745,-5.7577,-5.7006,-5.6314,-5.6186,-5.5111,-5.3927,-5.3781,-5.3163,-5.254,-5.254,-5.2376,-5.2036,-5.1221,-5.0407,-4.9611,-4.8811,-4.8106,-4.7636,-4.7636,-4.6876,-4.6026,-4.5357,-4.4453,-4.3603,-4.2953,-4.1487,-4.0456,-4.0456,-3.8959,-3.7899,-3.7899,-3.7899,-3.7899,-3.7899,-3.7899,-3.7899,-3.7899,-3.7899,-3.7899,-3.7899,-3.7881,-3.7864,-3.7864,-3.7739,-3.7685,-3.7685,-3.7595,-3.7576,-3.7558,-3.7448,-3.7392,-4.9448,-5.0362,-5.0891,-5.0472,-4.9469,-4.7935,-4.5529,0.0,0.0,0.0,-3.432,-3.2238,-3.1841,0.0,0.0,0.0,0.0,0.0,0.0,0.0,0.0,0.0,0.0,0.0,0.0,0.0,0.0,0.0,0.0,0.0,-5.7721,-5.7768,-5.7857,-5.7886,-5.8042,-5.8088,-5.8088,-5.8174,-5.8197,-5.8197,-5.8197,-5.8197,-5.8197,-5.8197,-5.8197,-5.8197,-5.8197,0.0,-5.8197,-5.8197,-5.8197,-5.8197,-5.8197,-5.8197,-5.8197,-5.8197,-5.8174,-5.8088,-5.802,-5.7973,-5.7886,-5.7815,-5.7447,-5.6945,-5.6531,-5.5559,-5.4538,-5.4118,-5.3362,-5.2698,-5.2698,-5.2672,-5.2445,-5.1667,-5.05,-4.9519,-4.9138,-4.8411,-4.7847,-4.7847,-4.7211,-4.6394,-4.5576,-4.4795,-4.3977,-4.3196,-4.2032,-4.1124,-4.0706,-3.9565,-3.8609,-3.8109,-3.8073,-3.8073,-3.8073,-3.8073,-3.8073,-3.8073,-3.8073,-3.8073,-3.8073,-3.7985,-3.7933,-3.7933,-3.7845,-3.7792,-3.7792,-3.7775,-3.7721,-3.7649,-3.8024,-3.8146,-4.8782,-4.9604,-5.0024,-4.9202,-4.8271,-4.6864,-4.4273,-4.1681,0.0,0.0,-3.2849,-3.069,-3.0507,0.0,0.0,0.0,0.0,0.0,0.0,0.0,0.0,0.0,0.0,0.0,0.0,0.0,0.0,0.0,0.0,0.0,-5.7886,-5.8185,-5.8345,-5.8345,-5.8455,-5.85,-5.85,-5.8423,-5.8393,-5.8393,-5.8393,-5.8393,-5.8393,-5.8393,-5.8393,-5.8393,-5.8393,0.0,0.0,-5.8393,-5.8393,-5.8393,-5.8393,-5.8393,-5.8393,-5.8393,-5.8327,-5.8242,-5.8242,-5.8174,-5.8106,-5.8106,-5.7886,-5.7587,-5.693,-5.6071,-5.5135,-5.4519,-5.362,-5.2828,-5.2828,-5.2806,-5.2605,-5.1784,-5.0508,-4.9414,-4.925,-4.8575,-4.7992,-4.7992,-4.7481,-4.6752,-4.5767,-4.5074,-4.4327,-4.336,-4.2522,-4.1774,-4.1154,-4.0206,-3.9317,-3.8584,-3.835,-3.8241,-3.8241,-3.8241,-3.8241,-3.8241,-3.8241,-3.8241,-3.8241,-3.8139,-3.8052,-3.8052,-3.7968,-3.7916,-3.7916,-3.7899,-3.7935,-3.8026,-3.8653,-3.8992,-4.8157,-4.9021,-4.9461,-4.8598,-4.7222,-4.526,-4.2124,0.0,0.0,-3.345,-3.0925,-2.8982,-2.8253,-2.859,0.0,0.0,0.0,0.0,0.0,0.0,0.0,0.0,0.0,0.0,0.0,0.0,0.0,0.0,0.0,0.0,0.0,-5.8987,-5.946,-5.946,-5.946,-5.9483,-5.9483,-5.8762,-5.8393,-5.8393,-5.8393,-5.8393,-5.8393,-5.8393,-5.8393,-5.8393,-5.8393,0.0,0.0,-5.8393,-5.8393,-5.8393,-5.8393,-5.8393,-5.8393,-5.8393,-5.8393,-5.8371,-5.8371,-5.8371,-5.8371,-5.8371,-5.8174,-5.7955,-5.7882,-5.6781,-5.5552,-5.546,-5.4276,-5.2977,-5.2977,-5.2893,-5.2605,-5.1784,-5.0927,-5.0086,-4.9359,-4.8575,-4.7992,-4.7992,-4.7937,-4.739,-4.5858,-4.553,-4.4965,-4.3433,-4.2522,-4.1956,-4.1902,-4.0552,-3.9568,-3.9478,-3.8822,-3.8366,-3.8366,-3.8366,-3.8366,-3.8366,-3.8366,-3.8366,-3.8366,-3.8305,-3.8274,-3.8274,-3.8087,-3.7984,-3.7984,-3.7916,-3.8259,-3.8959,-3.9049,-3.9408,-4.6101,-4.6911,-4.7353,-4.6524,-4.5403,-4.3805,-4.1066,0.0,0.0,-3.2485,-2.9953,-2.8026,-2.7236,-2.7379,-2.7934,0.0,0.0,0.0,0.0,0.0,0.0,0.0,0.0,0.0,0.0,0.0,0.0,0.0,0.0,0.0,0.0,-5.9172,-5.9593,-5.9593,-5.9679,-5.9723,-5.9723,-5.8955,-5.8612,-5.8693,-5.8693,-5.8716,-5.8762,-5.8762,-5.8762,-5.876,-5.8716,0.0,0.0,-5.8612,-5.8569,-5.8569,-5.8569,-5.8569,-5.8569,-5.8569,-5.8526,-5.8465,-5.8465,-5.844,-5.8393,-5.8393,-5.8327,-5.815,-5.7612,-5.6672,-5.5678,-5.518,-5.4202,-5.3297,-5.3297,-5.3256,-5.3141,-5.2831,-5.2112,-5.1322,-5.0513,-4.9706,-4.8989,-4.8456,-4.8364,-4.7996,-4.6893,-4.6287,-4.5571,-4.4397,-4.3499,-4.2767,-4.2239,-4.1617,-4.0848,-3.9877,-3.8956,-3.8399,-3.8399,-3.8399,-3.8399,-3.8399,-3.8399,-3.8399,-3.8399,-3.8385,-3.8352,-3.8352,-3.8269,-3.8221,-3.8189,-3.8628,-3.8974,-3.9175,-4.0148,-4.0687,-4.3679,-4.4491,-4.497,-4.4398,-4.3424,-4.1938,0.0,0.0,-3.4407,-3.1372,-2.9,-2.7235,-2.6415,-2.6512,-2.7077,-2.8209,0.0,-3.3222,0.0,0.0,0.0,0.0,0.0,0.0,0.0,0.0,0.0,0.0,0.0,0.0,0.0,-5.9375,-5.9773,-5.9748,-5.9857,-5.9921,-5.9921,-5.9169,-5.8821,-5.8921,-5.8921,-5.8942,-5.9004,-5.9004,-5.9004,-5.9003,0.0,0.0,0.0,-5.8821,-5.8801,-5.8801,-5.8801,-5.8801,-5.8801,-5.8801,-5.8719,-5.8635,-5.8638,-5.8593,-5.8545,-5.8569,-5.8424,-5.805,-5.7216,-5.6446,-5.5731,-5.4937,-5.4127,-5.3499,-5.3499,-5.3499,-5.3499,-5.3499,-5.289,-5.2077,-5.1265,-5.0471,-4.964,-4.8771,-4.8605,-4.8347,-4.7534,-4.6722,-4.591,-4.5067,-4.4202,-4.3431,-4.2811,-4.2535,-4.1946,-4.0822,-3.9848,-3.9072,-3.8564,-3.8544,-3.8559,-3.8559,-3.8525,-3.8528,-3.8528,-3.8462,-3.843,-3.843,-3.8415,-3.8385,-3.8322,-3.914,-3.9581,-3.9696,-4.1071,-4.172,-4.1114,-4.1942,-4.2551,-4.2532,-4.1317,-3.949,0.0,0.0,-3.2139,-2.9721,-2.7875,-2.6482,-2.566,-2.6158,-2.6703,-2.6722,-2.9474,0.0,0.0,0.0,0.0,0.0,0.0,0.0,0.0,0.0,0.0,0.0,0.0,0.0,0.0,-5.9769,-6.0157,-6.0089,-6.0175,-6.0198,-6.0198,-5.9395,-5.8984,-5.8984,-5.8984,-5.9004,-5.9004,-5.9004,-5.9004,0.0,0.0,0.0,0.0,-5.8984,-5.8984,-5.8984,-5.8984,-5.8984,-5.8984,-5.8984,-5.8942,-5.8899,-5.8964,-5.8942,-5.8899,-5.8964,-5.8461,-5.7658,-5.6855,-5.6284,-5.5731,-5.4937,-5.4127,-5.3499,-5.3499,-5.3499,-5.3499,-5.3499,-5.289,-5.2077,-5.1265,-5.0471,-4.964,-4.8771,-4.8605,-4.8347,-4.7534,-4.6722,-4.5928,-4.5115,-4.4321,-4.3804,-4.3804,-4.31,-4.2583,-4.2564,-4.1844,-4.0668,-3.8936,-3.8866,-3.8892,-3.8892,-3.8837,-3.8807,-3.8807,-3.8603,-3.851,-3.851,-3.843,-3.8399,-3.8399,-3.9203,-4.0024,-4.0809,-4.1541,-4.2213,-3.809,-3.9128,-4.0036,-3.948,-3.853,-3.7211,-3.5301,0.0,-3.129,-2.889,-2.7487,-2.6445,-2.5641,-2.6188,-2.7142,-2.8299,-3.0313,0.0,0.0,0.0,0.0,0.0,0.0,0.0,0.0,0.0,0.0,0.0,0.0,0.0,0.0,-5.9324,-5.9735,-6.0233,-6.0216,-6.0217,-6.0255,-5.9434,-5.9042,-5.9139,-5.9139,-5.9158,-5.9215,-5.9215,0.0,0.0,0.0,0.0,0.0,-5.9042,-5.9004,-5.9004,-5.9004,-5.9004,-5.9004,-5.9004,-5.8983,-5.8964,-5.8984,-5.8983,-5.8889,-5.8349,-5.8013,-5.7546,-5.6145,-5.5584,-5.5223,-5.4348,-5.3902,-5.3716,-5.3716,-5.3716,-5.3716,-5.3716,-5.3512,-5.3105,-5.2307,-5.1491,-5.0675,-4.9912,-4.9317,-4.8887,-4.8677,-4.7967,-4.7099,-4.6168,-4.5335,-4.4564,-4.3894,-4.3582,-4.3227,-4.2733,-4.2483,-4.1637,-3.9837,-3.9708,-3.9483,-3.8929,-3.8881,-3.8881,-3.8881,-3.8803,-3.8773,-3.8773,-3.8713,-3.8655,-3.8611,-3.9865,-4.1151,-4.2467,-4.2686,-4.2905,0.0,-3.6259,-3.7132,-3.663,-3.5868,0.0,0.0,0.0,-3.0539,-2.8085,-2.7392,-2.6893,-2.5782,-2.6515,-2.7749,-2.9105,-3.1005,0.0,0.0,0.0,0.0,0.0,0.0,0.0,0.0,0.0,0.0,0.0,0.0,0.0,0.0,0.0,-5.9572,-6.0022,-5.9926,-5.9869,-5.9906,-5.9382,-5.9158,-5.9234,-5.9234,-5.9253,-5.929,-5.929,0.0,0.0,0.0,0.0,0.0,-5.9234,-5.9177,-5.9177,-5.9177,-5.9158,-5.9101,-5.9101,-5.9101,-5.9081,-5.9101,-5.9101,-5.895,-5.8165,-5.7473,-5.6706,-5.5323,-5.4857,-5.4671,-5.4075,-5.3907,-5.3907,-5.3907,-5.3907,-5.3907,-5.3907,-5.3907,-5.3684,-5.2883,-5.2064,-5.1245,-5.0496,-4.9693,-4.915,-4.9197,-4.8522,-4.7799,-4.7164,-4.6089,-4.5146,-4.4514,-4.4183,-4.3806,-4.3348,-4.3338,-4.2783,-4.1319,-4.0636,-4.0065,-3.9565,-3.9174,-3.8979,-3.8979,-3.8921,-3.891,-3.891,-3.8866,-3.8969,-3.9222,-4.0742,-4.2092,-4.3304,-4.3286,-4.3251,0.0,-3.3243,0.0,0.0,0.0,0.0,0.0,0.0,0.0,-2.7474,-2.7585,-2.766,-2.6163,-2.7139,-2.8516,-2.9507,-3.1651,0.0,0.0,0.0,0.0,0.0,0.0,0.0,0.0,0.0,0.0,0.0,0.0,0.0,0.0,0.0,-5.9616,-5.9616,-5.9419,-5.9309,-5.9309,-5.9309,-5.9309,-5.9309,-5.9309,-5.9309,-5.9309,-5.9309,0.0,0.0,0.0,0.0,0.0,-5.9511,-5.9511,-5.9511,-5.9511,-5.9438,-5.9309,-5.9309,-5.9272,-5.9234,-5.929,-5.9272,-5.9103,-5.8296,-5.6905,-5.5385,-5.4567,-5.4235,-5.4109,-5.4109,-5.4109,-5.4109,-5.4109,-5.4109,-5.4109,-5.4109,-5.4109,-5.3903,-5.3156,-5.2298,-5.1457,-5.0652,-4.9849,-4.927,-4.923,-4.8595,-4.8071,-4.8015,-4.6673,-4.5645,-4.5518,-4.486,-4.4375,-4.43,-4.43,-4.3978,-4.3174,-4.1665,-4.0736,-4.068,-3.9755,-3.9208,-3.9208,-3.9044,-3.8921,-3.8921,-3.898,-3.9409,-4.0277,-4.1712,-4.2791,-4.3515,-4.3446,-4.3358,-2.8054,0.0,-3.152,-3.152,-3.1382,-3.1195,0.0,0.0,0.0,0.0,0.0,0.0,0.0,-2.8492,-2.9864,0.0,0.0,0.0,0.0,0.0,0.0,0.0,0.0,0.0,0.0,0.0,0.0,0.0,0.0,0.0,0.0,0.0,-5.9616,-5.9616,-5.9544,-5.9526,-5.9526,-5.9526,-5.9526,-5.9526,-5.9526,-5.9526,-5.9526,-5.9526,0.0,0.0,0.0,0.0,-5.9581,-5.9581,-5.9581,-5.9581,-5.9581,-5.9563,-5.9526,-5.9526,-5.9509,-5.951,-5.9526,-5.9509,-5.9265,-5.7812,-5.6229,-5.4853,-5.4667,-5.4445,-5.4218,-5.4127,-5.4109,-5.4109,-5.4109,-5.4109,-5.4109,-5.4109,-5.4109,-5.4053,-5.3866,-5.3175,-5.237,-5.1617,-5.0829,-5.0078,-4.954,-4.9259,-4.8887,-4.8184,-4.7738,-4.6996,-4.5682,-4.5331,-4.5006,-4.4443,-4.4368,-4.4308,-4.4158,-4.3105,-4.217,-4.1553,-4.0709,-4.0247,-4.0247,-3.9629,-3.9234,-3.9129,-3.9614,-4.0596,-4.201,-4.2382,-4.2959,-4.3738,-4.3721,-4.3704,-2.5826,-2.7437,-2.9099,-2.951,-2.9603,-2.9706,-3.0068,0.0,0.0,0.0,0.0,0.0,0.0,0.0,0.0,0.0,0.0,0.0,0.0,0.0,0.0,0.0,0.0,0.0,0.0,0.0,0.0,0.0,0.0,0.0,0.0,0.0,-5.9734,-5.9784,-5.9784,-5.9717,-5.9616,-5.9616,-5.9616,-5.9616,-5.9616,-5.9616,-5.9616,-5.9616,-5.9616,0.0,0.0,0.0,-5.9686,-5.9686,-5.9686,-5.9686,-5.9686,-5.965,-5.9616,-5.9616,-5.9616,-5.9616,-5.9616,-5.9106,-5.8238,-5.6956,-5.571,-5.4708,-5.4708,-5.4611,-5.4478,-5.439,-5.4373,-5.4373,-5.4373,-5.4373,-5.4373,-5.4373,-5.4373,-5.4373,-5.4373,-5.3716,-5.2907,-5.2132,-5.1321,-5.0491,-4.9728,-4.9578,-4.9427,-4.8912,-4.8484,-4.7905,-4.6941,-4.619,-4.5566,-4.519,-4.4777,-4.4551,-4.4592,-4.4091,-4.3403,-4.2543,-4.1678,-4.1202,-4.1202,-4.0745,-4.0475,-4.0383,-4.1091,-4.1876,-4.2736,-4.3048,-4.3426,-4.3853,-4.382,-4.3804,-2.47,-2.5749,-2.7054,-2.7914,-2.8325,-2.868,-2.9353,0.0,0.0,0.0,0.0,0.0,0.0,0.0,0.0,0.0,0.0,0.0,0.0,0.0,0.0,0.0,0.0,0.0,0.0,0.0,0.0,0.0,0.0,0.0,0.0,0.0,0.0,-5.982,-5.9706,-5.952,-5.9288,-5.9534,-5.9666,-5.9666,-5.9666,-5.9666,-5.9666,-5.9666,-5.9666,0.0,0.0,0.0,-5.9841,-5.9841,-5.9841,-5.9841,-5.9824,-5.9755,-5.9649,-5.965,-5.965,-5.9631,-5.9499,-5.8442,-5.7008,-5.6196,-5.54,-5.472,-5.472,-5.472,-5.472,-5.472,-5.4723,-5.4708,-5.4708,-5.4708,-5.4708,-5.4708,-5.4708,-5.4708,-5.4708,-5.4107,-5.3314,-5.239,-5.1598,-5.0801,-4.9862,-4.9692,-4.9692,-4.9692,-4.907,-4.856,-4.8428,-4.7202,-4.6259,-4.6032,-4.5334,-4.4844,-4.4712,-4.4712,-4.4357,-4.356,-4.2648,-4.205,-4.1924,-4.1851,-4.188,-4.2011,-4.2617,-4.2984,-4.3114,-4.367,-4.3963,-4.3929,-4.3902,-4.3853,-2.47,-2.5413,-2.6343,-2.7169,-2.8444,-2.9495,-2.956,0.0,0.0,0.0,0.0,0.0,0.0,0.0,0.0,0.0,0.0,0.0,0.0,0.0,0.0,0.0,0.0,0.0,0.0,0.0,0.0,0.0,0.0,0.0,0.0,0.0,0.0,-5.9075,-5.8356,-5.7946,-5.7916,-5.9304,-6.0022,-6.0022,-6.0022,-6.0022,-6.0022,-6.0022,-6.0022,0.0,0.0,-6.0022,-6.0057,-6.0057,-6.0057,-6.0057,-5.9979,-5.9966,-5.9931,-5.9885,-5.9853,-5.9758,-5.9076,-5.8186,-5.722,-5.6424,-5.5572,-5.4856,-5.4856,-5.4856,-5.4856,-5.4856,-5.4783,-5.4708,-5.4708,-5.4708,-5.4708,-5.4708,-5.4708,-5.4708,-5.4708,-5.4594,-5.4047,-5.2503,-5.2088,-5.1503,-4.9956,-4.9692,-4.9692,-4.9692,-4.9579,-4.9221,-4.8504,-4.8169,-4.7504,-4.6145,-4.5881,-4.5504,-4.4768,-4.4712,-4.4642,-4.4484,-4.3659,-4.2822,-4.201,-4.1919,-4.2234,-4.2964,-4.2969,-4.3351,-4.4098,-4.4199,-4.4211,-4.4153,-4.4138,-4.4073,-2.4637,-2.5717,-2.6798,-2.7167,-2.8479,-2.9814,-3.0208,-3.095,0.0,0.0,0.0,0.0,0.0,0.0,0.0,0.0,0.0,0.0,0.0,0.0,0.0,0.0,0.0,0.0,0.0,0.0,0.0,0.0,0.0,0.0,0.0,0.0,0.0,0.0,-5.812,-5.7696,-5.7758,-5.852,-5.9087,-5.9452,-5.9452,-5.968,-6.0099,-6.0099,-6.0099,-6.0099,0.0,-6.0099,-6.0099,-6.0099,-6.0099,-6.0103,-6.0072,-6.0057,-6.0057,-6.0026,-6.001,-5.9839,-5.8547,-5.7844,-5.7312,-5.6021,-5.5337,-5.5014,-5.5014,-5.5014,-5.5014,-5.5014,-5.4916,-5.4814,-5.4814,-5.4814,-5.4814,-5.4814,-5.4814,-5.4814,-5.4814,-5.4814,-5.4455,-5.3244,-5.2624,-5.1924,-5.0714,-5.0123,-4.9802,-4.9802,-4.983,-4.9725,-4.9327,-4.8918,-4.8395,-4.765,-4.6721,-4.5994,-4.5597,-4.5105,-4.4789,-4.4693,-4.4327,-4.3911,-4.3476,-4.3431,-4.3592,-4.3951,-4.3863,-4.3989,-4.434,-4.4314,-4.4285,-4.424,-4.424,-4.4226,-2.4348,-2.5884,-2.7299,-2.7299,0.0,-3.0246,-3.1035,-3.2042,0.0,0.0,0.0,0.0,0.0,0.0,0.0,0.0,0.0,0.0,0.0,0.0,0.0,0.0,0.0,0.0,0.0,0.0,0.0,0.0,0.0,0.0,0.0,0.0,0.0,0.0,-5.7636,-5.7223,-5.7347,-5.7347,-5.7783,-5.8673,-5.8673,-5.9092,-5.9858,-5.9858,-5.9972,-6.0178,-6.0178,-6.0178,-6.0178,-6.0178,-6.0178,-6.0163,-6.0148,-6.0133,-6.0099,-6.0099,-6.0099,-5.987,-5.8177,-5.7606,-5.732,-5.5646,-5.5094,-5.5094,-5.5094,-5.5094,-5.5094,-5.5094,-5.5028,-5.496,-5.496,-5.496,-5.496,-5.496,-5.496,-5.496,-5.496,-5.496,-5.4714,-5.3898,-5.3044,-5.2191,-5.1394,-5.0521,-4.9952,-4.9952,-4.9992,-5.0031,-5.0031,-4.9518,-4.9118,-4.8928,-4.7699,-4.6744,-4.6364,-4.548,-4.4895,-4.4796,-4.4764,-4.4725,-4.4712,-4.4712,-4.4685,-4.4619,-4.4565,-4.451,-4.444,-4.4401,-4.4358,-4.4329,-4.4329,-4.4314,-2.3664,-2.5457,-2.7299,-2.7299,-2.9166,-3.1204,-3.2015,-3.3449,0.0,-3.6686,0.0,0.0,0.0,0.0,0.0,0.0,0.0,0.0,0.0,0.0,0.0,0.0,0.0,0.0,0.0,0.0,0.0,0.0,0.0,0.0,0.0,0.0,0.0,0.0,0.0,-5.5653,-5.5684,-5.5684,-5.6454,-5.7968,-5.7968,-5.8389,-5.9158,-5.9158,-5.9611,-6.0375,-6.0375,-6.0375,-6.0375,-6.0375,-6.0375,-6.0375,-6.0308,-6.0216,-6.0099,-6.0099,-6.0099,-5.987,-5.8177,-5.7606,-5.732,-5.5646,-5.5094,-5.5094,-5.5094,-5.5094,-5.5094,-5.5094,-5.5094,-5.508,-5.508,-5.508,-5.508,-5.508,-5.508,-5.508,-5.508,-5.508,-5.4851,-5.4033,-5.3177,-5.2334,-5.1516,-5.0666,-5.0082,-5.0082,-5.0095,-5.0095,-5.0095,-5.0038,-4.9714,-4.8985,-4.8795,-4.8078,-4.653,-4.5586,-4.5091,-4.5061,-4.4914,-4.4757,-4.4712,-4.4712,-4.4699,-4.4699,-4.4699,-4.4659,-4.4578,-4.4578,-4.451,-4.4383,-4.4383,-4.4373,-2.3536,-2.5492,-2.7536,-2.8058,-3.0486,0.0,0.0,-3.4781,-3.6881,-3.8569,-3.9624,0.0,0.0,0.0,0.0,0.0,0.0,0.0,0.0,0.0,0.0,0.0,0.0,0.0,0.0,0.0,0.0,0.0,0.0,0.0,0.0,0.0,0.0,0.0,0.0,-5.5504,-5.5504,-5.5504,-5.5806,-5.6409,-5.6964,-5.766,-5.8477,-5.8477,-5.8923,-5.9708,-5.9708,-6.0028,-6.0525,-6.0485,-6.0458,-6.0458,-6.0394,-6.0332,-6.0285,-6.0285,-5.9941,-5.9317,-5.8186,-5.7423,-5.6793,-5.5668,-5.5286,-5.5286,-5.5286,-5.5286,-5.5286,-5.5286,-5.5286,-5.526,-5.5121,-5.5094,-5.5094,-5.5094,-5.5094,-5.5094,-5.5094,-5.5094,-5.4998,-5.4694,-5.3984,-5.3147,-5.229,-5.1472,-5.0717,-5.0184,-5.0145,-5.0151,-5.0151,-5.0207,-5.0116,-4.9811,-4.9279,-4.8462,-4.7246,-4.6389,-4.5902,-4.5902,-4.533,-4.4986,-4.4943,-4.4907,-4.4858,-4.484,-4.477,-4.4738,-4.4659,-4.4659,-4.4646,-4.4592,-4.4592,-4.4551,-2.3189,-2.5397,-2.7713,-2.8541,0.0,0.0,-3.4633,-3.6603,-3.8719,-4.0412,-4.1906,0.0,0.0,0.0,0.0,0.0,0.0,0.0,0.0,0.0,0.0,0.0,0.0,0.0,0.0,0.0,0.0,0.0,0.0,0.0,0.0,0.0,0.0,0.0,0.0,-5.5562,-5.5562,-5.5562,-5.5562,-5.5562,-5.6176,-5.6901,-5.769,-5.769,-5.8137,-5.8923,-5.8923,-5.9403,-6.0188,-6.015,-6.0277,-6.0525,-6.0485,-6.0458,-6.042,-6.0152,-5.9674,-5.901,-5.7933,-5.7168,-5.6537,-5.5696,-5.5428,-5.5428,-5.5428,-5.5428,-5.5428,-5.5428,-5.5428,-5.5403,-5.5255,-5.5222,-5.5181,-5.5181,-5.5195,-5.5203,-5.5203,-5.5216,-5.5229,-5.5203,-5.4554,-5.3715,-5.2812,-5.2012,-5.1173,-5.0328,-5.0243,-5.0278,-5.0283,-5.0337,-5.0359,-5.0359,-4.958,-4.88,-4.8121,-4.7327,-4.6858,-4.6835,-4.6016,-4.5414,-4.5103,-4.5068,-4.5003,-4.4955,-4.4907,-4.4846,-4.4757,-4.4757,-4.4732,-4.4712,-4.4712,-4.4685,-2.2614,-2.5044,-2.7804,0.0,0.0,0.0,-3.7033,-3.8918,-4.0583,-4.2297,0.0,0.0,0.0,0.0,0.0,0.0,0.0,0.0,0.0,0.0,0.0,0.0,0.0,0.0,0.0,0.0,0.0,0.0,0.0,0.0,0.0,0.0,0.0,0.0,0.0,0.0,-5.5703,-5.5703,-5.5703,-5.5703,-5.5703,-5.6079,-5.6796,-5.6796,-5.7268,-5.8092,-5.8092,-5.8552,-5.9288,-5.9288,-5.9805,-6.0585,-6.0585,-6.0585,-6.047,-5.9613,-5.9288,-5.9038,-5.7371,-5.6796,-5.6642,-5.5792,-5.5504,-5.5504,-5.5504,-5.5504,-5.5504,-5.5504,-5.5504,-5.5504,-5.5504,-5.5446,-5.5403,-5.5403,-5.5396,-5.5408,-5.5408,-5.5456,-5.548,-5.542,-5.4757,-5.3903,-5.2982,-5.2155,-5.1326,-5.0524,-5.0401,-5.0424,-5.0489,-5.05,-5.05,-5.05,-4.9724,-4.9186,-4.9111,-4.8394,-4.7884,-4.7818,-4.6997,-4.6083,-4.5152,-4.5103,-4.5103,-4.5103,-4.5103,-4.5026,-4.4895,-4.4895,-4.4821,-4.4693,-4.4712,-4.4712,-2.3293,-2.5482,0.0,0.0,0.0,0.0,0.0,-3.9843,0.0,0.0,0.0,0.0,0.0,0.0,0.0,0.0,0.0,0.0,0.0,0.0,0.0,0.0,0.0,0.0,0.0,0.0,0.0,0.0,0.0,0.0,0.0,0.0,0.0,0.0,0.0,0.0,-5.5836,-5.5836,-5.5816,-5.5766,-5.5766,-5.5859,-5.6033,-5.6033,-5.6494,-5.7332,-5.7332,-5.7801,-5.8577,-5.8561,-5.8647,-5.884,-5.884,-5.884,-5.8821,-5.8552,-5.8061,-5.7467,-5.6968,-5.6393,-5.5849,-5.5581,-5.5504,-5.5504,-5.5504,-5.5504,-5.5504,-5.5504,-5.5504,-5.5504,-5.5504,-5.5488,-5.5463,-5.5463,-5.5476,-5.5468,-5.5468,-5.5492,-5.5492,-5.548,-5.5289,-5.4855,-5.4001,-5.3158,-5.2315,-5.1513,-5.0862,-5.0478,-5.05,-5.05,-5.05,-5.05,-5.027,-5.0117,-5.0095,-4.929,-4.8811,-4.879,-4.8005,-4.711,-4.6132,-4.5497,-4.517,-4.517,-4.5125,-4.5091,-4.5045,-4.5045,-4.5014,-4.4967,-4.4931,-4.4902,-2.3662,0.0,0.0,0.0,0.0,0.0,0.0,0.0,0.0,0.0,0.0,0.0,0.0,0.0,0.0,0.0,0.0,0.0,0.0,0.0,0.0,0.0,0.0,0.0,0.0,0.0,0.0,0.0,0.0,0.0,0.0,0.0,0.0,0.0,0.0,0.0,-5.5895,-5.5895,-5.5885,-5.5836,-5.5836,-5.5826,-5.5785,-5.5724,-5.5992,-5.6503,-5.6849,-5.7311,-5.7819,-5.8101,-5.822,-5.8184,-5.8184,-5.8184,-5.8146,-5.7781,-5.732,-5.6821,-5.6476,-5.6015,-5.5573,-5.5573,-5.5573,-5.5573,-5.5573,-5.5573,-5.5573,-5.5573,-5.5573,-5.5573,-5.5573,-5.5596,-5.5596,-5.5516,-5.5516,-5.5539,-5.5539,-5.5562,-5.5573,-5.5539,-5.5539,-5.529,-5.4442,-5.3568,-5.2735,-5.1913,-5.1101,-5.0573,-5.0573,-5.0573,-5.0573,-5.0573,-5.0573,-5.0563,-5.0532,-5.0063,-4.9745,-4.9724,-4.8938,-4.8198,-4.7608,-4.6428,-4.5795,-4.5795,-4.542,-4.5205,-4.5181,-4.5181,-4.5159,-4.5103,-4.5068,-4.5033,-2.3844,0.0,0.0,0.0,0.0,0.0,0.0,0.0,0.0,0.0,0.0,0.0,0.0,0.0,0.0,0.0,0.0,0.0,0.0,0.0,0.0,0.0,0.0,0.0,0.0,0.0,0.0,0.0,0.0,0.0,0.0,0.0,0.0,0.0,0.0,0.0,-5.5914,-5.5914,-5.5914,0.0,-5.5905,-5.5905,-5.5895,-5.5766,-5.5724,-5.5763,-5.6552,-5.6898,-5.6956,-5.7753,-5.808,-5.808,-5.808,-5.808,-5.7984,-5.7187,-5.6898,-5.6783,-5.5994,-5.5667,-5.5609,-5.5686,-5.5667,-5.5609,-5.5686,-5.5724,-5.5724,-5.5724,-5.5724,-5.5724,-5.5724,-5.5756,-5.5756,-5.5573,-5.5585,-5.5618,-5.5618,-5.5682,-5.5703,-5.5629,-5.5618,-5.5377,-5.4583,-5.3659,-5.2741,-5.1842,-5.1135,-5.0702,-5.0702,-5.0702,-5.0702,-5.0702,-5.0702,-5.0673,-5.0623,-5.0613,-5.0593,-5.0521,-4.9773,-4.9342,-4.9342,-4.773,-4.6819,-4.6819,-4.6033,-4.561,-4.5547,-4.5547,-4.5475,-4.5354,-4.5354,-4.5342,0.0,-2.6937,0.0,0.0,0.0,0.0,0.0,0.0,0.0,0.0,0.0,0.0,0.0,0.0,0.0,0.0,0.0,0.0,0.0,0.0,0.0,0.0,0.0,0.0,0.0,0.0,0.0,0.0,0.0,0.0,0.0,0.0,0.0,0.0,0.0,-5.5977,-5.5977,-5.5977,-5.5979,0.0,-5.5981,-5.5953,-5.5895,-5.5875,-5.5865,-5.5865,-5.6058,-5.6135,-5.6155,-5.6347,-5.6424,-5.6424,-5.6424,-5.6424,-5.6386,-5.6212,-5.6135,-5.6116,-5.5923,-5.5403,-5.4959,-5.5634,-5.5383,-5.4959,-5.5653,-5.5865,-5.5865,-5.5865,-5.5865,-5.5865,-5.5865,-5.5875,-5.5875,-5.5816,-5.5816,-5.5845,-5.5845,-5.5855,-5.5846,-5.5836,-5.5845,-5.5788,-5.5585,-5.4275,-5.2724,-5.123,-5.0873,-5.0785,-5.0785,-5.0785,-5.0785,-5.0785,-5.073,-5.0702,-5.0683,-5.0673,-5.0663,-5.0653,-5.048,-5.0384,-5.0384,-4.8672,-4.772,-4.772,-4.7528,-4.7422,-4.7421,-4.7421,-4.7371,-4.7308,-4.7234,-4.719,0.0,0.0,0.0,0.0,0.0,0.0,0.0,0.0,0.0,0.0,0.0,0.0,0.0,0.0,0.0,0.0,0.0,0.0,0.0,0.0,0.0,0.0,0.0,0.0,0.0,0.0,0.0,0.0,0.0,0.0,0.0,0.0,0.0,0.0,-5.609,-5.609,-5.609,-5.609,-5.6073,-5.6042,-5.6042,-5.6016,-5.5951,-5.5904,-5.5895,-5.5895,-5.5895,-5.5895,-5.5895,-5.5895,-5.5895,-5.5895,-5.5895,-5.5895,-5.5895,-5.5895,-5.5644,-5.5278,-5.5278,-5.4699,-5.4043,-5.4506,-5.4352,-5.414,-5.5008,-5.5278,-5.5355,-5.5779,-5.5895,-5.5895,-5.5895,-5.5914,-5.5953,-5.5953,-5.5914,-5.5895,-5.5895,-5.5895,-5.5895,-5.5895,-5.5895,-5.5895,-5.5895,-5.4458,-5.2866,-5.1612,-5.1071,-5.0801,-5.0801,-5.0801,-5.0801,-5.0801,-5.0775,-5.0757,-5.0757,-5.0758,-5.074,-5.074,-5.074,-5.074,-5.074,-4.9798,-4.9096,-4.8683,-4.826,-4.8058,-4.8048,-4.8048,-4.8009,-4.7947,-4.7907,-4.7854,0.0,0.0,0.0,0.0,0.0,0.0,0.0,0.0,0.0,0.0,0.0,0.0,0.0,0.0,0.0,0.0,0.0,0.0,0.0,0.0,0.0,0.0,0.0,0.0,0.0,0.0,0.0,0.0,0.0,0.0,0.0,0.0,-5.6199,-5.6199,-5.6199,-5.6199,-5.6199,-5.6199,-5.6164,-5.6125,-5.6125,-5.609,-5.6029,-5.5989,-5.5943,-5.5924,-5.5924,-5.5924,-5.5924,-5.5924,-5.5924,-5.5904,-5.575,-5.5711,-5.5692,-5.5538,-5.5036,-5.4419,-5.4419,-5.384,-5.3126,-5.3299,-5.3222,-5.3261,-5.4148,-5.4419,-5.4592,-5.5461,-5.5721,-5.574,-5.5904,-5.598,-5.6035,-5.6035,-5.598,-5.5943,-5.5924,-5.5924,-5.5924,-5.5924,-5.5924,-5.5866,-5.5731,-5.4505,-5.327,-5.2468,-5.1734,-5.1271,-5.1271,-5.1271,-5.1271,-5.1271,-5.1262,-5.1254,-5.1254,-5.1245,-5.1245,-5.1245,-5.1245,-5.1187,-5.1033,-5.0969,-5.0519,-4.9653,-4.8923,-4.8548,-4.8548,-4.8548,-4.8519,-4.845,-4.845,-4.84,0.0,0.0,0.0,0.0,0.0,0.0,0.0,0.0,0.0,0.0,0.0,0.0,0.0,0.0,0.0,0.0,0.0,0.0,0.0,0.0,0.0,0.0,0.0,0.0,0.0,0.0,0.0,0.0,0.0,0.0,0.0,-5.5792,-5.6199,-5.6199,-5.6199,-5.6199,-5.6199,-5.6199,-5.6199,-5.6191,-5.6191,-5.6191,-5.6164,-5.6149,-5.6101,-5.5986,-5.5986,-5.5986,-5.5986,-5.5986,-5.5986,-5.5909,-5.5221,-5.4951,-5.4854,-5.41,-5.3752,-5.3655,-5.3655,-5.3075,-5.2476,-5.323,-5.2959,-5.2514,-5.3384,-5.3655,-5.3829,-5.4699,-5.4957,-5.5125,-5.588,-5.6125,-5.6176,-5.6176,-5.6168,-5.6125,-5.6003,-5.5986,-5.5986,-5.5986,-5.5986,-5.5773,-5.5067,-5.4757,-5.4312,-5.3442,-5.321,-5.3133,-5.3133,-5.3133,-5.3133,-5.3133,-5.3099,-5.3054,-5.3054,-5.3057,-5.3059,-5.3059,-5.3059,-5.2711,-5.1959,-5.1911,-5.1497,-5.0629,-5.0442,-5.0356,-5.0356,-5.0356,-5.0327,-5.0247,-5.0247,-5.0216,-2.1991,0.0,0.0,0.0,0.0,0.0,0.0,0.0,0.0,0.0,0.0,0.0,0.0,0.0,0.0,0.0,0.0,0.0,0.0,0.0,0.0,0.0,0.0,0.0,0.0,0.0,0.0,0.0,0.0,0.0,-5.4226,-5.5061,-5.5526,-5.5526,-5.5992,-5.6264,-5.6264,-5.6264,-5.6238,-5.619,-5.6187,-5.6199,-5.6199,-5.6199,-5.6176,-5.6106,-5.6106,-5.6106,-5.6106,-5.6106,-5.5807,-5.5343,-5.4994,-5.4557,-5.4092,-5.3704,-5.3259,-5.2833,-5.2833,-5.2271,-5.1651,-5.2039,-5.1903,-5.1748,-5.2562,-5.2833,-5.3007,-5.3879,-5.4487,-5.4948,-5.5335,-5.5816,-5.6199,-5.6199,-5.6199,-5.6191,-5.6114,-5.6106,-5.6106,-5.6106,-5.6106,-5.6009,-5.5641,-5.5176,-5.4731,-5.4351,-5.3867,-5.3557,-5.3557,-5.3557,-5.3569,-5.3557,-5.3522,-5.3498,-5.3453,-5.3456,-5.3467,-5.3467,-5.3467,-5.3293,-5.2906,-5.2852,-5.2419,-5.155,-5.1026,-5.074,-5.0712,-5.0712,-5.0683,-5.0653,-5.0653,-5.0623,0.0,0.0,0.0,0.0,0.0,0.0,0.0,0.0,0.0,0.0,0.0,0.0,0.0,0.0,0.0,0.0,0.0,0.0,0.0,0.0,0.0,0.0,0.0,0.0,0.0,0.0,0.0,0.0,0.0,0.0,-5.339,-5.4225,-5.4692,-5.4698,-5.5326,-5.5656,-5.5656,-5.5669,-5.5625,-5.5553,-5.5564,-5.555,-5.555,-5.555,-5.555,-5.5588,-5.6013,-5.6063,-5.5869,-5.5869,-5.5365,-5.4544,-5.4331,-5.3834,-5.3233,-5.3039,-5.2554,-5.1992,-5.1992,-5.1605,-5.1101,-5.1101,-5.1101,-5.1217,-5.1818,-5.1992,-5.2167,-5.3039,-5.3737,-5.4365,-5.4791,-5.5407,-5.5957,-5.617,-5.6228,-5.6221,-5.6206,-5.6199,-5.6199,-5.6199,-5.6199,-5.6199,-5.6199,-5.5656,-5.523,-5.523,-5.4675,-5.4268,-5.4268,-5.4268,-5.4253,-5.4262,-5.4262,-5.4247,-5.4196,-5.4188,-5.4188,-5.4152,-5.4152,-5.4056,-5.3846,-5.3774,-5.3351,-5.2462,-5.1606,-5.1014,-5.0739,-5.0739,-5.0711,-5.0702,-5.0702,-5.0673,0.0,0.0,0.0,0.0,0.0,0.0,0.0,0.0,0.0,0.0,0.0,0.0,0.0,0.0,0.0,0.0,0.0,0.0,0.0,0.0,0.0,0.0,0.0,0.0,0.0,0.0,0.0,0.0,0.0,0.0,-5.2564,-5.338,-5.3858,-5.3866,-5.3905,-5.3924,-5.3924,-5.3936,-5.3893,-5.3824,-5.3824,-5.3824,-5.3824,-5.3824,-5.3824,-5.3915,-5.5511,-5.5734,-5.497,-5.497,-5.4447,-5.3601,-5.2768,-5.2399,-5.2283,-5.1508,-5.1197,-5.1159,-5.1159,-5.1139,-5.1101,-5.1101,-5.1101,-5.112,-5.1159,-5.1159,-5.1333,-5.2147,-5.2446,-5.2893,-5.4484,-5.4977,-5.5275,-5.6091,-5.6285,-5.6291,-5.6214,-5.6199,-5.6199,-5.6199,-5.6199,-5.6199,-5.6199,-5.616,-5.6121,-5.6121,-5.6083,-5.6063,-5.6063,-5.6063,-5.6063,-5.6063,-5.6063,-5.6063,-5.6056,-5.6056,-5.6021,-5.5982,-5.5954,-5.5589,-5.4774,-5.4735,-5.4329,-5.344,-5.2569,-5.1697,-5.0793,-5.0793,-5.0766,-5.0692,-5.0692,-5.0692,0.0,0.0,0.0,0.0,0.0,0.0,0.0,0.0,0.0,0.0,0.0,0.0,0.0,0.0,0.0,0.0,0.0,0.0,0.0,0.0,0.0,0.0,0.0,0.0,0.0,0.0,0.0,0.0,0.0,0.0,-5.1657,-5.2499,-5.2971,-5.2976,-5.3521,-5.3807,-5.3807,-5.3802,-5.3791,-5.3766,-5.3766,-5.3766,-5.3766,-5.3766,-5.3766,-5.38,-5.4399,-5.4465,-5.4136,-5.4136,-5.3612,-5.2796,-5.2486,-5.2039,-5.1554,-5.1263,-5.1166,-5.1166,-5.1166,-5.1166,-5.1166,-5.1166,-5.1166,-5.1166,-5.1166,-5.1165,-5.1222,-5.1513,-5.2016,-5.2603,-5.3205,-5.4208,-5.5283,-5.6164,-5.6358,-5.6353,-5.6329,-5.6323,-5.6317,-5.6272,-5.6272,-5.6265,-5.6258,-5.6251,-5.6251,-5.6251,-5.6251,-5.6251,-5.6251,-5.6251,-5.6245,-5.6204,-5.6197,-5.6209,-5.6199,-5.6199,-5.6191,-5.6176,-5.6157,-5.6013,-5.5707,-5.5688,-5.5273,-5.4359,-5.403,-5.313,-5.1627,-5.1125,-5.0838,-5.0747,-5.072,-5.0711,0.0,0.0,0.0,0.0,0.0,0.0,0.0,0.0,0.0,0.0,0.0,0.0,0.0,0.0,0.0,0.0,0.0,0.0,0.0,0.0,0.0,0.0,0.0,0.0,0.0,0.0,0.0,0.0,0.0,0.0,-5.1225,-5.1789,-5.2105,-5.2091,-5.265,-5.2957,-5.2952,-5.2952,-5.2947,-5.2937,-5.2937,-5.2937,-5.2937,-5.2937,-5.2937,-5.2937,-5.2937,-5.3072,-5.3297,-5.3297,-5.2786,-5.1997,-5.1997,-5.168,-5.1202,-5.1202,-5.1202,-5.1202,-5.1194,-5.12,-5.12,-5.1211,-5.1192,-5.1192,-5.1192,-5.1208,-5.1205,-5.1205,-5.1624,-5.2125,-5.2417,-5.3584,-5.4888,-5.5763,-5.5969,-5.6032,-5.6344,-5.6397,-5.6381,-5.6345,-5.6339,-5.6333,-5.6329,-5.6329,-5.6329,-5.6329,-5.6329,-5.6329,-5.6329,-5.6329,-5.6317,-5.6239,-5.6239,-5.6219,-5.6223,-5.6236,-5.6216,-5.6202,-5.6202,-5.6194,-5.6199,-5.6199,-5.5912,-5.5246,-5.4955,-5.4052,-5.2567,-5.1736,-5.1151,-5.0838,-5.0784,-5.0902,0.0,0.0,0.0,0.0,0.0,0.0,0.0,0.0,0.0,0.0,0.0,0.0,0.0,0.0,0.0,0.0,0.0,0.0,0.0,0.0,0.0,0.0,0.0,0.0,0.0,0.0,0.0,0.0,0.0,-5.1167,-5.1272,-5.1291,-5.13,-5.13,-5.13,-5.1292,-5.1291,-5.1291,-5.1278,-5.1191,-5.1191,-5.1191,-5.1191,-5.1191,-5.1191,-5.1191,-5.1191,-5.1677,-5.2456,-5.2456,-5.1954,-5.1194,-5.1194,-5.1192,-5.1202,-5.1202,-5.1202,-5.1208,-5.1203,-5.1194,-5.12,-5.1201,-5.1211,-5.1211,-5.1211,-5.1211,-5.1191,-5.1191,-5.1191,-5.1405,-5.2281,-5.3137,-5.3988,-5.4849,-5.5088,-5.5322,-5.6179,-5.6373,-5.6391,-5.6391,-5.6391,-5.6391,-5.6372,-5.6372,-5.6352,-5.6333,-5.6308,-5.6308,-5.6308,-5.6308,-5.6297,-5.623,-5.625,-5.6251,-5.6259,-5.6298,-5.6259,-5.6206,-5.6199,-5.6204,-5.6206,-5.6199,-5.6164,-5.6098,-5.5265,-5.4397,-5.3506,-5.2635,-5.178,-5.0938,-5.0957,-5.135,-1.8947,0.0,0.0,0.0,0.0,0.0,0.0,0.0,0.0,0.0,0.0,0.0,0.0,0.0,0.0,0.0,0.0,0.0,0.0,0.0,0.0,0.0,0.0,0.0,0.0,0.0,0.0,0.0,-4.9441,-4.9726,-5.0338,-5.0961,-5.1292,-5.13,-5.13,-5.1296,-5.1292,-5.1292,-5.1288,-5.1261,-5.1261,-5.1261,-5.1261,-5.1261,-5.1261,-5.1261,-5.1261,-5.1416,-5.1631,-5.1575,-5.142,-5.1201,-5.1201,-5.1196,-5.1205,-5.1205,-5.1205,-5.1205,-5.1196,-5.1201,-5.1201,-5.1206,-5.1211,-5.1211,-5.1211,-5.1225,-5.1278,-5.1278,-5.1272,-5.1475,-5.2351,-5.2741,-5.315,-5.4026,-5.4706,-5.5229,-5.5482,-5.6036,-5.6461,-5.6412,-5.6398,-5.6198,-5.5574,-5.5452,-5.5258,-5.461,-5.4513,-5.4513,-5.4513,-5.4513,-5.4508,-5.4483,-5.5072,-5.5436,-5.543,-5.5971,-5.6284,-5.6278,-5.6272,-5.6272,-5.6265,-5.6265,-5.6245,-5.617,-5.5947,-5.5064,-5.3573,-5.2651,-5.2086,-5.1857,-5.2442,-5.2798,0.0,0.0,0.0,0.0,0.0,0.0,0.0,-2.64,0.0,0.0,0.0,0.0,0.0,0.0,0.0,0.0,0.0,0.0,0.0,0.0,0.0,0.0,0.0,0.0,0.0,0.0,0.0,0.0,-4.8779,-4.9001,-4.9469,-5.0307,-5.0778,-5.0805,-5.1129,-5.1304,-5.1292,-5.1304,-5.13,-5.13,-5.13,-5.13,-5.13,-5.1308,-5.1292,-5.1296,-5.1323,-5.1342,-5.1342,-5.13,-5.1272,-5.1244,-5.1244,-5.122,-5.1211,-5.1211,-5.1211,-5.1191,-5.1225,-5.1244,-5.1249,-5.1239,-5.1248,-5.1237,-5.1237,-5.1292,-5.1347,-5.1347,-5.1335,-5.1459,-5.1966,-5.2102,-5.2317,-5.3155,-5.3747,-5.4304,-5.5044,-5.5597,-5.6046,-5.6383,-5.6141,-5.5747,-5.5228,-5.4849,-5.4431,-5.392,-5.3833,-5.3847,-5.3847,-5.3847,-5.3823,-5.3808,-5.4261,-5.4704,-5.5063,-5.5533,-5.595,-5.6283,-5.6303,-5.631,-5.6291,-5.6291,-5.6278,-5.6199,-5.6202,-5.5517,-5.4099,-5.3553,-5.3091,-5.2743,-5.3196,-5.3568,0.0,0.0,0.0,0.0,0.0,0.0,-2.4308,-2.5588,-2.7009,0.0,0.0,0.0,0.0,0.0,0.0,0.0,0.0,0.0,0.0,0.0,0.0,0.0,0.0,0.0,0.0,0.0,-4.745,-4.8307,-4.8541,-4.8658,-4.8658,-4.9437,-4.9893,-4.9946,-5.0731,-5.116,-5.1177,-5.1257,-5.1308,-5.1308,-5.1308,-5.1308,-5.1308,-5.1307,-5.1314,-5.1317,-5.1369,-5.1394,-5.1394,-5.1394,-5.1365,-5.1295,-5.1295,-5.1263,-5.1215,-5.1215,-5.1215,-5.122,-5.1287,-5.1295,-5.13,-5.1296,-5.1319,-5.1314,-5.1314,-5.1343,-5.1394,-5.1394,-5.1394,-5.1394,-5.1394,-5.1394,-5.1589,-5.2308,-5.2545,-5.3033,-5.4596,-5.5064,-5.5438,-5.6215,-5.5747,-5.5178,-5.5061,-5.4326,-5.3731,-5.3634,-5.3615,-5.3623,-5.3623,-5.3623,-5.3591,-5.353,-5.3604,-5.4023,-5.4879,-5.5054,-5.5447,-5.6255,-5.6314,-5.6315,-5.6298,-5.6298,-5.6265,-5.6206,-5.6105,-5.5696,-5.4937,-5.4851,-5.4407,-5.3652,-5.3668,-5.4106,0.0,0.0,0.0,0.0,0.0,0.0,-2.4388,-2.5186,-2.618,0.0,0.0,0.0,0.0,0.0,0.0,0.0,0.0,0.0,0.0,0.0,0.0,0.0,0.0,0.0,0.0,0.0,-4.4772,-4.5591,-4.6955,-4.7758,-4.7758,-4.8574,-4.9045,-4.9048,-4.9884,-5.0335,-5.0338,-5.1034,-5.1385,-5.1385,-5.1385,-5.1385,-5.1385,-5.1388,-5.1369,-5.1372,-5.1391,-5.1394,-5.1394,-5.1394,-5.1362,-5.1303,-5.1303,-5.1289,-5.1288,-5.1288,-5.1288,-5.1288,-5.1292,-5.1308,-5.1303,-5.1307,-5.1336,-5.1369,-5.1369,-5.1391,-5.1394,-5.1394,-5.1394,-5.1394,-5.1394,-5.1394,-5.1433,-5.1609,-5.2164,-5.2776,-5.3108,-5.4289,-5.5331,-5.5506,-5.5352,-5.4983,-5.4261,-5.3439,-5.2636,-5.1993,-5.1892,-5.1892,-5.1892,-5.184,-5.1791,-5.1787,-5.2415,-5.3202,-5.4054,-5.4738,-5.5468,-5.6339,-5.6372,-5.6364,-5.6296,-5.6296,-5.6297,-5.6285,-5.5537,-5.5382,-5.583,-5.5139,-5.4716,-5.4561,-5.521,-5.559,0.0,0.0,0.0,-2.564,0.0,0.0,0.0,-2.5691,-2.5813,0.0,0.0,0.0,0.0,0.0,0.0,0.0,0.0,0.0,0.0,0.0,0.0,0.0,0.0,0.0,0.0,0.0,-4.3395,-4.4234,-4.5114,-4.5777,-4.6184,-4.7022,-4.7708,-4.8145,-4.8998,-4.9661,-5.0098,-5.0519,-5.0965,-5.1394,-5.1394,-5.1394,-5.1394,-5.1403,-5.1405,-5.1405,-5.1394,-5.1396,-5.1396,-5.1396,-5.1389,-5.1355,-5.1346,-5.1356,-5.1349,-5.1349,-5.1349,-5.1349,-5.1349,-5.1356,-5.1343,-5.1343,-5.1375,-5.1405,-5.1405,-5.1391,-5.1396,-5.1396,-5.1396,-5.1396,-5.1396,-5.1396,-5.1396,-5.1396,-5.1737,-5.2175,-5.2605,-5.3725,-5.4786,-5.5215,-5.4916,-5.4455,-5.4033,-5.2874,-5.1854,-5.1464,-5.14,-5.1394,-5.1394,-5.1369,-5.1343,-5.1343,-5.1743,-5.2515,-5.3791,-5.427,-5.5033,-5.6315,-5.6398,-5.6377,-5.635,-5.6314,-5.6284,-5.6246,-5.5784,-5.5748,-5.6149,-5.5683,-5.5438,-5.5412,-5.5818,-5.5995,0.0,0.0,0.0,0.0,0.0,-2.7217,0.0,0.0,0.0,-2.5731,0.0,0.0,0.0,0.0,0.0,0.0,0.0,0.0,0.0,0.0,0.0,0.0,0.0,0.0,0.0,0.0,-4.2193,-4.2897,-4.3268,-4.3736,-4.4378,-4.5392,-4.6294,-4.7008,-4.8033,-4.8908,-4.9603,-4.9769,-5.0291,-5.1149,-5.1149,-5.1247,-5.1403,-5.1396,-5.1401,-5.1401,-5.139,-5.1394,-5.1394,-5.1394,-5.141,-5.1401,-5.1405,-5.1397,-5.1394,-5.1394,-5.1394,-5.1394,-5.1394,-5.1397,-5.14,-5.14,-5.1408,-5.1401,-5.1406,-5.1392,-5.1398,-5.14,-5.14,-5.14,-5.14,-5.14,-5.14,-5.14,-5.1407,-5.1587,-5.2308,-5.327,-5.4211,-5.4913,-5.462,-5.4208,-5.4039,-5.2546,-5.1408,-5.1406,-5.1396,-5.1405,-5.1403,-5.14,-5.14,-5.14,-5.1397,-5.2071,-5.3754,-5.391,-5.4613,-5.6309,-5.6422,-5.6412,-5.6397,-5.6345,-5.6278,-5.6219,-5.6206,-5.6204,-5.6194,-5.6149,-5.609,-5.602,-5.6012,-5.6012,0.0,0.0,0.0,0.0,-2.8179,0.0,0.0,0.0,-2.6627,-2.5853,0.0,0.0,0.0,0.0,0.0,0.0,0.0,0.0,0.0,0.0,0.0,0.0,0.0,0.0,0.0,0.0,0.0,-4.0246,-4.167,-4.2588,-4.2685,-4.4245,-4.5184,-4.5281,-4.6882,-4.778,-4.7877,-4.858,-4.9399,-5.0256,-5.0256,-5.0649,-5.139,-5.1392,-5.1392,-5.1392,-5.1394,-5.1394,-5.1394,-5.1394,-5.1394,-5.1392,-5.1401,-5.1408,-5.1394,-5.1394,-5.1394,-5.1394,-5.1394,-5.1403,-5.1396,-5.1396,-5.1403,-5.1394,-5.1403,-5.1407,-5.1409,-5.1395,-5.1396,-5.1396,-5.1396,-5.1396,-5.1396,-5.1396,-5.1397,-5.1436,-5.1534,-5.2843,-5.4036,-5.4133,-5.47,-5.4914,-5.4131,-5.2548,-5.1394,-5.1408,-5.1405,-5.1402,-5.1392,-5.1401,-5.1396,-5.1396,-5.1403,-5.2077,-5.3751,-5.3907,-5.4642,-5.6371,-5.6488,-5.6448,-5.6407,-5.6336,-5.6302,-5.6296,-5.6233,-5.6199,-5.6192,-5.6194,-5.6149,-5.609,-5.6029,-5.6012,0.0,0.0,0.0,0.0,0.0,0.0,0.0,0.0,-2.6892,0.0,0.0,0.0,0.0,0.0,0.0,0.0,0.0,0.0,0.0,0.0,0.0,0.0,0.0,0.0,0.0,0.0,0.0,0.0,0.0,-4.0093,-4.1576,-4.2337,-4.343,-4.4951,-4.5712,-4.6571,-4.7586,-4.7938,-4.8525,-4.9345,-4.9345,-4.9794,-5.0653,-5.0658,-5.0915,-5.1403,-5.1408,-5.139,-5.1409,-5.1405,-5.1403,-5.1403,-5.1392,-5.1403,-5.1399,-5.1399,-5.1399,-5.1399,-5.1399,-5.1403,-5.1408,-5.1396,-5.14,-5.1405,-5.1393,-5.1395,-5.1395,-5.1397,-5.1398,-5.1398,-5.1398,-5.1398,-5.1398,-5.1398,-5.1401,-5.1402,-5.1402,-5.2361,-5.3397,-5.3905,-5.4296,-5.4589,-5.4725,-5.3316,-5.1983,-5.1473,-5.1395,-5.1394,-5.1391,-5.1407,-5.1599,-5.2101,-5.2154,-5.2828,-5.451,-5.4647,-5.5184,-5.6413,-5.65,-5.6476,-5.6393,-5.6372,-5.6345,-5.6302,-5.6278,-5.6252,-5.6252,-5.6211,-5.6194,-5.6149,-5.609,-5.6037,-3.2512,0.0,0.0,0.0,0.0,0.0,0.0,0.0,0.0,0.0,0.0,0.0,0.0,0.0,0.0,0.0,0.0,0.0,0.0,0.0,0.0,0.0,0.0,0.0,0.0,0.0,0.0,0.0,-3.6325,0.0,-3.9589,-4.037,-4.1737,-4.3865,-4.4624,-4.562,-4.6887,-4.712,-4.7666,-4.8466,-4.8468,-4.8919,-4.9758,-4.9983,-5.0454,-5.1061,-5.1299,-5.1398,-5.1398,-5.1394,-5.1393,-5.1391,-5.1405,-5.1402,-5.1402,-5.1396,-5.1394,-5.1394,-5.1398,-5.14,-5.1403,-5.139,-5.1393,-5.1394,-5.1399,-5.14,-5.1401,-5.1402,-5.1402,-5.1402,-5.1402,-5.1402,-5.1402,-5.1402,-5.1404,-5.1405,-5.1405,-5.209,-5.2969,-5.3828,-5.4199,-5.4551,-5.5195,-5.4042,-5.2847,-5.2202,-5.2104,-5.2103,-5.2101,-5.2101,-5.2354,-5.2994,-5.3069,-5.3648,-5.5096,-5.5228,-5.5591,-5.6452,-5.6507,-5.648,-5.6431,-5.6417,-5.6386,-5.6339,-5.6303,-5.6304,-5.6291,-5.6246,-5.6218,-5.6194,-5.6122,-5.6054,0.0,0.0,0.0,-3.2059,0.0,0.0,0.0,0.0,-2.928,0.0,0.0,0.0,0.0,0.0,0.0,0.0,0.0,0.0,0.0,0.0,0.0,0.0,0.0,0.0,0.0,0.0,0.0,-3.2267,-3.3827,-3.5197,-3.6101,-3.8562,-4.032,-4.1203,-4.3678,-4.5022,-4.5081,-4.5914,-4.6788,-4.7645,-4.7634,-4.8068,-4.8868,-4.9716,-5.0128,-5.0187,-5.1027,-5.1398,-5.1398,-5.1398,-5.1398,-5.1398,-5.1398,-5.1397,-5.1396,-5.1402,-5.1394,-5.1396,-5.1407,-5.1394,-5.1397,-5.1398,-5.1398,-5.1399,-5.1404,-5.1405,-5.1405,-5.1406,-5.1406,-5.1406,-5.1406,-5.1406,-5.1406,-5.1406,-5.1406,-5.1406,-5.1406,-5.207,-5.2969,-5.3828,-5.4687,-5.5273,-5.5293,-5.4551,-5.3945,-5.3925,-5.3924,-5.3923,-5.3918,-5.3918,-5.3938,-5.3957,-5.3952,-5.4317,-5.5215,-5.5304,-5.5645,-5.645,-5.6494,-5.6492,-5.6492,-5.6435,-5.6398,-5.6406,-5.6339,-5.6309,-5.6291,-5.6291,-5.6252,-5.6199,-5.6137,-5.6054,0.0,0.0,-3.2828,-3.2243,0.0,0.0,0.0,0.0,0.0,0.0,0.0,0.0,0.0,0.0,0.0,0.0,0.0,0.0,0.0,0.0,0.0,0.0,0.0,0.0,0.0,0.0,0.0,-3.0401,-3.1533,-3.3057,0.0,-3.6534,-3.8488,-4.1027,-4.1964,-4.3251,-4.4971,-4.5281,-4.5885,-4.6744,-4.6747,-4.7177,-4.8016,-4.8315,-4.9078,-5.0173,-5.0487,-5.0917,-5.1405,-5.1404,-5.1403,-5.1402,-5.1399,-5.1398,-5.1398,-5.1394,-5.1393,-5.1393,-5.1395,-5.1397,-5.1399,-5.1402,-5.1403,-5.1404,-5.1406,-5.1406,-5.1406,-5.1406,-5.1404,-5.1402,-5.1402,-5.1402,-5.1402,-5.1402,-5.1402,-5.1402,-5.1402,-5.1639,-5.2265,-5.371,-5.4238,-5.4805,-5.5957,-5.5918,-5.5332,-5.4179,-5.4004,-5.4003,-5.4003,-5.4003,-5.4217,-5.4801,-5.4858,-5.5206,-5.6095,-5.6163,-5.6267,-5.6489,-5.6508,-5.6507,-5.6492,-5.6435,-5.6407,-5.6398,-5.6331,-5.6296,-5.6309,-5.6304,-5.6272,-5.6199,-5.6187,-5.6133,-3.5158,-3.4533,0.0,-3.3165,-3.2792,0.0,-3.1465,0.0,0.0,0.0,0.0,0.0,0.0,0.0,0.0,0.0,0.0,0.0,0.0,-2.2674,0.0,0.0,0.0,0.0,0.0,0.0,-2.8062,-2.8627,-2.9486,-3.0952,0.0,0.0,-3.6519,-3.9645,-4.062,-4.2202,-4.4526,-4.4857,-4.5442,-4.6301,-4.6303,-4.6597,-4.7143,-4.7459,-4.8202,-4.9316,-4.9922,-5.0488,-5.0996,-5.1289,-5.1405,-5.1405,-5.1404,-5.1403,-5.1402,-5.1399,-5.1399,-5.1401,-5.1401,-5.1402,-5.1403,-5.1405,-5.1406,-5.1406,-5.1406,-5.1405,-5.1403,-5.1403,-5.1401,-5.1398,-5.1398,-5.1398,-5.1398,-5.1398,-5.1398,-5.1398,-5.1398,-5.1401,-5.1813,-5.326,-5.3788,-5.4453,-5.5898,-5.6387,-5.6211,-5.5098,-5.4922,-5.4922,-5.4922,-5.4922,-5.5137,-5.5702,-5.576,-5.599,-5.6545,-5.6596,-5.6586,-5.6536,-5.6514,-5.6498,-5.6503,-5.6468,-5.6422,-5.6393,-5.6367,-5.6314,-5.6302,-5.6291,-5.6278,-5.6239,-5.6202,-5.6184]},{"header":{"parameterUnit":"m.s-1","parameterCategory":1,"la1":30.6,"la2":29.2853,"lo1":-89.7004,"lo2":-87.6739,"dy":0.0162,"dx":0.0183,"nx":112,"ny":82,"refTime":"2023-07-17T00:00:00:Z","depth":0,"parameterNumber":3,"parameterNumberName":"V-component_of_WINDS"},"data":[0.0,0.0,0.0,0.0,0.0,0.0,0.0,0.0,0.0,0.0,0.0,0.0,0.0,0.0,0.0,0.0,0.0,0.0,0.0,0.0,0.0,0.0,0.0,0.0,0.0,0.0,0.0,0.0,0.0,0.0,0.0,0.0,0.0,0.0,0.0,0.0,0.0,0.0,0.0,0.0,0.0,0.0,0.0,0.0,0.0,0.0,0.0,0.0,0.0,0.0,0.0,0.0,0.0,0.0,0.0,0.0,0.0,0.0,0.0,0.0,0.0,0.0,0.0,0.0,0.0,0.0,0.0,0.0,0.0,0.0,0.0,0.0,0.0,0.0,0.0,0.0,0.0,0.0,0.0,0.0,0.0,0.0,0.0,0.0,0.0,0.0,0.0,0.0,0.0,0.0,0.0,-1.6073,-1.7791,-1.8512,-1.7792,-1.7222,-1.6208,-1.45,0.0,0.0,0.0,0.0,0.0,0.0,0.0,0.0,0.0,0.0,0.0,0.0,0.0,0.0,0.0,0.0,0.0,0.0,0.0,0.0,0.0,0.0,0.0,0.0,0.0,0.0,0.0,0.0,0.0,0.0,0.0,0.0,0.0,0.0,0.0,0.0,0.0,0.0,0.0,0.0,0.0,0.0,0.0,0.0,0.0,0.0,0.0,0.0,0.0,0.0,0.0,0.0,0.0,0.0,0.0,0.0,0.0,0.0,0.0,0.0,0.0,0.0,0.0,0.0,0.0,0.0,0.0,0.0,0.0,0.0,0.0,0.0,0.0,0.0,0.0,0.0,0.0,0.0,0.0,0.0,0.0,0.0,0.0,0.0,0.0,0.0,0.0,0.0,0.0,0.0,0.0,0.0,0.0,0.0,0.0,0.0,0.0,0.0,0.0,0.0,0.0,0.0,0.0,0.0,-1.5326,-1.7977,-1.8884,-1.9121,-1.8721,-1.7922,-1.674,-1.5003,0.0,0.0,0.0,0.0,0.0,0.0,0.0,0.0,0.0,0.0,0.0,0.0,0.0,0.0,0.0,0.0,0.0,0.0,0.0,0.0,0.0,0.0,0.0,0.0,0.0,0.0,0.0,0.0,0.0,0.0,0.0,0.0,0.0,0.0,0.0,0.0,0.0,0.0,0.0,0.0,0.0,0.0,0.0,0.0,0.0,0.0,0.0,0.0,0.0,0.0,0.0,0.0,0.0,0.0,0.0,0.0,0.0,0.0,0.0,0.0,0.0,0.0,0.0,0.0,0.0,0.0,0.0,0.0,0.0,0.0,0.0,0.0,0.0,0.0,0.0,0.0,0.0,0.0,0.0,0.0,0.0,0.0,0.0,0.0,0.0,0.0,0.0,0.0,0.0,0.0,0.0,0.0,0.0,0.0,0.0,0.0,0.0,0.0,0.0,0.0,0.0,0.0,0.0,-1.4779,-1.6683,-1.849,-1.9364,-1.9543,-1.8956,-1.8295,-1.7082,-1.5127,-1.3507,0.0,0.0,0.0,0.0,0.0,0.0,0.0,0.0,0.0,0.0,0.0,0.0,0.0,0.0,0.0,0.0,0.0,0.0,0.0,0.0,0.0,0.0,0.0,0.0,0.0,0.0,0.0,0.0,0.0,0.0,0.0,0.0,0.0,0.0,0.0,0.0,0.0,0.0,0.0,0.0,0.0,0.0,0.0,0.0,0.0,0.0,0.0,0.0,0.0,0.0,0.0,0.0,0.0,0.0,0.0,0.0,0.0,0.0,0.0,0.0,0.0,0.0,0.0,0.0,0.0,0.0,0.0,0.0,0.0,0.0,0.0,0.0,0.0,0.0,0.0,0.0,0.0,0.0,0.0,0.0,0.0,0.0,0.0,0.0,0.0,0.0,0.0,0.0,0.0,0.0,0.0,0.0,0.0,0.0,0.0,0.0,0.0,0.0,0.0,0.0,0.0,0.0,-1.6103,-1.7667,-1.8589,-1.9529,-1.9781,-1.8977,-1.8391,-1.7188,-1.5137,-1.36,0.0,0.0,0.0,0.0,0.0,0.0,0.0,0.0,0.0,0.0,0.0,0.0,0.0,0.0,0.0,0.0,0.0,0.0,0.0,0.0,0.0,0.0,0.0,0.0,0.0,0.0,0.0,0.0,0.0,0.0,0.0,0.0,0.0,0.0,0.0,0.0,0.0,0.0,0.0,0.0,0.0,0.0,0.0,0.0,0.0,0.0,0.0,0.0,0.0,0.0,0.0,0.0,0.0,0.0,0.0,0.0,0.0,0.0,0.0,0.0,0.0,0.0,0.0,0.0,0.0,0.0,0.0,0.0,0.0,0.0,0.0,0.0,0.0,0.0,0.0,0.0,0.0,0.0,0.0,0.0,0.0,0.0,0.0,0.0,0.0,0.0,0.0,0.0,0.0,0.0,0.0,0.0,0.0,0.0,0.0,0.0,0.0,0.0,0.0,0.0,0.0,0.0,-1.6103,-1.7667,-1.8589,-1.9529,-1.9781,-1.8977,-1.8134,-1.6889,-1.5117,-1.3333,0.0,0.0,0.0,0.0,0.0,0.0,0.0,0.0,0.0,0.0,0.0,0.0,0.0,0.0,0.0,0.0,0.0,0.0,0.0,0.0,0.0,0.0,0.0,0.0,0.0,0.0,0.0,0.0,0.0,0.0,0.0,0.0,0.0,0.0,0.0,0.0,0.0,0.0,0.0,0.0,0.0,0.0,0.0,0.0,0.0,0.0,0.0,0.0,0.0,0.0,0.0,0.0,0.0,0.0,0.0,0.0,0.0,0.0,0.0,0.0,0.0,0.0,0.0,0.0,0.0,0.0,0.0,0.0,0.0,0.0,0.0,0.0,0.0,0.0,0.0,0.0,0.0,0.0,0.0,0.0,0.0,0.0,0.0,0.0,0.0,0.0,0.0,0.0,0.0,0.0,0.0,0.0,0.0,0.0,0.0,0.0,0.0,0.0,0.0,0.0,0.0,0.0,-1.6103,-1.7667,0.0,-1.9466,-1.9673,-1.8966,-1.798,-1.6616,-1.4666,0.0,0.0,0.0,0.0,0.0,0.0,0.0,0.0,0.0,0.0,0.0,0.0,0.0,0.0,0.0,0.0,0.0,0.0,0.0,0.0,0.0,0.0,0.0,0.0,0.0,0.0,0.0,0.0,0.0,0.0,0.0,0.0,0.0,0.0,0.0,0.0,0.0,0.0,0.0,0.0,0.0,0.0,0.0,0.0,0.0,0.0,0.0,0.0,0.0,0.0,0.0,0.0,0.0,0.0,0.0,0.0,0.0,0.0,0.0,0.0,0.0,0.0,0.0,0.0,0.0,0.0,0.0,0.0,0.0,0.0,0.0,0.0,0.0,0.0,0.0,0.0,0.0,0.0,0.0,0.0,0.0,0.0,0.0,0.0,0.0,0.0,0.0,0.0,0.0,0.0,0.0,0.0,0.0,0.0,0.0,0.0,0.0,0.0,0.0,0.0,0.0,0.0,-1.4156,-1.6103,-1.7639,0.0,-1.9371,-1.9555,-1.8701,-1.7678,-1.6238,-1.42,0.0,0.0,0.0,0.0,0.0,0.0,0.0,0.0,0.0,0.0,0.0,0.0,0.0,0.0,0.0,0.0,0.0,0.0,0.0,0.0,0.0,0.0,0.0,0.0,0.0,0.0,0.0,0.0,0.0,0.0,0.0,0.0,0.0,0.0,0.0,0.0,0.0,0.0,0.0,0.0,0.0,0.0,0.0,0.0,0.0,0.0,0.0,0.0,0.0,0.0,0.0,0.0,0.0,0.0,0.0,0.0,0.0,0.0,0.0,0.0,0.0,0.0,0.0,0.0,0.0,0.0,0.0,0.0,0.0,0.0,0.0,0.0,0.0,0.0,0.0,0.0,0.0,0.0,0.0,0.0,0.0,0.0,0.0,0.0,0.0,0.0,0.0,0.0,0.0,0.0,0.0,0.0,0.0,0.0,0.0,0.0,0.0,0.0,0.0,0.0,0.0,0.0,-1.4156,-1.6103,-1.7581,-1.8317,-1.9296,-1.9394,-1.8112,-1.7145,-1.5767,0.0,0.0,0.0,0.0,0.0,0.0,0.0,0.0,0.0,0.0,0.0,0.0,0.0,0.0,0.0,0.0,0.0,0.0,0.0,0.0,0.0,0.0,0.0,0.0,0.0,0.0,0.0,0.0,0.0,0.0,0.0,0.0,0.0,0.0,0.0,0.0,0.0,0.0,0.0,0.0,0.0,0.0,0.0,0.0,0.0,0.0,0.0,0.0,0.0,0.0,0.0,0.0,0.0,0.0,0.0,0.0,0.0,0.0,0.0,0.0,0.0,0.0,0.0,0.0,0.0,0.0,0.0,0.0,0.0,0.0,0.0,0.0,0.0,0.0,0.0,0.0,0.0,0.0,0.0,0.0,0.0,0.0,0.0,0.0,0.0,0.0,0.0,0.0,0.0,0.0,0.0,0.0,0.0,0.0,0.0,0.0,0.0,0.0,0.0,0.0,0.0,0.0,0.0,-1.3934,-1.5763,-1.7284,-1.8155,-1.8977,-1.9071,-1.8081,-1.7301,-1.6081,-1.4221,0.0,0.0,0.0,0.0,0.0,0.0,0.0,0.0,0.0,0.0,0.0,0.0,0.0,0.0,0.0,0.0,0.0,0.0,0.0,0.0,0.0,0.0,0.0,0.0,0.0,0.0,0.0,0.0,0.0,0.0,0.0,0.0,0.0,0.0,0.0,0.0,0.0,0.0,0.0,0.0,0.0,0.0,0.0,0.0,0.0,0.0,0.0,0.0,0.0,0.0,0.0,0.0,0.0,0.0,0.0,0.0,0.0,0.0,0.0,0.0,0.0,0.0,0.0,0.0,0.0,0.0,0.0,0.0,0.0,0.0,0.0,0.0,0.0,0.0,0.0,0.0,0.0,0.0,0.0,0.0,0.0,0.0,0.0,0.0,0.0,0.0,0.0,0.0,0.0,0.0,0.0,0.0,0.0,0.0,0.0,0.0,0.0,0.0,0.0,0.0,0.0,0.0,-1.4092,-1.5919,-1.7352,-1.8024,-1.8817,-1.8982,-1.8208,-1.7439,-1.6314,-1.4687,0.0,0.0,0.0,0.0,0.0,0.0,0.0,0.0,0.0,0.0,0.0,0.0,0.0,0.0,0.0,0.0,0.0,0.0,0.0,0.0,0.0,0.0,0.0,0.0,0.0,0.0,0.0,0.0,0.0,0.0,0.0,0.0,0.0,0.0,0.0,0.0,0.0,0.0,0.0,0.0,0.0,0.0,0.0,0.0,0.0,0.0,0.0,0.0,0.0,0.0,0.0,0.0,0.0,0.0,0.0,0.0,0.0,0.0,0.0,0.0,0.0,0.0,0.0,0.0,0.0,0.0,0.0,0.0,0.0,0.0,0.0,0.0,0.0,0.0,0.0,0.0,0.0,0.0,0.0,0.0,0.0,0.0,0.0,0.0,0.0,0.0,0.0,0.0,0.0,0.0,0.0,0.0,0.0,0.0,0.0,0.0,0.0,0.0,0.0,0.0,0.0,0.0,-1.4542,-1.6337,-1.7592,-1.7894,-1.8751,-1.9053,-1.8455,-1.7564,-1.651,-1.5214,0.0,0.0,0.0,0.0,0.0,0.0,0.0,0.0,0.0,0.0,0.0,0.0,0.0,0.0,0.0,0.0,0.0,0.0,0.0,0.0,0.0,0.0,0.0,0.0,0.0,0.0,0.0,0.0,0.0,0.0,0.0,0.0,0.0,0.0,0.0,0.0,0.0,0.0,0.0,0.0,0.0,0.0,0.0,0.0,0.0,0.0,0.0,0.0,0.0,0.0,0.0,0.0,0.0,0.0,0.0,0.0,0.0,0.0,0.0,0.0,-1.4543,0.0,0.0,0.0,0.0,0.0,0.0,0.0,0.0,0.0,0.0,0.0,0.0,0.0,0.0,0.0,0.0,0.0,0.0,0.0,0.0,0.0,0.0,0.0,0.0,0.0,0.0,0.0,0.0,0.0,0.0,0.0,0.0,0.0,0.0,0.0,0.0,0.0,0.0,0.0,0.0,0.0,-1.4753,-1.622,-1.7407,-1.8217,-1.8799,-1.8955,-1.8445,-1.7895,-1.713,-1.6174,-1.478,0.0,0.0,0.0,0.0,0.0,0.0,0.0,0.0,0.0,0.0,0.0,0.0,0.0,0.0,0.0,0.0,0.0,0.0,0.0,0.0,0.0,0.0,0.0,0.0,0.0,0.0,0.0,0.0,0.0,0.0,0.0,0.0,0.0,0.0,0.0,0.0,0.0,0.0,0.0,0.0,0.0,0.0,0.0,0.0,0.0,0.0,0.0,0.0,0.0,0.0,0.0,0.0,0.0,0.0,0.0,0.0,0.0,0.0,0.0,0.0,-1.5661,0.0,0.0,0.0,0.0,0.0,0.0,0.0,0.0,0.0,0.0,0.0,0.0,0.0,0.0,0.0,0.0,0.0,0.0,0.0,0.0,0.0,0.0,0.0,0.0,0.0,0.0,0.0,0.0,0.0,0.0,0.0,0.0,0.0,0.0,0.0,0.0,0.0,0.0,0.0,0.0,-1.5484,-1.6634,-1.7606,-1.8309,-1.8828,-1.9005,-1.8766,-1.8299,-1.7626,-1.6658,-1.5293,0.0,0.0,0.0,0.0,0.0,0.0,0.0,0.0,0.0,0.0,0.0,0.0,0.0,0.0,0.0,0.0,0.0,0.0,0.0,0.0,0.0,0.0,0.0,0.0,0.0,0.0,0.0,0.0,0.0,0.0,0.0,0.0,0.0,0.0,0.0,0.0,0.0,0.0,0.0,0.0,0.0,0.0,0.0,0.0,0.0,0.0,0.0,0.0,0.0,0.0,0.0,0.0,0.0,-1.8661,-1.8946,-1.8868,-1.9192,-1.9213,-1.8929,-1.8028,-1.7442,-1.7124,0.0,0.0,0.0,0.0,0.0,0.0,0.0,0.0,0.0,0.0,0.0,0.0,0.0,0.0,0.0,0.0,0.0,0.0,0.0,0.0,0.0,0.0,0.0,0.0,0.0,-1.5859,-1.5478,0.0,0.0,0.0,0.0,0.0,0.0,0.0,0.0,0.0,0.0,0.0,0.0,-1.6322,-1.7284,-1.8019,-1.8486,-1.8847,-1.9031,-1.9031,-1.8585,-1.7904,-1.6931,-1.5688,-1.4479,0.0,0.0,0.0,0.0,0.0,0.0,0.0,0.0,0.0,0.0,0.0,0.0,0.0,0.0,0.0,0.0,0.0,0.0,0.0,0.0,0.0,0.0,0.0,0.0,0.0,0.0,0.0,0.0,0.0,0.0,0.0,0.0,-1.0373,-1.1246,0.0,0.0,0.0,0.0,0.0,0.0,0.0,0.0,0.0,0.0,0.0,0.0,0.0,-1.7477,-1.8213,-1.8674,-1.9227,-1.9935,-2.0041,-2.0271,-2.0589,-2.0642,-2.0616,-2.0607,-2.0448,0.0,-1.8337,-1.7864,0.0,0.0,0.0,0.0,0.0,0.0,0.0,0.0,0.0,0.0,0.0,0.0,0.0,0.0,0.0,0.0,0.0,0.0,0.0,0.0,0.0,0.0,-1.6362,-1.7395,-1.7666,-1.7607,0.0,-1.5859,-1.4439,-1.4028,-1.3684,0.0,0.0,0.0,0.0,0.0,0.0,0.0,-1.68,-1.774,-1.8507,-1.8963,-1.8911,-1.8841,-1.8841,-1.8311,-1.7716,-1.7171,-1.6256,-1.5114,-1.369,-1.3079,0.0,0.0,0.0,0.0,0.0,0.0,0.0,0.0,0.0,0.0,0.0,0.0,0.0,0.0,0.0,0.0,0.0,0.0,0.0,0.0,0.0,0.0,0.0,0.0,0.0,0.0,0.0,0.0,0.0,-1.0592,-1.1758,-1.2483,-1.3058,-1.3389,0.0,0.0,0.0,0.0,0.0,0.0,0.0,0.0,0.0,-1.7514,-1.8338,-1.9018,-1.9541,-2.0192,-2.0775,-2.1294,-2.1552,-2.1766,-2.204,-2.1765,-2.1621,-2.1518,-2.1301,-2.0815,-2.0121,-1.9316,-1.8903,-1.8682,0.0,0.0,0.0,0.0,-1.7579,-1.7616,-1.7701,-1.7698,0.0,0.0,0.0,0.0,0.0,0.0,0.0,0.0,0.0,0.0,0.0,0.0,0.0,-1.8373,-1.8553,-1.8589,-1.8695,-1.7978,-1.7005,0.0,-1.5388,-1.5038,-1.4619,0.0,0.0,0.0,0.0,0.0,-1.7388,-1.806,-1.8527,-1.8754,-1.8907,-1.8923,-1.8637,-1.8378,-1.7901,-1.7146,-1.6477,-1.5592,-1.4375,-1.346,-1.26,0.0,0.0,0.0,0.0,0.0,0.0,0.0,0.0,0.0,0.0,0.0,0.0,0.0,0.0,0.0,0.0,0.0,0.0,0.0,0.0,0.0,0.0,0.0,0.0,0.0,0.0,0.0,0.0,-1.2022,-1.3055,-1.3759,-1.4241,-1.466,0.0,0.0,0.0,0.0,0.0,0.0,-1.7389,-1.8062,-1.8731,-1.93,-1.9887,-2.0473,-2.1014,-2.162,-2.2092,-2.2495,-2.2825,-2.3014,-2.309,-2.2795,-2.2565,-2.2407,-2.2115,-2.1996,-2.1876,-2.0687,-2.0175,-2.0035,-1.9405,-1.9116,-1.9029,-1.9029,-1.9029,-1.9029,-1.907,-1.9174,-1.9182,-1.8581,0.0,-1.8311,-1.7706,0.0,0.0,0.0,0.0,-1.7267,-1.8174,-1.8489,-1.8731,-1.9402,-1.9545,-1.9621,-1.9838,-1.9701,-1.9068,0.0,-1.6929,-1.6581,-1.6147,0.0,0.0,0.0,0.0,-1.7249,-1.7953,-1.8516,-1.8813,-1.8813,-1.9013,-1.8968,-1.8638,-1.8441,-1.7969,-1.6967,-1.6612,-1.592,-1.4852,-1.3769,-1.3105,-1.2905,0.0,0.0,0.0,0.0,0.0,0.0,0.0,0.0,0.0,0.0,0.0,0.0,0.0,0.0,0.0,0.0,0.0,0.0,0.0,0.0,0.0,0.0,0.0,0.0,0.0,0.0,0.0,0.0,0.0,-1.4921,-1.5689,0.0,0.0,0.0,0.0,-1.7561,-1.8152,-1.8655,-1.9059,-1.941,-2.0121,-2.1208,-2.1324,-2.1824,-2.2937,-2.298,-2.3238,-2.3606,-2.3624,-2.3641,-2.3658,-2.3641,-2.3632,-2.3632,-2.3615,-2.3562,-2.3468,-2.1936,-2.1144,-2.0835,-2.08,-2.0552,-2.0217,-2.0217,-2.0217,-2.0226,-2.0414,-2.0314,-2.0027,-1.9989,-1.9666,-1.9228,-1.9191,-1.8907,0.0,0.0,-1.888,-1.8817,-1.9826,-2.008,-2.0264,-2.0951,-2.1097,-2.1138,-2.1336,-2.0724,-1.9841,0.0,-1.8203,-1.7783,-1.7386,0.0,-1.6953,-1.6962,-1.7775,-1.8435,-1.8442,-1.9194,-1.9725,-1.9725,-1.9258,-1.8904,-1.8874,-1.8336,-1.7646,-1.6787,-1.6677,-1.6123,-1.4834,-1.4299,-1.3665,-1.2925,-1.2383,0.0,0.0,0.0,0.0,0.0,0.0,0.0,0.0,0.0,0.0,0.0,0.0,0.0,0.0,0.0,0.0,0.0,0.0,0.0,0.0,0.0,0.0,0.0,0.0,0.0,0.0,0.0,0.0,-1.6164,-1.6744,0.0,0.0,-1.8419,-1.8714,-1.9325,-1.9814,-2.0223,-2.0591,-2.0977,-2.1602,-2.2484,-2.2509,-2.2818,-2.346,-2.3468,-2.3657,-2.4025,-2.4025,-2.4162,-2.4401,-2.4145,-2.4025,-2.4016,-2.3768,-2.3718,-2.3639,-2.3083,-2.2551,-2.1976,-2.1696,-2.1362,-2.1011,-2.1011,-2.1011,-2.1011,-2.1105,-2.1159,-2.1208,-2.1221,-2.0779,-2.0247,-2.0424,-2.0191,-1.9907,-2.0044,-1.998,-1.9943,-2.0311,-2.0384,-2.0514,-2.0862,-2.0941,-2.1024,-2.1252,-2.118,-2.087,-2.0188,-1.9401,-1.8779,-1.8633,-1.8546,-1.8473,-1.8473,-1.8773,-1.9006,-1.9006,-1.9518,-1.9775,-1.9499,-1.9295,-1.9043,-1.8723,-1.8286,-1.7646,-1.6755,-1.6697,-1.6239,-1.5234,-1.4775,-1.4277,-1.3675,-1.3008,-1.2275,0.0,0.0,0.0,0.0,0.0,0.0,0.0,0.0,0.0,0.0,0.0,0.0,0.0,0.0,0.0,0.0,0.0,0.0,0.0,0.0,0.0,0.0,0.0,0.0,0.0,0.0,-1.628,-1.7346,-1.7929,-1.8631,-1.965,-1.9864,-2.0189,-2.0823,-2.1345,-2.1739,-2.197,-2.2347,-2.2843,-2.3477,-2.3622,-2.3809,-2.4122,-2.4195,-2.4268,-2.4285,-2.4285,-2.4352,-2.4479,-2.4217,-2.4099,-2.4082,-2.3837,-2.3835,-2.3951,-2.3951,-2.3629,-2.3083,-2.2706,-2.2398,-2.2158,-2.203,-2.1987,-2.1953,-2.1696,-2.1747,-2.1974,-2.191,-2.1615,-2.132,-2.1508,-2.1359,-2.1126,-2.1126,-2.0991,-2.0891,-2.0891,-2.0891,-2.0924,-2.1087,-2.1087,-2.1182,-2.1466,-2.1471,-2.1417,-2.1234,-2.042,-1.9705,-1.9521,-1.9375,-1.9287,-1.9287,-1.9404,-1.9502,-1.9502,-1.9863,-2.0019,-1.9783,-1.959,-1.9326,-1.8851,-1.8432,-1.7818,-1.6896,-1.6711,-1.6303,-1.5575,-1.5031,-1.4621,-1.4328,-1.3525,-1.2949,-1.2632,0.0,0.0,0.0,0.0,0.0,0.0,0.0,0.0,0.0,0.0,0.0,0.0,0.0,0.0,0.0,0.0,0.0,0.0,0.0,0.0,0.0,0.0,0.0,-1.5266,-1.6214,-1.7389,-1.8511,-1.9281,-2.005,-2.0857,-2.1203,-2.1579,-2.1972,-2.2672,-2.3083,-2.31,-2.3502,-2.3879,-2.4202,-2.4595,-2.485,-2.4914,-2.5218,-2.5053,-2.4425,-2.4425,-2.4235,-2.3937,-2.3937,-2.3929,-2.3921,-2.3921,-2.4089,-2.4376,-2.4376,-2.4323,-2.4159,-2.3828,-2.3727,-2.3675,-2.3263,-2.3134,-2.3023,-2.2287,-2.2169,-2.2287,-2.1953,-2.2164,-2.2497,-2.2497,-2.2443,-2.23,-2.23,-2.2025,-2.1733,-2.1733,-2.1733,-2.1723,-2.1714,-2.1705,-2.1794,-2.2008,-2.1736,-2.1491,-2.1749,-2.1149,-2.0469,-1.9991,-1.9609,-1.9326,-1.9326,-1.9678,0.0,-1.9932,-2.0303,-2.0605,-2.0605,-2.0176,-1.9746,-1.9326,-1.8851,-1.8168,-1.7148,-1.6715,-1.6292,-1.5819,-1.5032,-1.4665,-1.4785,-1.3929,-1.35,-1.35,0.0,0.0,0.0,0.0,0.0,0.0,0.0,0.0,0.0,0.0,0.0,0.0,0.0,0.0,0.0,0.0,0.0,0.0,0.0,0.0,0.0,0.0,-1.6255,-1.6411,-1.7424,-1.8554,-1.9684,-2.0305,-2.0917,-2.1708,-2.1912,-2.2135,-2.257,-2.2786,-2.3003,-2.3207,-2.3628,-2.4003,-2.4321,-2.4744,-2.4978,-2.4953,-2.5061,-2.5003,-2.4854,-2.4854,-2.4606,-2.426,-2.426,-2.4112,-2.3921,-2.3921,-2.3977,-2.4033,-2.4033,-2.4022,-2.4008,-2.4059,-2.3905,-2.3709,-2.3606,-2.3511,-2.3443,-2.2972,-2.2851,-2.2842,-2.2704,-2.2539,-2.2408,-2.2804,-2.2718,-2.2496,-2.2692,-2.2657,-2.2574,-2.2574,-2.2574,-2.2501,-2.219,-2.2117,-2.2089,-2.1849,-2.1871,-2.1836,-2.1537,-2.1244,-2.0962,-2.067,-2.0391,-2.0253,-2.0253,-2.0351,0.0,-2.0429,-2.0527,-2.0605,-2.0605,-2.0071,-1.9531,-1.9116,-1.8565,-1.7865,-1.6959,-1.6797,-1.6408,-1.5676,-1.5449,-1.5049,-1.444,-1.3906,-1.3683,0.0,0.0,0.0,0.0,0.0,0.0,0.0,0.0,0.0,0.0,0.0,0.0,0.0,0.0,0.0,0.0,0.0,0.0,0.0,0.0,0.0,0.0,-1.6525,-1.7429,-1.775,-1.8397,-1.926,-2.0302,-2.0942,-2.152,-2.2112,-2.2471,-2.2761,-2.2984,-2.3288,-2.3552,-2.375,-2.4168,-2.4466,-2.4622,-2.5035,-2.5166,-2.4989,-2.5144,-2.5085,-2.4811,-2.4811,-2.4624,-2.4275,-2.4072,-2.3951,0.0,-2.3585,-2.3585,-2.3753,-2.3753,-2.3809,0.0,0.0,0.0,0.0,0.0,-2.3802,-2.3684,-2.3417,-2.3348,-2.3332,-2.3108,-2.2941,-2.2824,-2.3014,-2.2948,-2.2888,-2.2958,-2.296,-2.2971,-2.2902,-2.2904,-2.2849,-2.2602,-2.241,-2.2263,-2.1989,-2.1949,-2.1845,-2.1561,-2.1398,0.0,-2.0917,-2.0539,-2.0294,-2.0294,-2.0294,-2.0294,-2.0294,-2.0294,-2.0294,-2.0294,-1.9956,-1.9497,-1.8933,-1.8547,0.0,0.0,0.0,-1.6412,-1.5745,-1.582,0.0,0.0,0.0,-1.4781,-1.4849,0.0,0.0,0.0,-1.4538,-1.4842,0.0,0.0,0.0,0.0,0.0,0.0,0.0,0.0,0.0,0.0,0.0,0.0,0.0,0.0,0.0,0.0,-1.7614,-1.8663,-1.906,-1.9355,-1.9808,-2.0652,-2.1361,-2.1946,-2.2325,-2.2913,-2.3269,-2.331,-2.3925,-2.431,-2.4351,0.0,0.0,0.0,0.0,-2.5305,-2.4996,-2.5388,-2.5258,-2.4642,-2.4642,-2.4452,-2.4161,-2.38,-2.356,-2.3465,-2.3213,-2.3223,-2.3416,-2.3416,-2.3585,-2.3809,-2.3857,-2.4089,-2.4334,-2.4208,-2.3977,-2.3785,-2.3742,0.0,0.0,-2.3297,-2.3332,-2.347,-2.3129,-2.3217,-2.3379,-2.3184,-2.3125,-2.3093,-2.299,-2.2994,-2.2984,-2.2939,-2.2684,-2.2391,-2.23,-2.2007,-2.1742,-2.1705,-2.1542,-2.1265,-2.0894,-2.0354,-1.9959,-1.9912,-1.9902,-1.9902,-1.9902,-1.9902,-1.9902,-1.9902,0.0,0.0,-1.8787,-1.8674,-1.8242,-1.7288,-1.6822,-1.6369,-1.5965,-1.6079,-1.6134,-1.6134,-1.6134,-1.6185,-1.6232,-1.6279,-1.6326,-1.6387,-1.5954,-1.6019,0.0,0.0,0.0,0.0,0.0,0.0,0.0,0.0,0.0,0.0,0.0,0.0,0.0,0.0,0.0,-1.7649,-1.8722,-1.9497,-1.971,-2.0394,-2.108,-2.1444,-2.1971,-2.2392,-2.2733,-2.2942,-2.3199,-2.343,-2.3582,-2.3839,-2.4119,-2.4463,0.0,-2.4655,-2.5008,-2.513,-2.5069,-2.5133,-2.5141,-2.5008,0.0,0.0,-2.4476,-2.4412,-2.4078,-2.3481,-2.3417,-2.3276,-2.307,-2.307,-2.3135,-2.3239,-2.3689,-2.3921,-2.3968,-2.395,-2.4105,-2.4226,-2.3905,-2.3911,-2.4059,-2.3682,-2.3606,-2.3643,-2.3478,-2.3417,0.0,-2.3347,-2.3331,-2.3322,-2.3291,-2.3471,-2.3546,-2.3163,-2.3172,-2.3078,-2.2419,-2.2217,-2.2071,-2.1751,-2.1401,-2.1124,-2.105,-2.0703,-2.0339,-1.9959,-1.9902,-1.9902,-1.9902,-1.9902,-1.9902,-1.9902,-1.9754,-1.947,-1.8966,-1.848,-1.7981,-1.7484,-1.6741,-1.6318,-1.6235,-1.5937,-1.5794,-1.5794,-1.5794,-1.6016,-1.644,-1.6809,-1.7239,-1.7644,-1.7077,-1.7044,0.0,0.0,0.0,0.0,0.0,0.0,0.0,0.0,0.0,0.0,0.0,-1.6137,0.0,0.0,-1.8301,-1.8707,-1.9598,-2.0342,-2.0369,-2.1099,-2.1631,-2.1558,-2.2073,-2.2525,-2.2686,-2.2863,-2.3165,-2.3457,-2.3705,-2.3951,-2.436,-2.465,-2.4841,-2.4841,-2.5016,-2.5111,-2.5111,-2.5111,-2.5111,-2.5111,-2.5111,-2.5016,-2.4841,-2.4658,-2.4388,-2.4047,-2.3639,-2.3385,-2.3268,-2.3093,-2.3014,-2.3014,-2.3352,-2.3528,-2.3697,-2.3857,-2.4033,-2.4119,-2.3928,-2.3916,-2.4023,-2.3807,-2.3733,-2.3719,-2.3625,-2.3617,-2.3583,-2.35,-2.3437,-2.3443,-2.34,-2.3497,-2.3552,-2.3305,-2.3304,-2.3187,-2.2788,-2.2472,-2.2217,-2.2025,-2.1659,-2.1355,-2.1145,-2.0948,-2.0643,-1.9997,-1.9718,-1.9578,-1.9578,-1.9578,-1.9578,-1.9578,-1.9508,-1.9303,-1.8896,-1.8193,-1.7688,-1.737,-1.6797,-1.6401,-1.6298,-1.61,-1.6159,-1.6426,-1.646,-1.6729,-1.7307,-1.7555,-1.7785,-1.8053,-1.8063,-1.8102,0.0,0.0,0.0,0.0,0.0,0.0,0.0,0.0,-1.5864,-1.6484,-1.6953,-1.7421,-1.7977,-1.8653,-1.9248,-1.9614,-2.0432,-2.1044,-2.1115,-2.1663,-2.1957,-2.1634,-2.2148,-2.2513,-2.2585,-2.2847,-2.3189,-2.361,-2.3896,-2.4297,-2.4658,-2.4952,-2.5111,-2.5111,-2.5111,-2.5111,-2.5111,-2.5111,-2.5111,-2.5111,-2.5111,-2.5111,-2.5103,-2.4817,-2.4642,-2.4539,-2.3848,-2.3488,-2.3457,-2.3165,-2.3014,-2.3014,-2.3014,-2.3183,-2.3416,-2.3641,-2.3753,-2.3809,-2.3809,-2.3865,-2.3871,-2.385,-2.3804,-2.3783,-2.3646,-2.3642,-2.3672,-2.3488,-2.3479,-2.3496,-2.3358,-2.3362,-2.3394,-2.3323,-2.3256,-2.3143,-2.3023,-2.2693,-2.2335,-2.2171,-2.1889,-2.1544,-2.1169,-2.1032,-2.0714,-2.0012,-1.96,-1.9353,-1.928,-1.9222,-1.9231,-1.9183,-1.9192,-1.9028,-1.8627,-1.7998,-1.7515,-1.727,-1.6956,-1.6705,-1.6537,-1.6537,-1.6759,-1.7261,-1.727,-1.7541,-1.8088,-1.8088,-1.8162,-1.8291,-1.8784,-1.8919,-1.4156,-1.4138,0.0,-1.5029,-1.5346,-1.5672,0.0,0.0,-1.7588,-1.7985,-1.8605,-1.9098,-1.9232,-1.9757,-2.0337,-2.0694,-2.1056,-2.1497,-2.1852,-2.218,-2.2418,-2.237,-2.2434,-2.2609,-2.2927,-2.299,-2.3292,-2.4002,-2.409,-2.44,-2.5016,-2.5087,-2.5111,-2.5111,-2.5111,-2.5111,-2.5111,-2.5111,-2.5111,-2.5111,-2.5111,-2.5111,-2.5111,-2.5071,-2.4881,-2.4539,-2.3848,-2.3488,-2.3457,-2.3165,-2.3014,-2.3014,-2.3014,-2.3014,-2.307,-2.307,-2.3304,-2.3528,-2.3528,-2.3697,-2.3913,-2.3871,-2.3911,-2.3844,-2.3464,-2.3574,-2.3724,-2.3353,-2.3455,-2.3572,-2.3255,-2.3306,-2.3424,-2.3134,-2.3211,-2.3237,-2.2832,-2.2691,-2.2473,-2.1826,-2.1657,-2.1496,-2.1087,-2.0695,-2.0336,-1.9971,-1.9847,-1.9651,-1.9078,-1.9042,-1.8962,-1.8772,-1.878,-1.8611,-1.8202,-1.8086,-1.7852,-1.7477,-1.7415,-1.7388,-1.7351,-1.7351,-1.7415,-1.7459,-1.7459,-1.7683,-1.8104,-1.8104,-1.8369,-1.8906,-1.8951,-1.8987,-1.5304,0.0,0.0,0.0,-1.6876,-1.7177,-1.8057,-1.8494,-1.8842,-1.9137,-1.9614,-1.9963,-1.9963,-2.0369,-2.0699,0.0,-2.1123,-2.147,-2.1457,-2.1946,-2.2288,-2.2288,-2.2464,-2.2687,-2.2942,-2.3014,-2.3308,-2.4058,-2.4114,-2.4416,-2.5071,-2.4919,-2.4795,-2.4795,-2.461,-2.4548,-2.4548,-2.4548,-2.4548,-2.4548,-2.4548,-2.4548,-2.4548,-2.4548,-2.4354,-2.4012,-2.3665,-2.3441,-2.3239,-2.289,-2.2751,-2.2728,-2.2534,-2.2505,-2.2505,-2.2845,-2.307,-2.3191,-2.3191,-2.3296,-2.3408,-2.3585,-2.3641,-2.3664,-2.3675,-2.3737,-2.3773,-2.3353,-2.3345,-2.3423,-2.3229,-2.308,-2.3023,-2.3065,-2.3112,-2.3103,-2.2936,-2.2774,-2.2545,-2.2043,-2.1751,-2.1467,-2.1068,-2.0864,-2.0615,-2.0245,-1.9802,-1.9322,-1.8865,-1.8812,-1.8772,-1.87,-1.87,-1.863,-1.8461,-1.8231,-1.7988,-1.7684,-1.7456,-1.7287,-1.7145,-1.7145,-1.7325,-1.7667,-1.7675,-1.7937,-1.8443,-1.8443,-1.8572,-1.8812,-1.8962,-1.8982,-1.623,0.0,0.0,-1.7826,-1.8136,-1.8462,-1.9344,-1.9557,-1.9652,-1.9886,-2.0153,-2.0334,-2.0334,-2.0538,-2.064,-2.0535,-2.0908,-2.1233,-2.1262,-2.1658,-2.2009,-2.2101,-2.2286,-2.2513,-2.2732,-2.2853,-2.3194,-2.3889,-2.3878,-2.4118,-2.4818,-2.461,-2.4487,-2.4487,-2.4232,-2.4108,-2.4108,-2.4108,-2.4108,-2.4108,-2.4108,-2.4108,-2.4108,-2.4108,-2.397,-2.3734,-2.3642,-2.3474,-2.323,-2.2902,-2.2757,-2.2726,-2.2391,-2.2253,-2.2295,-2.2601,-2.2732,-2.2732,-2.2853,-2.2909,-2.2958,-2.3247,-2.336,-2.3416,-2.3576,-2.3689,-2.3751,-2.3425,-2.3398,-2.3426,-2.3286,-2.2973,-2.2768,-2.2884,-2.2766,-2.2644,-2.2745,-2.262,-2.2463,-2.2224,-2.1837,-2.1395,-2.1054,-2.0896,-2.0694,-2.0272,-1.9555,-1.8996,-1.8783,-1.8602,-1.8491,-1.8491,-1.8491,-1.8491,-1.8451,-1.814,-1.7896,-1.7716,-1.7411,-1.7179,-1.7034,-1.7034,-1.7277,-1.7747,-1.7756,-1.8013,-1.8491,-1.8491,-1.8531,-1.8612,-1.8763,-1.8882,0.0,0.0,-1.7942,-1.8613,-1.9058,-1.9463,-1.9862,-1.9969,-2.0012,-2.0089,-2.0115,-2.0115,-2.0115,-2.0122,-2.0245,-2.0574,-2.059,-2.0834,-2.1498,-2.1605,-2.1742,-2.2078,-2.2116,-2.2116,0.0,-2.24,-2.2915,-2.3551,-2.3286,-2.345,-2.407,-2.4108,-2.4108,-2.4108,-2.4108,-2.4108,-2.4108,-2.4108,-2.4108,-2.4108,-2.4108,-2.4108,-2.4108,-2.4108,-2.41,-2.4077,-2.3741,-2.3596,-2.3566,-2.3245,-2.3049,-2.3078,-2.2742,-2.2604,-2.2566,-2.2238,-2.2116,-2.2173,-2.2513,-2.2626,-2.2683,-2.2909,-2.3014,-2.3014,-2.3014,-2.3247,-2.3528,-2.3512,-2.368,-2.3813,-2.3379,-2.3062,-2.2707,-2.2421,-2.1998,-2.1827,-2.208,-2.2114,-2.2105,-2.1998,-2.1662,-2.1276,-2.0972,-2.0586,-2.0163,-1.9795,-1.9193,-1.8854,-1.8889,-1.8385,-1.804,-1.804,-1.804,-1.7951,-1.774,-1.7732,-1.7651,-1.7416,-1.7408,-1.7399,-1.7399,-1.7359,-1.748,-1.7683,-1.7683,-1.7813,-1.804,-1.804,-1.8152,-1.8402,-1.8442,-1.8643,-1.7642,0.0,-1.8434,-1.9393,-1.9772,-1.9973,-2.031,-2.041,-2.0266,-1.9834,-1.9765,-1.9697,-1.9475,-1.943,-1.9486,-1.9668,-1.9858,-2.0106,-2.0342,-2.0725,-2.1037,-2.1156,-2.1583,0.0,0.0,0.0,0.0,-2.3196,-2.3167,-2.339,-2.407,-2.3922,-2.3798,-2.3798,-2.3549,-2.3425,-2.3425,-2.3425,-2.3425,-2.3425,-2.3425,-2.3425,-2.3425,-2.3425,-2.3425,-2.3417,-2.3306,-2.3254,-2.3232,-2.2905,-2.2772,-2.2742,-2.2431,-2.2312,-2.2297,-2.2186,-2.2149,-2.223,-2.247,-2.2479,-2.2317,-2.2605,-2.2757,-2.274,-2.274,-2.2965,-2.3183,-2.3183,-2.3239,-2.3328,-2.343,-2.3013,-2.2531,-2.2613,-2.2163,-2.1725,-2.1827,-2.1818,-2.1769,-2.1528,-2.1152,-2.0824,-2.0448,-2.0088,-1.9683,-1.9307,-1.8817,-1.833,-1.7952,-1.7711,-1.7595,-1.7595,-1.7595,-1.7554,-1.7505,-1.7505,-1.7473,-1.7392,-1.7392,-1.7392,-1.7392,-1.7392,-1.7432,-1.7505,-1.7505,-1.7587,-1.7781,-1.7781,-1.791,-1.8161,-1.8322,-1.8474,-1.8141,-1.8635,-1.9172,-1.9895,-2.02,-2.0286,-2.0438,-2.0249,-1.9954,-1.9436,-1.9107,-1.8874,-1.8664,-1.8626,-1.8637,-1.8699,-1.9057,-1.9413,-1.9595,-2.0142,-2.0596,-2.0713,-2.1183,0.0,0.0,0.0,0.0,-2.2848,-2.2818,-2.3037,-2.3698,-2.3542,-2.3417,-2.3417,-2.3238,-2.3106,-2.3106,-2.3106,-2.3106,-2.3106,-2.3106,-2.3106,-2.3106,-2.3106,-2.3106,-2.3106,-2.3106,-2.3106,-2.3091,-2.2879,-2.2798,-2.2762,-2.2462,-2.2337,-2.233,-2.2228,-2.2184,-2.2214,-2.2526,-2.2483,-2.2339,-2.2676,-2.269,-2.2585,-2.2585,-2.2663,-2.2675,-2.2675,-2.2732,-2.2909,-2.3135,-2.2726,-2.2296,-2.2486,-2.1941,-2.142,-2.1522,-2.1573,-2.1507,-2.1386,-2.1106,-2.0743,-2.0363,-1.9909,-1.9464,-1.895,-1.8523,-1.8087,-1.7639,-1.7474,-1.7392,-1.7392,-1.7392,-1.7351,-1.731,-1.731,-1.727,-1.7147,-1.7147,-1.7147,-1.7147,-1.7147,-1.7188,-1.731,-1.731,-1.7383,-1.7578,-1.7659,-1.7781,-1.791,-1.8152,-1.8322,-1.8062,-1.9075,-2.008,-2.0126,-2.0354,-2.0507,-2.0234,-1.9665,-1.907,-1.8774,-1.8196,-1.7735,0.0,0.0,-1.7728,-1.7757,-1.8299,-1.884,-1.9199,-1.9806,-2.0278,0.0,0.0,0.0,0.0,0.0,0.0,-2.2528,0.0,-2.2469,-2.3076,-2.3106,-2.3106,-2.3043,-2.3043,-2.3043,-2.3043,-2.3043,-2.3043,-2.3043,-2.3043,-2.3043,-2.3043,-2.3043,-2.3043,-2.3043,-2.3043,-2.3043,-2.3043,-2.3043,-2.3043,-2.3014,-2.2708,-2.2583,-2.2554,-2.2277,-2.2168,-2.2228,-2.252,-2.2617,-2.2655,-2.2968,-2.2851,-2.2561,-2.2561,-2.2326,-2.2116,-2.2116,-2.2343,-2.257,-2.257,-2.2285,-2.1981,-2.1965,-2.1388,-2.0941,-2.1173,-2.1224,-2.1318,-2.1573,-2.1336,-2.0974,-2.0653,-2.0003,-1.9327,-1.8766,-1.8386,-1.8099,-1.791,-1.7582,-1.7351,-1.7351,-1.7351,-1.731,-1.7098,-1.7098,-1.6976,-1.673,-1.6689,-1.6689,-1.6689,-1.6689,-1.6812,-1.7049,-1.7098,-1.718,-1.7392,-1.7587,-1.7651,-1.77,-1.787,-1.8121,-1.8945,-1.9462,-1.9852,-2.0389,-2.0394,-2.021,-1.9974,-1.9354,-1.8677,-1.7852,-1.7186,-1.6667,0.0,0.0,0.0,-1.7071,-1.7435,0.0,-1.8796,-1.9469,0.0,-2.0263,0.0,-2.1306,-2.1547,-2.165,0.0,0.0,-2.2566,-2.2681,-2.3091,-2.3106,-2.2988,-2.2738,-2.2738,-2.2613,-2.2362,-2.2362,-2.2362,-2.2362,-2.2362,-2.2362,-2.2362,-2.2362,-2.2362,-2.2362,-2.2362,-2.2362,-2.2362,-2.2362,-2.2362,-2.2355,-2.227,-2.2242,-2.2228,-2.2157,-2.2128,-2.2191,-2.25,-2.2442,-2.2333,-2.2614,-2.2491,-2.2212,-2.2212,-2.2153,-2.2116,-2.2116,-2.2173,-2.223,-2.223,-2.1963,-2.1626,-2.1372,-2.0986,-2.0653,-2.0449,-2.0388,-2.0439,-2.049,-2.0023,-1.9517,-1.9166,-1.8793,-1.8434,-1.8303,-1.7774,-1.74,-1.7445,-1.7127,-1.6894,-1.6894,-1.6894,-1.6861,-1.6812,-1.6812,-1.6771,-1.6689,-1.6689,-1.6689,-1.6689,-1.6689,-1.673,-1.6812,-1.6812,-1.6935,-1.718,-1.7221,-1.7343,-1.7473,-1.7668,-1.7821,-1.9324,-1.9783,-2.0158,-2.0406,-2.0314,-2.0113,-1.9652,-1.8935,-1.8123,-1.7296,-1.6389,0.0,0.0,0.0,0.0,0.0,0.0,0.0,-1.805,-1.8788,-1.9398,0.0,-2.0285,0.0,-2.1225,-2.1398,-2.1678,0.0,-2.2317,-2.2516,-2.2841,-2.2731,-2.2543,-2.2362,-2.2362,-2.2292,-2.2111,-2.2111,-2.2111,-2.2111,-2.2111,-2.2111,-2.2111,-2.2111,-2.2111,-2.2111,0.0,-2.2111,-2.2111,-2.2111,-2.2111,-2.2111,-2.2111,-2.2111,-2.2111,-2.2111,-2.2111,-2.2111,-2.2292,-2.226,-2.2249,-2.2661,-2.2559,-2.2312,-2.2179,-2.203,-2.1905,-2.1755,-2.1831,-2.1945,-2.1945,-2.1752,-2.1521,-2.1177,-2.0841,-2.0498,-2.0155,-2.0078,-2.0078,-2.0078,-1.9552,-1.904,-1.885,-1.8415,-1.8087,-1.8087,-1.7552,-1.7134,-1.7216,-1.6763,-1.6451,-1.6451,-1.6451,-1.6451,-1.6451,-1.6451,-1.6451,-1.6451,-1.6451,-1.6451,-1.6451,-1.6525,-1.6566,-1.6566,-1.6648,-1.6771,-1.6935,-1.7057,-1.718,-1.7261,-1.7465,-1.7587,-1.9277,-1.9939,-2.0487,-2.0204,-2.0073,-1.9881,-1.9197,-1.8258,-1.7334,-1.6695,0.0,-1.4616,-1.4572,0.0,-1.4459,-1.5056,0.0,-1.6504,-1.7127,-1.788,-1.8608,-1.9268,-1.9598,-2.006,-2.0718,-2.1033,-2.1334,-2.1615,-2.189,-2.2196,-2.2529,-2.2237,-2.2111,-2.2048,-2.1985,-2.1985,-2.1985,-2.1985,-2.1985,-2.1985,-2.1985,-2.1985,-2.1985,-2.1985,-2.1985,-2.1985,0.0,0.0,-2.1985,-2.1985,-2.1985,-2.1985,-2.1985,-2.1985,-2.1985,-2.1985,-2.1985,-2.1985,-2.2048,-2.2048,-2.2111,-2.2731,-2.2762,-2.245,-2.2195,-2.1867,-2.1518,-2.1234,-2.1354,-2.1546,-2.1546,-2.1557,-2.1478,-2.1137,-2.0795,-2.0461,-2.0119,-2.0013,-1.9983,-1.9983,-1.9489,-1.9056,-1.9011,-1.8472,-1.8039,-1.8001,-1.7417,-1.7028,-1.7028,-1.6499,-1.6087,-1.6087,-1.6087,-1.6087,-1.6087,-1.6087,-1.6087,-1.6087,-1.6087,-1.6087,-1.6087,-1.6286,-1.636,-1.636,-1.6566,-1.6648,-1.6648,-1.6935,-1.7057,-1.7049,-1.727,-1.7351,-1.9276,-1.9659,-1.9963,-1.9906,-1.9511,-1.8904,-1.8072,-1.6947,0.0,0.0,0.0,-1.3179,-1.2954,-1.3075,0.0,-1.3659,0.0,0.0,0.0,0.0,-1.8046,0.0,0.0,0.0,0.0,0.0,0.0,0.0,0.0,0.0,-2.2167,-2.2111,-2.1985,-2.167,-2.1418,-2.1299,-2.1299,-2.1299,-2.1299,-2.1299,-2.1299,-2.1299,-2.1299,-2.1299,-2.1299,-2.1299,-2.1299,0.0,-2.1299,-2.1299,-2.1299,-2.1299,-2.1299,-2.1299,-2.1299,-2.1299,-2.1299,-2.1292,-2.1607,-2.167,-2.1734,-2.2174,-2.2025,-2.1758,-2.1709,-2.1293,-2.0836,-2.0779,-2.0808,-2.0895,-2.0895,-2.1095,-2.1156,-2.0825,-2.0494,-2.017,-1.9907,-1.9619,-1.9428,-1.9428,-1.9118,-1.8771,-1.8498,-1.813,-1.7783,-1.7463,-1.692,-1.65,-1.65,-1.6287,-1.6087,-1.6087,-1.6087,-1.6087,-1.6087,-1.6087,-1.6087,-1.6087,-1.6087,-1.6087,-1.6087,-1.6128,-1.617,-1.617,-1.636,-1.6435,-1.6435,-1.6689,-1.6779,-1.6771,-1.7017,-1.7139,-1.9043,-1.9332,-1.9535,-1.9374,-1.8989,-1.8461,-1.7534,0.0,0.0,0.0,-1.3217,-1.2375,-1.2263,0.0,0.0,0.0,0.0,0.0,0.0,0.0,0.0,0.0,0.0,0.0,0.0,0.0,0.0,0.0,0.0,0.0,-2.1796,-2.167,-2.1488,-2.1355,-2.0982,-2.0856,-2.0856,-2.0672,-2.0609,-2.0609,-2.0609,-2.0609,-2.0609,-2.0609,-2.0609,-2.0609,-2.0609,0.0,-2.0609,-2.0609,-2.0609,-2.0609,-2.0609,-2.0609,-2.0609,-2.0609,-2.0672,-2.0856,-2.1046,-2.1172,-2.1355,-2.1544,-2.1693,-2.1859,-2.1629,-2.1327,-2.0935,-2.0774,-2.0618,-2.0493,-2.0493,-2.0615,-2.0659,-2.0287,-1.9893,-1.9506,-1.9356,-1.9069,-1.8848,-1.8848,-1.8597,-1.8275,-1.7953,-1.7589,-1.7268,-1.6961,-1.6557,-1.6199,-1.6034,-1.5785,-1.5648,-1.5737,-1.5722,-1.5722,-1.5722,-1.5722,-1.5722,-1.5722,-1.5722,-1.5722,-1.5722,-1.5831,-1.5906,-1.5906,-1.6113,-1.6237,-1.6237,-1.6327,-1.6451,-1.6566,-1.683,-1.7084,-1.8543,-1.8855,-1.9015,-1.8702,-1.8348,-1.7872,-1.6884,-1.5896,0.0,0.0,-1.2527,-1.1666,-1.1596,0.0,0.0,0.0,0.0,0.0,0.0,0.0,0.0,0.0,0.0,0.0,0.0,0.0,0.0,0.0,0.0,0.0,-2.1355,-2.1106,-2.0948,-2.0948,-2.07,-2.0572,-2.0572,-2.0259,-2.0106,-2.0106,-2.0106,-2.0106,-2.0106,-2.0106,-2.0106,-2.0106,-2.0106,0.0,0.0,-2.0106,-2.0106,-2.0106,-2.0106,-2.0106,-2.0106,-2.0106,-2.0297,-2.0482,-2.0482,-2.0672,-2.0862,-2.0862,-2.1355,-2.1818,-2.1569,-2.1244,-2.0958,-2.0655,-2.0382,-2.0213,-2.0213,-2.027,-2.0193,-1.9878,-1.9388,-1.8968,-1.8905,-1.8646,-1.8422,-1.8422,-1.8226,-1.7946,-1.7568,-1.7302,-1.7015,-1.6644,-1.6323,-1.6036,-1.5798,-1.5434,-1.524,-1.5345,-1.53,-1.5257,-1.5257,-1.5257,-1.5257,-1.5257,-1.5257,-1.5257,-1.5257,-1.5458,-1.5567,-1.5567,-1.5873,-1.5997,-1.5997,-1.6087,-1.62,-1.6436,-1.6707,-1.7005,-1.7706,-1.7903,-1.8063,-1.7808,-1.7304,-1.6585,-1.5436,0.0,0.0,-1.2257,-1.1371,-1.0656,-1.0318,-1.0477,0.0,0.0,0.0,0.0,0.0,0.0,0.0,0.0,0.0,0.0,0.0,0.0,0.0,0.0,0.0,0.0,0.0,-2.0599,-2.0546,-2.0546,-2.0546,-2.0481,-2.0481,-2.0234,-2.0106,-2.0106,-2.0106,-2.0106,-2.0106,-2.0106,-2.0106,-2.0106,-2.0106,0.0,0.0,-2.0106,-2.0106,-2.0106,-2.0106,-2.0106,-2.0106,-2.0106,-2.0106,-2.017,-2.017,-2.017,-2.017,-2.017,-2.0672,-2.1166,-2.1139,-2.0737,-2.0288,-2.0254,-2.0023,-1.9873,-1.9873,-2.004,-2.0193,-1.9878,-1.9549,-1.9289,-1.8947,-1.8646,-1.8422,-1.8422,-1.8401,-1.8191,-1.7603,-1.7477,-1.726,-1.6672,-1.6323,-1.6106,-1.6085,-1.5567,-1.5189,-1.5204,-1.4951,-1.4776,-1.4776,-1.4776,-1.4776,-1.4776,-1.4776,-1.4776,-1.4776,-1.5041,-1.5173,-1.5173,-1.5533,-1.5733,-1.5733,-1.5997,-1.6289,-1.6587,-1.6626,-1.688,-1.6325,-1.6612,-1.671,-1.6475,-1.619,-1.5728,-1.4744,0.0,0.0,-1.1824,-1.0902,-1.02,-0.9913,-0.9864,-0.9995,0.0,0.0,0.0,0.0,0.0,0.0,0.0,0.0,0.0,0.0,0.0,0.0,0.0,0.0,0.0,0.0,-2.0303,-2.052,-2.052,-2.0331,-2.0201,-2.0201,-1.9726,-1.9398,-1.9212,-1.9212,-1.9078,-1.881,-1.881,-1.881,-1.888,-1.9078,0.0,0.0,-1.9398,-1.9526,-1.9526,-1.9526,-1.9526,-1.9526,-1.9526,-1.9654,-1.9775,-1.9775,-1.9909,-2.0106,-2.0106,-2.0297,-2.0449,-2.0331,-1.9999,-1.9648,-1.9473,-1.9194,-1.8939,-1.8939,-1.9055,-1.9145,-1.8968,-1.8774,-1.849,-1.8198,-1.7846,-1.7589,-1.7397,-1.7364,-1.7232,-1.6836,-1.6619,-1.6474,-1.6214,-1.594,-1.5725,-1.5688,-1.5456,-1.5171,-1.481,-1.471,-1.4692,-1.4692,-1.4692,-1.4692,-1.4692,-1.4692,-1.4692,-1.4692,-1.4783,-1.4866,-1.4866,-1.5026,-1.52,-1.5333,-1.5656,-1.5995,-1.6377,-1.6784,-1.7166,-1.5146,-1.5428,-1.5594,-1.5396,-1.5164,-1.48,0.0,0.0,-1.2311,-1.1225,-1.0376,-0.9745,-0.9484,-0.9388,-0.9489,-0.992,0.0,-1.1439,0.0,0.0,0.0,0.0,0.0,0.0,0.0,0.0,0.0,0.0,0.0,0.0,0.0,-1.9579,-1.9927,-2.0064,-1.9738,-1.9542,-1.9542,-1.9011,-1.8688,-1.8437,-1.8437,-1.8302,-1.7969,-1.7969,-1.7969,-1.8039,0.0,0.0,0.0,-1.8688,-1.8752,-1.8752,-1.8752,-1.8752,-1.8752,-1.8752,-1.9008,-1.9264,-1.9194,-1.9392,-1.966,-1.9526,-1.9407,-1.9353,-1.9075,-1.9161,-1.9258,-1.8984,-1.8637,-1.8421,-1.8421,-1.8421,-1.8421,-1.8421,-1.8211,-1.7932,-1.7652,-1.7317,-1.7032,-1.6734,-1.6677,-1.6588,-1.6367,-1.6088,-1.5864,-1.5793,-1.5544,-1.538,-1.5318,-1.5219,-1.5009,-1.4556,-1.4553,-1.4511,-1.4419,-1.4363,-1.4321,-1.4321,-1.4356,-1.4405,-1.4405,-1.4524,-1.4608,-1.4608,-1.465,-1.4783,-1.4999,-1.5319,-1.5691,-1.6088,-1.6698,-1.7228,-1.4257,-1.4493,-1.4703,-1.4697,-1.4327,-1.3694,0.0,0.0,-1.1106,-1.027,-0.9632,-0.9118,-0.8867,-0.9039,-0.9195,-0.9201,-1.0149,0.0,0.0,0.0,0.0,0.0,0.0,0.0,0.0,0.0,0.0,0.0,0.0,0.0,0.0,-1.8273,-1.8607,-1.9018,-1.8613,-1.8405,-1.8405,-1.8159,-1.8033,-1.8033,-1.8033,-1.7969,-1.7969,-1.7969,-1.7969,0.0,0.0,0.0,0.0,-1.8033,-1.8033,-1.8033,-1.8033,-1.8033,-1.8033,-1.8033,-1.8302,-1.8571,-1.8168,-1.8302,-1.8571,-1.8168,-1.7873,-1.7697,-1.7382,-1.822,-1.9258,-1.8984,-1.8637,-1.8421,-1.8421,-1.8421,-1.8421,-1.8421,-1.8211,-1.7932,-1.7652,-1.7317,-1.7032,-1.6734,-1.6677,-1.6588,-1.6367,-1.6088,-1.5814,-1.5534,-1.5261,-1.5083,-1.5083,-1.4788,-1.461,-1.4604,-1.4357,-1.4053,-1.374,-1.3525,-1.3392,-1.3392,-1.361,-1.3695,-1.3695,-1.4146,-1.4398,-1.4398,-1.4608,-1.4692,-1.4692,-1.5049,-1.5364,-1.5716,-1.6259,-1.6948,-1.2652,-1.2997,-1.3299,-1.3114,-1.2939,-1.2632,-1.194,0.0,-1.0812,-0.9983,-0.9498,-0.9106,-0.886,-0.8953,-0.918,-0.9537,-1.0106,0.0,0.0,0.0,0.0,0.0,0.0,0.0,0.0,0.0,0.0,0.0,0.0,0.0,0.0,-1.7855,-1.8049,-1.8559,-1.8482,-1.841,-1.8422,-1.81,-1.791,-1.7658,-1.7658,-1.7523,-1.733,-1.733,0.0,0.0,0.0,0.0,0.0,-1.791,-1.7969,-1.7969,-1.7969,-1.7969,-1.7969,-1.7969,-1.8103,-1.8168,-1.8033,-1.8103,-1.8145,-1.7909,-1.7736,-1.7594,-1.7165,-1.7459,-1.801,-1.7921,-1.7839,-1.7778,-1.7778,-1.7778,-1.7778,-1.7778,-1.7711,-1.7575,-1.7312,-1.7042,-1.671,-1.6217,-1.6024,-1.5767,-1.5465,-1.5182,-1.5076,-1.5224,-1.5004,-1.4911,-1.506,-1.5007,-1.4779,-1.435,-1.4112,-1.3932,-1.3766,-1.3721,-1.3595,-1.3404,-1.3483,-1.3483,-1.3483,-1.3646,-1.373,-1.373,-1.3899,-1.4117,-1.4292,-1.4955,-1.5642,-1.6302,-1.6493,-1.6685,0.0,-1.1781,-1.2065,-1.1902,-1.1784,0.0,0.0,0.0,-1.0292,-0.95,-0.9232,-0.9063,-0.8689,-0.8839,-0.915,-0.9527,-1.0,0.0,0.0,0.0,0.0,0.0,0.0,0.0,0.0,0.0,0.0,0.0,0.0,0.0,0.0,0.0,-1.7082,-1.7495,-1.7751,-1.7876,-1.7887,-1.7731,-1.7523,-1.7335,-1.7335,-1.7201,-1.7001,-1.7001,0.0,0.0,0.0,0.0,0.0,-1.7335,-1.7459,-1.7459,-1.7459,-1.7523,-1.7647,-1.7647,-1.7717,-1.7781,-1.7647,-1.7717,-1.7742,-1.7437,-1.7229,-1.6999,-1.6716,-1.6837,-1.7041,-1.7115,-1.7126,-1.7126,-1.7126,-1.7126,-1.7126,-1.7126,-1.7126,-1.7055,-1.6801,-1.6541,-1.6219,-1.58,-1.5489,-1.5261,-1.5041,-1.4777,-1.4671,-1.4871,-1.4642,-1.4451,-1.4625,-1.4569,-1.4339,-1.398,-1.382,-1.3695,-1.3525,-1.3351,-1.3212,-1.3046,-1.3107,-1.3137,-1.3137,-1.3307,-1.3398,-1.3398,-1.3525,-1.3704,-1.3985,-1.4779,-1.5581,-1.6298,-1.64,-1.6494,0.0,-1.0761,0.0,0.0,0.0,0.0,0.0,0.0,0.0,-0.8861,-0.8896,-0.892,-0.8406,-0.8753,-0.9128,-0.9233,-0.9904,0.0,0.0,0.0,0.0,0.0,0.0,0.0,0.0,0.0,0.0,0.0,0.0,0.0,0.0,0.0,-1.5974,-1.5974,-1.6618,-1.6936,-1.6936,-1.6936,-1.6936,-1.6936,-1.6936,-1.6936,-1.6936,-1.6936,0.0,0.0,0.0,0.0,0.0,-1.6434,-1.6434,-1.6434,-1.6434,-1.6623,-1.6936,-1.6936,-1.7136,-1.7335,-1.7071,-1.7136,-1.7297,-1.6785,-1.625,-1.5881,-1.5969,-1.6194,-1.6478,-1.6478,-1.6478,-1.6478,-1.6478,-1.6478,-1.6478,-1.6478,-1.6478,-1.6416,-1.6188,-1.5989,-1.5732,-1.5426,-1.5181,-1.5005,-1.4934,-1.4741,-1.4582,-1.4565,-1.4214,-1.3901,-1.3916,-1.3662,-1.3514,-1.3491,-1.3491,-1.3341,-1.3097,-1.2689,-1.2454,-1.2437,-1.2583,-1.2692,-1.2692,-1.3064,-1.3307,-1.3307,-1.3374,-1.357,-1.3868,-1.4618,-1.5258,-1.5784,-1.6028,-1.6265,-0.8711,0.0,-0.9863,-0.9863,-0.9782,-0.9724,0.0,0.0,0.0,0.0,0.0,0.0,0.0,-0.8813,-0.9202,0.0,0.0,0.0,0.0,0.0,0.0,0.0,0.0,0.0,0.0,0.0,0.0,0.0,0.0,0.0,0.0,0.0,-1.5974,-1.5974,-1.6164,-1.6229,-1.6229,-1.6229,-1.6229,-1.6229,-1.6229,-1.6229,-1.6229,-1.6229,0.0,0.0,0.0,0.0,-1.6104,-1.6104,-1.6104,-1.6104,-1.6104,-1.6169,-1.6229,-1.6229,-1.6294,-1.6364,-1.6229,-1.6294,-1.6296,-1.5761,-1.533,-1.4955,-1.4968,-1.5547,-1.6253,-1.6419,-1.6478,-1.6478,-1.6478,-1.6478,-1.6478,-1.6478,-1.6478,-1.6461,-1.6404,-1.6194,-1.5886,-1.5474,-1.5177,-1.4893,-1.444,-1.4358,-1.4307,-1.4273,-1.4197,-1.4088,-1.3912,-1.3859,-1.3652,-1.3217,-1.3195,-1.3125,-1.2871,-1.2922,-1.2842,-1.2655,-1.2543,-1.2449,-1.2449,-1.24,-1.2418,-1.2619,-1.3207,-1.378,-1.4414,-1.4593,-1.4897,-1.5274,-1.5322,-1.5369,-0.7711,-0.8323,-0.8966,-0.9092,-0.9121,-0.9118,-0.9336,0.0,0.0,0.0,0.0,0.0,0.0,0.0,0.0,0.0,0.0,0.0,0.0,0.0,0.0,0.0,0.0,0.0,0.0,0.0,0.0,0.0,0.0,0.0,0.0,0.0,-1.5448,-1.5253,-1.5253,-1.5513,-1.5974,-1.5974,-1.5974,-1.5974,-1.5974,-1.5974,-1.5974,-1.5974,-1.5974,0.0,0.0,0.0,-1.5784,-1.5784,-1.5784,-1.5784,-1.5784,-1.5844,-1.5974,-1.5974,-1.5974,-1.5974,-1.5974,-1.5837,-1.5605,-1.5261,-1.4928,-1.4595,-1.4595,-1.4953,-1.5429,-1.5596,-1.5655,-1.5655,-1.5655,-1.5655,-1.5655,-1.5655,-1.5655,-1.5655,-1.5655,-1.5466,-1.5171,-1.4826,-1.4535,-1.424,-1.3849,-1.3807,-1.3766,-1.3795,-1.3731,-1.3624,-1.3515,-1.3299,-1.3066,-1.2745,-1.2628,-1.2565,-1.2419,-1.2539,-1.26,-1.2551,-1.2444,-1.24,-1.24,-1.236,-1.2374,-1.2539,-1.3153,-1.3707,-1.4092,-1.4456,-1.4741,-1.4939,-1.5035,-1.5083,-0.7112,-0.7627,-0.8239,-0.8501,-0.8626,-0.8734,-0.8939,0.0,0.0,0.0,0.0,0.0,0.0,0.0,0.0,0.0,0.0,0.0,0.0,0.0,0.0,0.0,0.0,0.0,0.0,0.0,0.0,0.0,0.0,0.0,0.0,0.0,0.0,-1.4293,-1.4265,-1.4702,-1.5609,-1.5674,-1.5709,-1.5709,-1.5709,-1.5709,-1.5709,-1.5709,-1.5709,0.0,0.0,0.0,-1.5267,-1.5267,-1.5267,-1.5267,-1.5332,-1.5523,-1.5774,-1.5844,-1.5844,-1.5839,-1.5804,-1.5523,-1.5142,-1.4926,-1.465,-1.4471,-1.4471,-1.4471,-1.4471,-1.4471,-1.4535,-1.4595,-1.4595,-1.4595,-1.4595,-1.4595,-1.4595,-1.4595,-1.4595,-1.4498,-1.4286,-1.4038,-1.3826,-1.3553,-1.336,-1.3315,-1.3315,-1.3315,-1.3148,-1.3012,-1.2976,-1.2648,-1.2395,-1.2334,-1.2147,-1.2016,-1.198,-1.198,-1.2093,-1.2337,-1.233,-1.2356,-1.2369,-1.2546,-1.2654,-1.2694,-1.3182,-1.345,-1.3491,-1.4189,-1.455,-1.4592,-1.4796,-1.4939,-0.7112,-0.7317,-0.7616,-0.7855,-0.8224,-0.8597,-0.8791,0.0,0.0,0.0,0.0,0.0,0.0,0.0,0.0,0.0,0.0,0.0,0.0,0.0,0.0,0.0,0.0,0.0,0.0,0.0,0.0,0.0,0.0,0.0,0.0,0.0,0.0,-1.3706,-1.3607,-1.3645,-1.3771,-1.4101,-1.4202,-1.4202,-1.4202,-1.4202,-1.4202,-1.4202,-1.4202,0.0,0.0,-1.4202,-1.4141,-1.4141,-1.4141,-1.4141,-1.4469,-1.4604,-1.4665,-1.4931,-1.5062,-1.5038,-1.4866,-1.4642,-1.4399,-1.4199,-1.3984,-1.3868,-1.3868,-1.3868,-1.3868,-1.3868,-1.4232,-1.4595,-1.4595,-1.4595,-1.4595,-1.4595,-1.4595,-1.4595,-1.4595,-1.4565,-1.4419,-1.4068,-1.3957,-1.38,-1.3386,-1.3315,-1.3315,-1.3315,-1.3285,-1.3189,-1.2997,-1.2963,-1.2729,-1.2365,-1.2294,-1.2193,-1.1996,-1.198,-1.2014,-1.2076,-1.2056,-1.2077,-1.2145,-1.2318,-1.256,-1.2778,-1.3034,-1.3254,-1.3482,-1.3619,-1.3781,-1.4027,-1.4076,-1.4214,-0.6832,-0.7102,-0.7369,-0.7502,-0.8032,-0.8549,-0.8805,-0.8911,0.0,0.0,0.0,0.0,0.0,0.0,0.0,0.0,0.0,0.0,0.0,0.0,0.0,0.0,0.0,0.0,0.0,0.0,0.0,0.0,0.0,0.0,0.0,0.0,0.0,0.0,-1.3151,-1.2989,-1.2805,-1.2974,-1.3302,-1.3725,-1.3725,-1.3778,-1.3875,-1.3875,-1.3875,-1.3875,0.0,-1.3875,-1.3875,-1.3875,-1.3875,-1.3945,-1.4076,-1.4141,-1.4141,-1.4272,-1.4338,-1.4297,-1.3988,-1.382,-1.3693,-1.3385,-1.3221,-1.3144,-1.3144,-1.3144,-1.3144,-1.3144,-1.3629,-1.4112,-1.4112,-1.4112,-1.4112,-1.4112,-1.4112,-1.4112,-1.4112,-1.4112,-1.402,-1.3708,-1.3609,-1.3429,-1.3116,-1.2904,-1.2822,-1.2822,-1.2713,-1.2571,-1.247,-1.2253,-1.201,-1.177,-1.1703,-1.1628,-1.1527,-1.156,-1.1688,-1.1975,-1.1981,-1.2023,-1.2057,-1.2147,-1.2294,-1.2603,-1.2837,-1.303,-1.3292,-1.3443,-1.3539,-1.3684,-1.3684,-1.3732,-0.6553,-0.6936,-0.7315,-0.7315,0.0,-0.853,-0.8753,-0.8924,0.0,0.0,0.0,0.0,0.0,0.0,0.0,0.0,0.0,0.0,0.0,0.0,0.0,0.0,0.0,0.0,0.0,0.0,0.0,0.0,0.0,0.0,0.0,0.0,0.0,0.0,-1.2448,-1.2228,-1.1928,-1.1928,-1.2414,-1.3276,-1.3276,-1.3371,-1.3613,-1.3613,-1.3639,-1.3617,-1.3617,-1.3617,-1.3617,-1.3617,-1.3617,-1.3682,-1.3748,-1.3814,-1.3875,-1.3875,-1.3875,-1.3822,-1.3431,-1.3299,-1.3233,-1.2847,-1.2719,-1.2719,-1.2719,-1.2719,-1.2719,-1.2719,-1.3084,-1.3449,-1.3449,-1.3449,-1.3449,-1.3449,-1.3449,-1.3449,-1.3449,-1.3449,-1.3388,-1.3189,-1.298,-1.2771,-1.2576,-1.2362,-1.2223,-1.2223,-1.206,-1.1896,-1.1896,-1.1603,-1.134,-1.1296,-1.1232,-1.1114,-1.1024,-1.1024,-1.1194,-1.1585,-1.1785,-1.1932,-1.198,-1.198,-1.2078,-1.2322,-1.2516,-1.271,-1.2953,-1.3152,-1.3298,-1.3394,-1.3394,-1.3443,-0.6313,-0.6791,-0.7315,-0.7315,-0.7815,-0.8361,-0.8578,-0.8963,0.0,-0.9787,0.0,0.0,0.0,0.0,0.0,0.0,0.0,0.0,0.0,0.0,0.0,0.0,0.0,0.0,0.0,0.0,0.0,0.0,0.0,0.0,0.0,0.0,0.0,0.0,0.0,-1.0944,-1.0887,-1.0887,-1.1422,-1.2388,-1.2388,-1.2477,-1.2709,-1.2709,-1.2739,-1.2902,-1.2902,-1.2902,-1.2902,-1.2902,-1.2902,-1.2902,-1.3301,-1.3625,-1.3875,-1.3875,-1.3875,-1.3822,-1.3431,-1.3299,-1.3233,-1.2847,-1.2719,-1.2719,-1.2719,-1.2719,-1.2719,-1.2719,-1.2719,-1.2779,-1.2779,-1.2779,-1.2779,-1.2779,-1.2779,-1.2779,-1.2779,-1.2779,-1.2726,-1.2537,-1.2338,-1.2082,-1.1893,-1.1755,-1.1678,-1.1678,-1.1623,-1.1623,-1.1623,-1.161,-1.1535,-1.1309,-1.1265,-1.1155,-1.0742,-1.0577,-1.0462,-1.0507,-1.1198,-1.1731,-1.198,-1.198,-1.2029,-1.2029,-1.2029,-1.2175,-1.2467,-1.2467,-1.271,-1.3147,-1.3147,-1.3249,-0.6032,-0.6504,-0.7025,-0.7191,-0.7707,0.0,0.0,-0.9198,-0.9581,-0.984,-0.9971,0.0,0.0,0.0,0.0,0.0,0.0,0.0,0.0,0.0,0.0,0.0,0.0,0.0,0.0,0.0,0.0,0.0,0.0,0.0,0.0,0.0,0.0,0.0,0.0,-1.0789,-1.0789,-1.0789,-1.0974,-1.1348,-1.146,-1.1666,-1.1764,-1.1764,-1.1921,-1.208,-1.208,-1.2076,-1.2177,-1.2375,-1.2507,-1.2507,-1.2906,-1.3099,-1.3227,-1.3227,-1.3152,-1.3082,-1.2766,-1.2599,-1.2461,-1.2214,-1.213,-1.213,-1.213,-1.213,-1.213,-1.213,-1.213,-1.2251,-1.2599,-1.2719,-1.2719,-1.2719,-1.2719,-1.2719,-1.2719,-1.2719,-1.2697,-1.2627,-1.2401,-1.2209,-1.2012,-1.1824,-1.1709,-1.1586,-1.1404,-1.1291,-1.1291,-1.1131,-1.0996,-1.0929,-1.0981,-1.0966,-1.0853,-1.0657,-1.0597,-1.0597,-1.0726,-1.0904,-1.0998,-1.1145,-1.134,-1.1492,-1.1683,-1.1883,-1.2175,-1.2175,-1.2224,-1.2419,-1.2419,-1.2565,-0.5648,-0.6156,-0.6717,-0.6951,0.0,0.0,-0.8755,-0.9169,-0.9564,-0.9795,-1.0012,0.0,0.0,0.0,0.0,0.0,0.0,0.0,0.0,0.0,0.0,0.0,0.0,0.0,0.0,0.0,0.0,0.0,0.0,0.0,0.0,0.0,0.0,0.0,0.0,-1.0486,-1.0486,-1.0486,-1.0486,-1.0486,-1.0602,-1.0867,-1.1214,-1.1214,-1.1367,-1.152,-1.152,-1.1614,-1.1768,-1.1964,-1.2127,-1.2177,-1.2375,-1.2507,-1.2499,-1.2443,-1.2344,-1.2274,-1.1984,-1.1826,-1.1695,-1.1521,-1.1466,-1.1466,-1.1466,-1.1466,-1.1466,-1.1466,-1.1466,-1.1587,-1.1997,-1.2242,-1.2423,-1.2423,-1.2363,-1.2238,-1.2238,-1.2178,-1.2118,-1.2238,-1.2094,-1.1908,-1.1829,-1.165,-1.1462,-1.1215,-1.0966,-1.0802,-1.0688,-1.0527,-1.0417,-1.0417,-1.0425,-1.0428,-1.0613,-1.0492,-1.0442,-1.0544,-1.036,-1.0276,-1.0413,-1.056,-1.0752,-1.0949,-1.1145,-1.1389,-1.1731,-1.1731,-1.1829,-1.198,-1.198,-1.2078,-0.5195,-0.5782,-0.6419,0.0,0.0,0.0,-0.8465,-0.8896,-0.9323,-0.9716,0.0,0.0,0.0,0.0,0.0,0.0,0.0,0.0,0.0,0.0,0.0,0.0,0.0,0.0,0.0,0.0,0.0,0.0,0.0,0.0,0.0,0.0,0.0,0.0,0.0,0.0,-0.9822,-0.9822,-0.9822,-0.9822,-0.9822,-1.0267,-1.1104,-1.1104,-1.1132,-1.1292,-1.1292,-1.1381,-1.1591,-1.1591,-1.1693,-1.1776,-1.1776,-1.1776,-1.1754,-1.1655,-1.1591,-1.1543,-1.1217,-1.1104,-1.1074,-1.0845,-1.0789,-1.0789,-1.0789,-1.0789,-1.0789,-1.0789,-1.0789,-1.0789,-1.0789,-1.1281,-1.1776,-1.1776,-1.1522,-1.1273,-1.1273,-1.1031,-1.091,-1.1212,-1.114,-1.1028,-1.1141,-1.1086,-1.0851,-1.0394,-1.0312,-1.0202,-0.9871,-0.9816,-0.9816,-0.9816,-0.9609,-0.9616,-0.9992,-0.9791,-0.9851,-1.0164,-0.9989,-1.0058,-1.0372,-1.0413,-1.0413,-1.0413,-1.0413,-1.0654,-1.1194,-1.1194,-1.1487,-1.1975,-1.198,-1.198,-0.5378,-0.5883,0.0,0.0,0.0,0.0,0.0,-0.8879,0.0,0.0,0.0,0.0,0.0,0.0,0.0,0.0,0.0,0.0,0.0,0.0,0.0,0.0,0.0,0.0,0.0,0.0,0.0,0.0,0.0,0.0,0.0,0.0,0.0,0.0,0.0,0.0,-0.9156,-0.9156,-0.9278,-0.9457,-0.9457,-0.9724,-1.0196,-1.0196,-1.0279,-1.0367,-1.0367,-1.0517,-1.0724,-1.092,-1.1201,-1.1437,-1.1437,-1.1437,-1.1434,-1.1381,-1.1352,-1.1235,-1.1138,-1.1026,-1.0856,-1.0804,-1.0789,-1.0789,-1.0789,-1.0789,-1.0789,-1.0789,-1.0789,-1.0789,-1.0789,-1.0974,-1.1095,-1.1095,-1.1035,-1.097,-1.097,-1.0849,-1.0849,-1.091,-1.0872,-1.0849,-1.0741,-1.0574,-1.0406,-1.013,-1.0002,-0.9926,-0.9816,-0.9816,-0.9816,-0.9816,-0.9771,-0.9742,-0.9851,-0.9693,-0.9598,-0.9705,-0.9549,-0.9638,-1.0016,-1.0086,-1.0117,-1.0117,-1.0314,-1.0462,-1.0659,-1.0659,-1.0703,-1.09,-1.1047,-1.1247,-0.5164,0.0,0.0,0.0,0.0,0.0,0.0,0.0,0.0,0.0,0.0,0.0,0.0,0.0,0.0,0.0,0.0,0.0,0.0,0.0,0.0,0.0,0.0,0.0,0.0,0.0,0.0,0.0,0.0,0.0,0.0,0.0,0.0,0.0,0.0,0.0,-0.8915,-0.8915,-0.8976,-0.9156,-0.9156,-0.9217,-0.946,-0.97,-0.9873,-0.9899,-0.996,-1.0041,-1.0195,-1.0506,-1.0725,-1.0915,-1.0915,-1.0915,-1.0908,-1.084,-1.0753,-1.0659,-1.0595,-1.0508,-1.0425,-1.0425,-1.0425,-1.0425,-1.0425,-1.0425,-1.0425,-1.0425,-1.0425,-1.0425,-1.0425,-1.0304,-1.0304,-1.0728,-1.0728,-1.0607,-1.0607,-1.0486,-1.0425,-1.0607,-1.0607,-1.056,-1.0521,-1.0412,-1.0191,-0.9915,-0.9586,-0.943,-0.943,-0.943,-0.943,-0.943,-0.943,-0.9485,-0.9651,-0.9505,-0.9501,-0.9609,-0.9457,-0.9478,-0.974,-0.9657,-0.963,-0.963,-0.9706,-0.9867,-1.0068,-1.0068,-1.0167,-1.0413,-1.056,-1.0708,-0.477,0.0,0.0,0.0,0.0,0.0,0.0,0.0,0.0,0.0,0.0,0.0,0.0,0.0,0.0,0.0,0.0,0.0,0.0,0.0,0.0,0.0,0.0,0.0,0.0,0.0,0.0,0.0,0.0,0.0,0.0,0.0,0.0,0.0,0.0,0.0,-0.8793,-0.8793,-0.8793,0.0,-0.8854,-0.8854,-0.8915,-0.9457,-0.97,-0.9707,-0.9844,-0.9905,-0.9915,-1.0118,-1.0176,-1.0176,-1.0176,-1.0176,-1.0159,-0.9955,-0.9905,-0.9885,-0.9747,-0.969,-0.968,-0.9694,-0.969,-0.968,-0.9694,-0.97,-0.97,-0.97,-0.97,-0.97,-0.97,-0.9518,-0.9518,-1.0425,-1.0365,-1.0183,-1.0183,-0.9943,-0.9822,-1.0122,-1.0183,-1.0201,-1.0301,-1.0248,-0.9954,-0.955,-0.9074,-0.8826,-0.8826,-0.8826,-0.8826,-0.8826,-0.8826,-0.8992,-0.9268,-0.9323,-0.9434,-0.9706,-0.9562,-0.9424,-0.9424,-0.9224,-0.9101,-0.9101,-0.8948,-0.9072,-0.9577,-0.9577,-0.9822,-1.0367,-1.0367,-1.0416,0.0,-0.5236,0.0,0.0,0.0,0.0,0.0,0.0,0.0,0.0,0.0,0.0,0.0,0.0,0.0,0.0,0.0,0.0,0.0,0.0,0.0,0.0,0.0,0.0,0.0,0.0,0.0,0.0,0.0,0.0,0.0,0.0,0.0,0.0,0.0,-0.8116,-0.8116,-0.8116,-0.8241,0.0,-0.8491,-0.8674,-0.8915,-0.9037,-0.9098,-0.9098,-0.913,-0.9142,-0.9145,-0.9177,-0.9189,-0.9189,-0.9189,-0.9189,-0.9183,-0.9155,-0.9142,-0.9139,-0.9108,-0.9023,-0.8951,-0.9061,-0.902,-0.8951,-0.9064,-0.9098,-0.9098,-0.9098,-0.9098,-0.9098,-0.9098,-0.9037,-0.9037,-0.9278,-0.9278,-0.922,-0.922,-0.9159,-0.9095,-0.9156,-0.922,-0.9211,-0.9239,-0.9022,-0.8705,-0.8401,-0.8285,-0.8214,-0.8214,-0.8214,-0.8214,-0.8214,-0.8432,-0.8598,-0.8709,-0.8878,-0.9047,-0.9103,-0.9071,-0.9054,-0.9054,-0.9186,-0.9276,-0.9276,-0.9239,-0.9272,-0.9379,-0.9379,-0.953,-0.984,-1.0094,-1.03,0.0,0.0,0.0,0.0,0.0,0.0,0.0,0.0,0.0,0.0,0.0,0.0,0.0,0.0,0.0,0.0,0.0,0.0,0.0,0.0,0.0,0.0,0.0,0.0,0.0,0.0,0.0,0.0,0.0,0.0,0.0,0.0,0.0,0.0,-0.7447,-0.7447,-0.7447,-0.7447,-0.7569,-0.7939,-0.7939,-0.8122,-0.8424,-0.8729,-0.8915,-0.8915,-0.8915,-0.8915,-0.8915,-0.8915,-0.8915,-0.8915,-0.8915,-0.8915,-0.8915,-0.8915,-0.8875,-0.8817,-0.8817,-0.8725,-0.862,-0.8694,-0.8669,-0.8635,-0.8774,-0.8817,-0.8829,-0.8897,-0.8915,-0.8915,-0.8915,-0.8793,-0.8674,-0.8674,-0.8793,-0.8915,-0.8915,-0.8915,-0.8915,-0.8915,-0.8915,-0.8915,-0.8915,-0.8625,-0.8314,-0.8117,-0.8032,-0.7989,-0.7989,-0.7989,-0.7989,-0.7989,-0.8156,-0.8266,-0.8266,-0.838,-0.8491,-0.8491,-0.8491,-0.8491,-0.8491,-0.8781,-0.8933,-0.9023,-0.8944,-0.8961,-0.9122,-0.9122,-0.9223,-0.9537,-0.9638,-0.9899,0.0,0.0,0.0,0.0,0.0,0.0,0.0,0.0,0.0,0.0,0.0,0.0,0.0,0.0,0.0,0.0,0.0,0.0,0.0,0.0,0.0,0.0,0.0,0.0,0.0,0.0,0.0,0.0,0.0,0.0,0.0,0.0,-0.69,-0.69,-0.69,-0.69,-0.69,-0.69,-0.7021,-0.7327,-0.7327,-0.7447,-0.775,-0.8305,-0.861,-0.8732,-0.8732,-0.8732,-0.8732,-0.8732,-0.8732,-0.8729,-0.8705,-0.8699,-0.8696,-0.8672,-0.8594,-0.8497,-0.8497,-0.8407,-0.8296,-0.8323,-0.8311,-0.8317,-0.8455,-0.8497,-0.8525,-0.866,-0.8639,-0.8641,-0.8604,-0.8366,-0.8125,-0.8125,-0.8366,-0.861,-0.8732,-0.8732,-0.8732,-0.8732,-0.8732,-0.8723,-0.8702,-0.845,-0.8258,-0.8076,-0.7963,-0.7891,-0.7891,-0.7891,-0.7891,-0.7891,-0.7947,-0.8003,-0.8003,-0.8059,-0.8059,-0.8059,-0.8059,-0.805,-0.8026,-0.8301,-0.8511,-0.8588,-0.8571,-0.867,-0.8888,-0.8888,-0.9047,-0.9308,-0.9308,-0.9463,0.0,0.0,0.0,0.0,0.0,0.0,0.0,0.0,0.0,0.0,0.0,0.0,0.0,0.0,0.0,0.0,0.0,0.0,0.0,0.0,0.0,0.0,0.0,0.0,0.0,0.0,0.0,0.0,0.0,0.0,0.0,-0.685,-0.69,-0.69,-0.69,-0.69,-0.69,-0.69,-0.69,-0.6962,-0.6962,-0.6962,-0.7021,-0.7143,-0.751,-0.8055,-0.8055,-0.8055,-0.8055,-0.8055,-0.8055,-0.8044,-0.7884,-0.7845,-0.7831,-0.7724,-0.7674,-0.766,-0.766,-0.7577,-0.7492,-0.7599,-0.7561,-0.7497,-0.7621,-0.766,-0.7685,-0.7809,-0.7663,-0.7441,-0.7543,-0.7327,-0.7084,-0.7084,-0.7146,-0.7327,-0.7933,-0.8055,-0.8055,-0.8055,-0.8055,-0.8025,-0.7862,-0.7817,-0.7754,-0.763,-0.7597,-0.7586,-0.7586,-0.7586,-0.7586,-0.7586,-0.7817,-0.7988,-0.7988,-0.8226,-0.8344,-0.8344,-0.8344,-0.829,-0.8171,-0.8222,-0.8214,-0.8076,-0.8611,-0.8879,-0.8879,-0.8879,-0.9044,-0.9369,-0.9369,-0.9534,-0.3606,0.0,0.0,0.0,0.0,0.0,0.0,0.0,0.0,0.0,0.0,0.0,0.0,0.0,0.0,0.0,0.0,0.0,0.0,0.0,0.0,0.0,0.0,0.0,0.0,0.0,0.0,0.0,0.0,0.0,-0.6118,-0.6213,-0.6265,-0.6265,-0.6318,-0.6348,-0.6348,-0.6348,-0.6407,-0.665,-0.6837,-0.69,-0.69,-0.69,-0.7084,-0.7324,-0.7324,-0.7324,-0.7324,-0.7324,-0.7347,-0.7286,-0.724,-0.7122,-0.7061,-0.7011,-0.6953,-0.6897,-0.6897,-0.6824,-0.6743,-0.6793,-0.6776,-0.6755,-0.6862,-0.6897,-0.692,-0.7033,-0.7052,-0.699,-0.704,-0.6977,-0.69,-0.69,-0.69,-0.6962,-0.7263,-0.7324,-0.7324,-0.7324,-0.7324,-0.7312,-0.7264,-0.7203,-0.7145,-0.7035,-0.6972,-0.6932,-0.6932,-0.6932,-0.6993,-0.7229,-0.7343,-0.7519,-0.7691,-0.781,-0.7871,-0.7871,-0.7871,-0.7846,-0.7789,-0.8017,-0.801,-0.7877,-0.8196,-0.8491,-0.8657,-0.8657,-0.8823,-0.9103,-0.9103,-0.9268,0.0,0.0,0.0,0.0,0.0,0.0,0.0,0.0,0.0,0.0,0.0,0.0,0.0,0.0,0.0,0.0,0.0,0.0,0.0,0.0,0.0,0.0,0.0,0.0,0.0,0.0,0.0,0.0,0.0,0.0,-0.5494,-0.558,-0.5628,-0.5568,-0.5571,-0.5604,-0.5604,-0.5667,-0.5908,-0.6207,-0.6454,-0.6575,-0.6575,-0.6575,-0.6575,-0.6579,-0.6815,-0.6884,-0.686,-0.686,-0.6798,-0.6758,-0.6731,-0.661,-0.6536,-0.6512,-0.6453,-0.6384,-0.6384,-0.6336,-0.6274,-0.6274,-0.6274,-0.6289,-0.6362,-0.6384,-0.6405,-0.6512,-0.6598,-0.6615,-0.6667,-0.6619,-0.6623,-0.6648,-0.6655,-0.6716,-0.6839,-0.69,-0.69,-0.69,-0.69,-0.69,-0.69,-0.6834,-0.6781,-0.6781,-0.6653,-0.6603,-0.6603,-0.6603,-0.6722,-0.6963,-0.6963,-0.7082,-0.7316,-0.7375,-0.7375,-0.749,-0.749,-0.7477,-0.7568,-0.7797,-0.7854,-0.7723,-0.777,-0.8023,-0.8377,-0.8377,-0.8543,-0.8826,-0.8826,-0.8992,0.0,0.0,0.0,0.0,0.0,0.0,0.0,0.0,0.0,0.0,0.0,0.0,0.0,0.0,0.0,0.0,0.0,0.0,0.0,0.0,0.0,0.0,0.0,0.0,0.0,0.0,0.0,0.0,0.0,0.0,-0.5119,-0.5199,-0.5127,-0.4831,-0.4835,-0.4836,-0.4836,-0.5134,-0.5367,-0.5657,-0.5657,-0.5657,-0.5657,-0.5657,-0.5657,-0.5726,-0.657,-0.6843,-0.681,-0.681,-0.6746,-0.6581,-0.6479,-0.6434,-0.642,-0.6324,-0.6286,-0.6281,-0.6281,-0.6279,-0.6274,-0.6274,-0.6274,-0.6277,-0.6281,-0.6281,-0.6303,-0.6403,-0.6207,-0.6085,-0.6268,-0.6082,-0.5871,-0.5957,-0.5978,-0.6103,-0.6778,-0.69,-0.69,-0.69,-0.69,-0.69,-0.69,-0.6896,-0.6891,-0.6891,-0.6886,-0.6884,-0.6884,-0.6884,-0.6884,-0.6884,-0.6884,-0.6884,-0.6945,-0.6945,-0.7065,-0.737,-0.7429,-0.7504,-0.7698,-0.7693,-0.7635,-0.751,-0.7388,-0.7553,-0.8045,-0.8045,-0.8211,-0.854,-0.854,-0.8654,0.0,0.0,0.0,0.0,0.0,0.0,0.0,0.0,0.0,0.0,0.0,0.0,0.0,0.0,0.0,0.0,0.0,0.0,0.0,0.0,0.0,0.0,0.0,0.0,0.0,0.0,0.0,0.0,0.0,0.0,-0.4747,-0.4766,-0.4751,-0.4693,-0.4741,-0.4826,-0.4826,-0.4885,-0.5002,-0.5059,-0.5059,-0.5059,-0.5059,-0.5059,-0.5059,-0.5121,-0.5418,-0.5725,-0.6048,-0.6048,-0.599,-0.5899,-0.5864,-0.5814,-0.576,-0.5727,-0.5717,-0.5717,-0.5717,-0.5717,-0.5717,-0.5717,-0.5717,-0.5717,-0.5717,-0.5547,-0.5384,-0.5414,-0.5295,-0.5123,-0.5182,-0.516,-0.5201,-0.5223,-0.5241,-0.5302,-0.5548,-0.5609,-0.5671,-0.5914,-0.5914,-0.5976,-0.6223,-0.6285,-0.6285,-0.6285,-0.6285,-0.6285,-0.6285,-0.6285,-0.6346,-0.6528,-0.6589,-0.6653,-0.69,-0.69,-0.6962,-0.7084,-0.7082,-0.7126,-0.721,-0.7208,-0.7216,-0.7277,-0.7233,-0.7467,-0.7889,-0.7812,-0.7881,-0.8208,-0.8374,-0.8543,0.0,0.0,0.0,0.0,0.0,0.0,0.0,0.0,0.0,0.0,0.0,0.0,0.0,0.0,0.0,0.0,0.0,0.0,0.0,0.0,0.0,0.0,0.0,0.0,0.0,0.0,0.0,0.0,0.0,0.0,-0.4313,-0.436,-0.433,-0.4271,-0.4375,-0.4459,-0.4516,-0.4516,-0.4574,-0.469,-0.469,-0.469,-0.469,-0.469,-0.469,-0.469,-0.469,-0.4935,-0.5249,-0.5249,-0.5257,-0.5293,-0.5293,-0.5318,-0.5382,-0.5382,-0.5382,-0.5382,-0.5268,-0.5212,-0.5212,-0.51,-0.5098,-0.5098,-0.5098,-0.4931,-0.4761,-0.4761,-0.4687,-0.456,-0.4586,-0.4688,-0.4802,-0.4879,-0.4774,-0.4717,-0.4744,-0.481,-0.4995,-0.5177,-0.5239,-0.53,-0.5548,-0.5548,-0.5548,-0.5548,-0.5548,-0.5548,-0.5548,-0.5548,-0.5671,-0.6035,-0.6035,-0.6219,-0.653,-0.6594,-0.6591,-0.6714,-0.6714,-0.6775,-0.69,-0.69,-0.6989,-0.7273,-0.7235,-0.7356,-0.768,-0.7559,-0.7644,-0.7881,-0.81,-0.8347,0.0,0.0,0.0,0.0,0.0,0.0,0.0,0.0,0.0,0.0,0.0,0.0,0.0,0.0,0.0,0.0,0.0,0.0,0.0,0.0,0.0,0.0,0.0,0.0,0.0,0.0,0.0,0.0,0.0,-0.4308,-0.3979,-0.398,-0.3868,-0.3587,-0.3587,-0.3699,-0.398,-0.398,-0.4148,-0.4479,-0.4479,-0.4479,-0.4479,-0.4479,-0.4479,-0.4479,-0.4479,-0.4521,-0.4589,-0.4589,-0.4717,-0.4873,-0.4873,-0.5098,-0.5382,-0.5382,-0.5382,-0.5326,-0.4987,-0.4873,-0.4817,-0.4592,-0.448,-0.448,-0.448,-0.448,-0.4479,-0.4479,-0.4479,-0.4497,-0.4574,-0.4649,-0.4783,-0.4799,-0.4517,-0.4293,-0.436,-0.4622,-0.4872,-0.4872,-0.4872,-0.4872,-0.487,-0.487,-0.4868,-0.4867,-0.4926,-0.4926,-0.4926,-0.4926,-0.5049,-0.5352,-0.5354,-0.554,-0.5851,-0.5855,-0.6037,-0.6342,-0.6403,-0.6528,-0.6839,-0.69,-0.7021,-0.7385,-0.7276,-0.7282,-0.746,-0.7339,-0.7392,-0.7613,-0.7616,-0.8018,-0.1908,0.0,0.0,0.0,0.0,0.0,0.0,0.0,0.0,0.0,0.0,0.0,0.0,0.0,0.0,0.0,0.0,0.0,0.0,0.0,0.0,0.0,0.0,0.0,0.0,0.0,0.0,0.0,-0.3837,-0.3695,-0.363,-0.3675,-0.3699,-0.3587,-0.3587,-0.3643,-0.3699,-0.3699,-0.3755,-0.3866,-0.3866,-0.3866,-0.3866,-0.3866,-0.3866,-0.3866,-0.3866,-0.3877,-0.3893,-0.4342,-0.4555,-0.4592,-0.4592,-0.4648,-0.4761,-0.4761,-0.4761,-0.4761,-0.4648,-0.4592,-0.4592,-0.4536,-0.448,-0.448,-0.448,-0.4313,-0.4148,-0.4148,-0.3979,-0.3882,-0.3948,-0.3977,-0.4008,-0.4074,-0.3885,-0.368,-0.3697,-0.3611,-0.3701,-0.4378,-0.4562,-0.4608,-0.4801,-0.4851,-0.4834,-0.4838,-0.4829,-0.4829,-0.4829,-0.4829,-0.4889,-0.4946,-0.4939,-0.5033,-0.5093,-0.5389,-0.5605,-0.5667,-0.5914,-0.6101,-0.6162,-0.6162,-0.6346,-0.6648,-0.6869,-0.7005,-0.7112,-0.7224,-0.732,-0.7403,-0.7721,-0.8244,0.0,0.0,0.0,0.0,0.0,0.0,0.0,-0.2339,0.0,0.0,0.0,0.0,0.0,0.0,0.0,0.0,0.0,0.0,0.0,0.0,0.0,0.0,0.0,0.0,0.0,0.0,0.0,0.0,-0.3518,-0.3427,-0.3459,-0.3518,-0.3495,-0.3386,-0.3519,-0.3531,-0.3418,-0.3531,-0.3587,-0.3587,-0.3587,-0.3587,-0.3587,-0.3475,-0.3418,-0.3362,-0.3251,-0.3253,-0.3253,-0.3587,-0.3979,-0.4314,-0.4314,-0.4369,-0.448,-0.448,-0.448,-0.4479,-0.4313,-0.4314,-0.4258,-0.4145,-0.4033,-0.392,-0.392,-0.3699,-0.3478,-0.3478,-0.3365,-0.326,-0.3292,-0.3301,-0.3314,-0.3368,-0.3287,-0.3143,-0.3186,-0.3096,-0.3121,-0.3696,-0.3803,-0.3837,-0.3983,-0.4076,-0.4164,-0.4184,-0.4296,-0.4356,-0.4356,-0.4356,-0.4413,-0.4589,-0.4568,-0.4666,-0.4817,-0.5042,-0.5203,-0.5419,-0.5607,-0.5732,-0.5916,-0.5916,-0.6039,-0.6403,-0.6714,-0.7001,-0.7302,-0.7407,-0.7462,-0.7413,-0.7832,-0.8245,0.0,0.0,0.0,0.0,0.0,0.0,-0.2047,-0.2211,-0.2333,0.0,0.0,0.0,0.0,0.0,0.0,0.0,0.0,0.0,0.0,0.0,0.0,0.0,0.0,0.0,0.0,0.0,-0.3214,-0.3272,-0.3288,-0.3296,-0.3296,-0.3349,-0.327,-0.3055,-0.3325,-0.3353,-0.3074,-0.336,-0.3475,-0.3475,-0.3475,-0.3475,-0.3475,-0.3194,-0.3082,-0.3026,-0.2805,-0.2693,-0.2693,-0.2693,-0.3198,-0.3924,-0.3924,-0.4091,-0.4424,-0.4424,-0.4424,-0.4369,-0.4036,-0.3924,-0.3868,-0.3643,-0.3307,-0.3082,-0.3082,-0.2915,-0.2693,-0.2693,-0.2693,-0.2693,-0.2693,-0.2693,-0.2704,-0.2799,-0.2754,-0.2779,-0.2802,-0.2826,-0.2784,-0.2885,-0.2861,-0.2892,-0.2886,-0.3085,-0.3228,-0.3222,-0.3514,-0.3691,-0.3691,-0.3691,-0.3865,-0.4154,-0.4219,-0.437,-0.4681,-0.4696,-0.4912,-0.5293,-0.5298,-0.5485,-0.5855,-0.5855,-0.5976,-0.6342,-0.6703,-0.7147,-0.766,-0.7709,-0.7646,-0.754,-0.7841,-0.8086,0.0,0.0,0.0,0.0,0.0,0.0,-0.1786,-0.1844,-0.1917,0.0,0.0,0.0,0.0,0.0,0.0,0.0,0.0,0.0,0.0,0.0,0.0,0.0,0.0,0.0,0.0,0.0,-0.2542,-0.2589,-0.2666,-0.266,-0.266,-0.2758,-0.2731,-0.2678,-0.2778,-0.2748,-0.2693,-0.2842,-0.2862,-0.2862,-0.2862,-0.2862,-0.2862,-0.2806,-0.2805,-0.2748,-0.275,-0.2693,-0.2693,-0.2693,-0.2917,-0.325,-0.325,-0.3474,-0.3755,-0.3755,-0.3755,-0.3755,-0.3699,-0.3475,-0.325,-0.3194,-0.3027,-0.2805,-0.2805,-0.275,-0.2693,-0.2693,-0.2693,-0.2693,-0.2693,-0.2693,-0.2695,-0.2705,-0.2563,-0.242,-0.2435,-0.2252,-0.2113,-0.212,-0.2538,-0.2882,-0.2844,-0.2859,-0.2874,-0.2839,-0.289,-0.289,-0.289,-0.3114,-0.3281,-0.3338,-0.3608,-0.3837,-0.3958,-0.4248,-0.4426,-0.4558,-0.487,-0.5179,-0.5483,-0.5483,-0.5669,-0.5978,-0.6512,-0.6984,-0.7474,-0.7627,-0.769,-0.7668,-0.7821,-0.806,0.0,0.0,0.0,-0.1793,0.0,0.0,0.0,-0.1628,-0.1551,0.0,0.0,0.0,0.0,0.0,0.0,0.0,0.0,0.0,0.0,0.0,0.0,0.0,0.0,0.0,0.0,0.0,-0.2322,-0.2367,-0.2364,-0.2399,-0.2471,-0.2516,-0.25,-0.2365,-0.2514,-0.2548,-0.2406,-0.2592,-0.2671,-0.2693,-0.2693,-0.2693,-0.2693,-0.2525,-0.2469,-0.2469,-0.23,-0.2244,-0.2244,-0.2244,-0.2412,-0.2691,-0.2859,-0.3029,-0.3141,-0.3141,-0.3141,-0.3141,-0.3141,-0.3029,-0.2915,-0.2915,-0.2692,-0.2469,-0.2469,-0.2356,-0.2244,-0.2244,-0.2244,-0.2244,-0.2244,-0.2244,-0.2244,-0.2244,-0.2033,-0.1822,-0.1837,-0.1641,-0.1435,-0.1446,-0.1678,-0.2021,-0.23,-0.2424,-0.2491,-0.2472,-0.2581,-0.2693,-0.2693,-0.2805,-0.2915,-0.2915,-0.3108,-0.3269,-0.3526,-0.3676,-0.3969,-0.437,-0.4562,-0.4808,-0.5116,-0.5298,-0.5605,-0.616,-0.6417,-0.6722,-0.7143,-0.7393,-0.7606,-0.7788,-0.7845,-0.7994,0.0,0.0,0.0,0.0,0.0,-0.1635,0.0,0.0,0.0,-0.1264,0.0,0.0,0.0,0.0,0.0,0.0,0.0,0.0,0.0,0.0,0.0,0.0,0.0,0.0,0.0,0.0,-0.2119,-0.2107,-0.2126,-0.2149,-0.2229,-0.228,-0.2224,-0.2001,-0.2255,-0.2349,-0.2112,-0.2336,-0.2471,-0.2513,-0.2513,-0.2518,-0.2525,-0.2244,-0.2132,-0.2132,-0.1907,-0.1795,-0.1795,-0.1795,-0.1908,-0.2132,-0.2469,-0.2637,-0.2693,-0.2693,-0.2693,-0.2693,-0.2693,-0.2637,-0.2581,-0.2581,-0.2413,-0.2132,-0.202,-0.1851,-0.1683,-0.1627,-0.1627,-0.1627,-0.1627,-0.1627,-0.1627,-0.1627,-0.1402,-0.1238,-0.1313,-0.1104,-0.0887,-0.0959,-0.0953,-0.1065,-0.1592,-0.1835,-0.1964,-0.202,-0.2244,-0.2469,-0.2525,-0.2581,-0.2581,-0.2581,-0.2637,-0.2843,-0.317,-0.3179,-0.352,-0.4185,-0.4255,-0.4378,-0.481,-0.5177,-0.5667,-0.6219,-0.6342,-0.6528,-0.6775,-0.7143,-0.7447,-0.7811,-0.7872,-0.7872,0.0,0.0,0.0,0.0,-0.1569,0.0,0.0,0.0,-0.1337,-0.1157,0.0,0.0,0.0,0.0,0.0,0.0,0.0,0.0,0.0,0.0,0.0,0.0,0.0,0.0,0.0,0.0,0.0,-0.1493,-0.1546,-0.158,-0.1584,-0.169,-0.1677,-0.168,-0.174,-0.1773,-0.1776,-0.1803,-0.1833,-0.192,-0.192,-0.1879,-0.1907,-0.1851,-0.1851,-0.1851,-0.1795,-0.1795,-0.1795,-0.1795,-0.1795,-0.1851,-0.2132,-0.2413,-0.2693,-0.2693,-0.2693,-0.2693,-0.2693,-0.2525,-0.2244,-0.2244,-0.2076,-0.1795,-0.1514,-0.1402,-0.129,-0.1065,-0.1009,-0.1009,-0.1009,-0.1009,-0.1009,-0.1009,-0.0953,-0.0954,-0.0956,-0.0922,-0.0884,-0.0886,-0.0895,-0.0899,-0.1004,-0.1032,-0.1121,-0.1346,-0.1458,-0.157,-0.1851,-0.2132,-0.2244,-0.2244,-0.2525,-0.2729,-0.2876,-0.2884,-0.3043,-0.3571,-0.3579,-0.3885,-0.4439,-0.5053,-0.5421,-0.5483,-0.6096,-0.6403,-0.6464,-0.6775,-0.7143,-0.7447,-0.775,-0.7872,0.0,0.0,0.0,0.0,0.0,0.0,0.0,0.0,-0.1086,0.0,0.0,0.0,0.0,0.0,0.0,0.0,0.0,0.0,0.0,0.0,0.0,0.0,0.0,0.0,0.0,0.0,0.0,0.0,0.0,-0.14,-0.1452,-0.1478,-0.1517,-0.1619,-0.1646,-0.1677,-0.1714,-0.1726,-0.1695,-0.1723,-0.1723,-0.1739,-0.1769,-0.1603,-0.15,-0.1514,-0.1346,-0.129,-0.129,-0.1458,-0.1514,-0.1514,-0.1851,-0.2076,-0.2188,-0.2188,-0.2188,-0.2188,-0.2188,-0.2076,-0.1964,-0.1739,-0.1627,-0.1458,-0.1177,-0.1065,-0.1065,-0.0953,-0.0897,-0.0897,-0.0897,-0.0897,-0.0897,-0.0897,-0.0729,-0.0617,-0.0617,-0.0514,-0.0349,-0.0353,-0.0355,-0.0357,-0.0358,-0.064,-0.0964,-0.1067,-0.1065,-0.1121,-0.1234,-0.1402,-0.152,-0.1706,-0.1878,-0.2133,-0.2559,-0.2565,-0.2771,-0.3203,-0.3394,-0.3764,-0.4376,-0.487,-0.5177,-0.5421,-0.5853,-0.6099,-0.6099,-0.6467,-0.6775,-0.7143,-0.7447,-0.7689,-0.1739,0.0,0.0,0.0,0.0,0.0,0.0,0.0,0.0,0.0,0.0,0.0,0.0,0.0,0.0,0.0,0.0,0.0,0.0,0.0,0.0,0.0,0.0,0.0,0.0,0.0,0.0,0.0,-0.1269,0.0,-0.1253,-0.1278,-0.1321,-0.1388,-0.1461,-0.1493,-0.1586,-0.1645,-0.1665,-0.1692,-0.164,-0.1601,-0.1629,-0.1309,-0.1211,-0.117,-0.1007,-0.0897,-0.0897,-0.1121,-0.1177,-0.1234,-0.1458,-0.157,-0.157,-0.1739,-0.1795,-0.1795,-0.1683,-0.1627,-0.1514,-0.129,-0.1177,-0.1121,-0.0841,-0.0785,-0.0729,-0.0673,-0.0673,-0.0673,-0.0673,-0.0673,-0.0673,-0.0673,-0.0449,-0.028,-0.028,-0.0114,0.0,0.0,0.0,0.0,0.0,-0.0354,-0.0692,-0.074,-0.0739,-0.0796,-0.0909,-0.0909,-0.0971,-0.1214,-0.1332,-0.1581,-0.2105,-0.223,-0.2427,-0.2835,-0.3271,-0.3702,-0.4132,-0.4564,-0.4933,-0.5239,-0.5607,-0.5794,-0.5916,-0.616,-0.6405,-0.6775,-0.7202,-0.7566,0.0,0.0,0.0,-0.14,0.0,0.0,0.0,0.0,-0.0991,0.0,0.0,0.0,0.0,0.0,0.0,0.0,0.0,0.0,0.0,0.0,0.0,0.0,0.0,0.0,0.0,0.0,0.0,-0.1092,-0.1181,-0.1114,-0.0945,-0.0968,-0.0968,-0.0809,-0.1096,-0.1228,-0.123,-0.1453,-0.1634,-0.1716,-0.1455,-0.1311,-0.1333,-0.1031,-0.093,-0.0931,-0.0891,-0.0897,-0.0897,-0.0897,-0.0897,-0.0897,-0.0897,-0.0953,-0.1009,-0.157,-0.1795,-0.1739,-0.1402,-0.1121,-0.0953,-0.0897,-0.0897,-0.0841,-0.0505,-0.0393,-0.0336,-0.0112,-0.0056,-0.0056,-0.0056,-0.0056,-0.0056,-0.0056,0.0,0.0,0.0,0.0,0.0,0.0,0.0,0.0,0.0,0.0,-0.0118,-0.0353,-0.0412,-0.0529,-0.0882,-0.0882,-0.0883,-0.0942,-0.1177,-0.1422,-0.1446,-0.175,-0.2065,-0.2465,-0.3146,-0.3517,-0.3517,-0.407,-0.4562,-0.4935,-0.5239,-0.5546,-0.5916,-0.5916,-0.6099,-0.6403,-0.7079,-0.7566,0.0,0.0,-0.1254,-0.1196,0.0,0.0,0.0,0.0,0.0,0.0,0.0,0.0,0.0,0.0,0.0,0.0,0.0,0.0,0.0,0.0,0.0,0.0,0.0,0.0,0.0,0.0,0.0,-0.0763,-0.0791,-0.0793,0.0,-0.0797,-0.0798,-0.0806,-0.087,-0.0944,-0.0932,-0.1037,-0.1101,-0.1122,-0.102,-0.0978,-0.1048,-0.0738,-0.0589,-0.0547,-0.0386,-0.0278,-0.0336,-0.0505,-0.0561,-0.0617,-0.0841,-0.0897,-0.0897,-0.1121,-0.1177,-0.1177,-0.1065,-0.0953,-0.0841,-0.0617,-0.0561,-0.0505,-0.0224,0.0,0.0168,0.0224,0.0449,0.0617,0.0617,0.0617,0.0617,0.0617,0.0617,0.0617,0.0617,0.0394,0.0285,0.0293,0.0118,0.0,0.0,0.0,-0.006,-0.0118,-0.0118,-0.0177,-0.0295,-0.0295,-0.0414,-0.0598,-0.0718,-0.0964,-0.1408,-0.1777,-0.2149,-0.2466,-0.29,-0.3271,-0.3517,-0.407,-0.4439,-0.4562,-0.5114,-0.5483,-0.5546,-0.5794,-0.6101,-0.6403,-0.6837,-0.7266,-0.1113,-0.1093,0.0,-0.1122,-0.1145,0.0,-0.1099,0.0,0.0,0.0,0.0,0.0,0.0,0.0,0.0,0.0,0.0,0.0,0.0,-0.0247,0.0,0.0,0.0,0.0,0.0,0.0,-0.052,-0.0562,-0.0579,-0.0574,0.0,0.0,-0.0558,-0.0519,-0.062,-0.0645,-0.068,-0.0734,-0.0793,-0.0808,-0.0707,-0.0661,-0.072,-0.0414,-0.0263,-0.0269,-0.0054,0.0,0.0,-0.0168,-0.028,-0.028,-0.0505,-0.0561,-0.0617,-0.0841,-0.0841,-0.0729,-0.0729,-0.0673,-0.0561,-0.0336,-0.0168,-0.0056,0.0112,0.0336,0.0561,0.0561,0.0729,0.0897,0.0897,0.0897,0.0897,0.0897,0.0897,0.0897,0.0897,0.0729,0.0565,0.0407,0.0235,0.0119,0.0,0.0,0.0,0.0,0.0,0.0,0.0,0.0,-0.006,-0.0304,-0.0426,-0.0794,-0.1419,-0.1667,-0.1976,-0.2283,-0.2776,-0.3085,-0.3332,-0.3887,-0.4255,-0.4376,-0.4931,-0.5298,-0.5421,-0.573,-0.6039,-0.6221,-0.6714,-0.7023]}]]